[[{"header":{"parameterUnit":"m.s-1","parameterCategory":1,"la1":31.0,"la2":29.5877,"lo1":-88.7671,"lo2":-86.6584,"dx":0.0162,"dy":0.0185,"nx":115,"ny":88,"refTime":"2023-01-02T06:00:00:Z","depth":0,"parameterNumber":2,"parameterNumberName":"U-component_of_WINDS"},"data":[0.0,0.0,0.0,0.0,0.0,0.0,0.0,0.0,0.0,0.0,0.0,0.0,0.0,0.0,0.0,0.0,0.0,0.0,0.0,0.0,0.0,0.0,0.0,0.0,0.0,0.0,0.0,0.0,0.0,0.0,0.0,0.0,0.0,0.0,0.0,0.0,0.0,0.0,0.0,0.0,0.0,-1.5107,-1.5045,-1.4963,-1.4886,-1.4799,-1.4661,0.0,0.0,0.0,0.0,0.0,0.0,0.0,0.0,0.0,0.0,0.0,0.0,0.0,0.0,0.0,0.0,0.0,0.0,0.0,0.0,0.0,0.0,0.0,0.0,0.0,0.0,0.0,0.0,0.0,0.0,0.0,0.0,0.0,0.0,0.0,0.0,0.0,0.0,0.0,0.0,0.0,0.0,0.0,0.0,0.0,0.0,0.0,0.0,0.0,0.0,0.0,0.0,0.0,0.0,0.0,0.0,0.0,0.0,0.0,0.0,0.0,0.0,0.0,0.0,0.0,0.0,0.0,0.0,0.0,0.0,0.0,0.0,0.0,0.0,0.0,0.0,0.0,0.0,0.0,0.0,0.0,0.0,0.0,0.0,0.0,0.0,0.0,0.0,0.0,0.0,0.0,0.0,0.0,0.0,0.0,0.0,0.0,0.0,0.0,0.0,0.0,0.0,0.0,0.0,0.0,0.0,0.0,0.0,0.0,0.0,-1.5042,-1.4911,-1.4837,-1.4726,-1.4589,0.0,0.0,0.0,0.0,0.0,0.0,0.0,0.0,0.0,0.0,0.0,0.0,0.0,0.0,0.0,0.0,0.0,0.0,0.0,0.0,0.0,0.0,0.0,0.0,0.0,0.0,0.0,0.0,0.0,0.0,0.0,0.0,0.0,0.0,0.0,0.0,0.0,0.0,0.0,0.0,0.0,0.0,0.0,0.0,0.0,0.0,0.0,0.0,0.0,0.0,0.0,0.0,0.0,0.0,0.0,0.0,0.0,0.0,0.0,0.0,0.0,0.0,0.0,0.0,0.0,0.0,0.0,0.0,0.0,0.0,0.0,0.0,0.0,0.0,0.0,0.0,0.0,0.0,0.0,0.0,0.0,0.0,0.0,0.0,0.0,0.0,0.0,0.0,0.0,0.0,0.0,0.0,0.0,0.0,0.0,0.0,0.0,0.0,0.0,0.0,0.0,0.0,0.0,0.0,0.0,0.0,0.0,0.0,0.0,0.0,-1.5038,-1.4913,-1.4799,-1.4627,-1.4457,0.0,0.0,0.0,0.0,0.0,0.0,0.0,0.0,0.0,0.0,0.0,0.0,0.0,0.0,0.0,0.0,0.0,0.0,0.0,0.0,0.0,0.0,0.0,0.0,0.0,0.0,0.0,0.0,0.0,0.0,0.0,0.0,0.0,0.0,0.0,0.0,0.0,0.0,0.0,0.0,0.0,0.0,0.0,0.0,0.0,0.0,0.0,0.0,0.0,0.0,0.0,0.0,0.0,0.0,0.0,0.0,0.0,0.0,0.0,0.0,0.0,0.0,0.0,0.0,0.0,0.0,0.0,0.0,0.0,0.0,0.0,0.0,0.0,0.0,0.0,0.0,0.0,0.0,0.0,0.0,0.0,0.0,0.0,0.0,0.0,0.0,0.0,0.0,0.0,0.0,0.0,0.0,0.0,0.0,0.0,0.0,0.0,0.0,0.0,0.0,0.0,0.0,0.0,0.0,0.0,0.0,0.0,0.0,0.0,0.0,-1.4996,-1.4891,-1.4737,-1.4592,-1.4404,-1.4262,0.0,0.0,0.0,0.0,0.0,0.0,0.0,0.0,0.0,0.0,0.0,0.0,0.0,0.0,0.0,0.0,0.0,0.0,0.0,0.0,0.0,0.0,0.0,0.0,0.0,0.0,0.0,0.0,0.0,0.0,0.0,0.0,0.0,0.0,0.0,0.0,0.0,0.0,0.0,0.0,0.0,0.0,0.0,0.0,0.0,0.0,0.0,0.0,0.0,0.0,0.0,0.0,0.0,0.0,0.0,0.0,0.0,0.0,0.0,0.0,0.0,0.0,0.0,0.0,0.0,0.0,0.0,0.0,0.0,0.0,0.0,0.0,0.0,0.0,0.0,0.0,0.0,0.0,0.0,0.0,0.0,0.0,0.0,0.0,0.0,0.0,0.0,0.0,0.0,0.0,0.0,0.0,0.0,0.0,0.0,0.0,0.0,0.0,0.0,0.0,0.0,0.0,0.0,0.0,0.0,0.0,0.0,0.0,0.0,-1.4948,-1.4859,-1.4687,-1.4508,-1.4393,-1.426,0.0,0.0,0.0,0.0,0.0,0.0,0.0,0.0,0.0,0.0,0.0,0.0,0.0,0.0,0.0,0.0,0.0,0.0,0.0,0.0,0.0,0.0,0.0,0.0,0.0,0.0,0.0,0.0,0.0,0.0,0.0,0.0,0.0,0.0,0.0,0.0,0.0,0.0,0.0,0.0,0.0,0.0,0.0,0.0,0.0,0.0,0.0,0.0,0.0,0.0,0.0,0.0,0.0,0.0,0.0,0.0,0.0,0.0,0.0,0.0,0.0,0.0,0.0,0.0,0.0,0.0,0.0,0.0,0.0,0.0,0.0,0.0,0.0,0.0,0.0,0.0,0.0,0.0,0.0,0.0,0.0,0.0,0.0,0.0,0.0,0.0,0.0,0.0,0.0,0.0,0.0,0.0,0.0,0.0,0.0,0.0,0.0,0.0,0.0,0.0,0.0,0.0,0.0,0.0,0.0,0.0,0.0,0.0,0.0,-1.4853,-1.4742,-1.4598,-1.4422,-1.4267,-1.4576,0.0,0.0,0.0,0.0,0.0,0.0,0.0,0.0,0.0,0.0,0.0,0.0,0.0,0.0,0.0,0.0,0.0,0.0,0.0,0.0,0.0,0.0,0.0,0.0,0.0,0.0,0.0,0.0,0.0,0.0,0.0,0.0,0.0,0.0,0.0,0.0,0.0,0.0,0.0,0.0,0.0,0.0,0.0,0.0,0.0,0.0,0.0,0.0,0.0,0.0,0.0,0.0,0.0,0.0,0.0,0.0,0.0,0.0,0.0,0.0,0.0,0.0,0.0,0.0,0.0,0.0,0.0,0.0,0.0,0.0,0.0,0.0,0.0,0.0,0.0,0.0,0.0,0.0,0.0,0.0,0.0,0.0,0.0,0.0,0.0,0.0,0.0,0.0,0.0,0.0,0.0,0.0,0.0,0.0,0.0,0.0,0.0,0.0,0.0,0.0,0.0,0.0,0.0,0.0,0.0,0.0,0.0,0.0,0.0,-1.479,-1.4661,-1.448,-1.4307,-1.4165,-1.4619,0.0,0.0,0.0,0.0,0.0,0.0,0.0,0.0,0.0,0.0,0.0,0.0,0.0,0.0,0.0,0.0,0.0,0.0,0.0,0.0,0.0,0.0,0.0,0.0,0.0,0.0,0.0,0.0,0.0,0.0,0.0,0.0,0.0,0.0,0.0,0.0,0.0,0.0,0.0,0.0,0.0,0.0,0.0,0.0,0.0,0.0,0.0,0.0,0.0,0.0,0.0,0.0,0.0,0.0,0.0,0.0,0.0,0.0,0.0,0.0,0.0,0.0,0.0,0.0,0.0,0.0,0.0,0.0,0.0,0.0,0.0,0.0,0.0,0.0,0.0,0.0,0.0,0.0,0.0,0.0,0.0,0.0,0.0,0.0,0.0,0.0,0.0,0.0,0.0,0.0,0.0,0.0,0.0,0.0,0.0,0.0,0.0,0.0,0.0,0.0,0.0,0.0,0.0,0.0,0.0,0.0,0.0,0.0,-1.4785,-1.4705,-1.4573,-1.4374,-1.4164,-1.398,-1.4525,0.0,0.0,0.0,0.0,0.0,0.0,0.0,0.0,0.0,0.0,0.0,0.0,0.0,0.0,0.0,0.0,0.0,0.0,0.0,0.0,0.0,0.0,0.0,0.0,0.0,0.0,0.0,0.0,0.0,0.0,0.0,0.0,0.0,0.0,0.0,0.0,0.0,0.0,0.0,0.0,0.0,0.0,0.0,0.0,0.0,0.0,0.0,0.0,0.0,0.0,0.0,0.0,0.0,0.0,0.0,0.0,0.0,0.0,0.0,0.0,0.0,0.0,0.0,0.0,0.0,0.0,0.0,0.0,0.0,0.0,0.0,0.0,0.0,0.0,0.0,0.0,0.0,0.0,0.0,0.0,0.0,0.0,0.0,0.0,0.0,0.0,0.0,0.0,0.0,0.0,0.0,0.0,0.0,0.0,0.0,0.0,0.0,0.0,0.0,0.0,0.0,0.0,0.0,0.0,0.0,0.0,0.0,-1.4727,-1.4666,-1.4581,-1.4433,-1.4283,-1.4101,-1.3846,-1.4415,0.0,0.0,0.0,0.0,0.0,0.0,0.0,0.0,0.0,0.0,0.0,0.0,0.0,0.0,0.0,0.0,0.0,0.0,0.0,0.0,0.0,0.0,0.0,0.0,0.0,0.0,0.0,0.0,0.0,0.0,0.0,0.0,0.0,0.0,0.0,0.0,0.0,0.0,0.0,0.0,0.0,0.0,0.0,0.0,0.0,0.0,0.0,0.0,0.0,0.0,0.0,0.0,0.0,0.0,0.0,0.0,0.0,0.0,0.0,0.0,0.0,0.0,0.0,0.0,0.0,0.0,0.0,0.0,0.0,0.0,0.0,0.0,0.0,0.0,0.0,0.0,0.0,0.0,0.0,0.0,0.0,0.0,0.0,0.0,0.0,0.0,0.0,0.0,0.0,0.0,0.0,0.0,0.0,0.0,0.0,0.0,0.0,0.0,0.0,0.0,0.0,0.0,0.0,0.0,0.0,0.0,-1.471,-1.4603,-1.4571,-1.4487,-1.4332,-1.4263,-1.4046,-1.3773,-1.4204,0.0,0.0,0.0,0.0,0.0,0.0,0.0,0.0,0.0,0.0,0.0,0.0,0.0,0.0,0.0,0.0,0.0,0.0,0.0,0.0,0.0,0.0,0.0,0.0,0.0,0.0,0.0,0.0,0.0,0.0,0.0,0.0,0.0,0.0,0.0,0.0,0.0,0.0,0.0,0.0,0.0,0.0,0.0,0.0,0.0,0.0,0.0,0.0,0.0,0.0,0.0,0.0,0.0,0.0,0.0,0.0,0.0,0.0,0.0,0.0,0.0,0.0,0.0,0.0,0.0,0.0,0.0,0.0,0.0,0.0,0.0,0.0,0.0,0.0,0.0,0.0,0.0,0.0,0.0,0.0,0.0,0.0,0.0,0.0,0.0,0.0,0.0,0.0,0.0,0.0,0.0,0.0,0.0,0.0,0.0,0.0,0.0,0.0,0.0,0.0,0.0,0.0,0.0,0.0,0.0,0.0,-1.4614,-1.4509,-1.4498,-1.4434,-1.4306,-1.4249,-1.4005,-1.3639,0.0,0.0,0.0,0.0,0.0,0.0,0.0,0.0,0.0,0.0,0.0,0.0,0.0,0.0,0.0,0.0,0.0,0.0,0.0,0.0,0.0,0.0,0.0,0.0,0.0,0.0,0.0,0.0,0.0,0.0,0.0,0.0,0.0,0.0,0.0,0.0,0.0,0.0,0.0,0.0,0.0,0.0,0.0,0.0,0.0,0.0,0.0,0.0,0.0,0.0,0.0,0.0,0.0,0.0,0.0,0.0,0.0,0.0,0.0,0.0,0.0,0.0,0.0,0.0,0.0,0.0,0.0,0.0,0.0,0.0,0.0,0.0,0.0,0.0,0.0,0.0,0.0,0.0,0.0,0.0,0.0,0.0,0.0,0.0,0.0,0.0,0.0,0.0,0.0,0.0,0.0,0.0,0.0,0.0,0.0,0.0,0.0,0.0,0.0,0.0,0.0,0.0,0.0,0.0,0.0,0.0,0.0,-1.4515,-1.4499,-1.4493,-1.4453,-1.4306,-1.4242,-1.3942,-1.3404,0.0,0.0,0.0,0.0,0.0,0.0,0.0,0.0,0.0,0.0,0.0,0.0,0.0,0.0,0.0,0.0,0.0,0.0,0.0,0.0,0.0,0.0,0.0,0.0,0.0,0.0,0.0,0.0,0.0,0.0,0.0,0.0,0.0,0.0,0.0,0.0,0.0,0.0,0.0,0.0,0.0,0.0,0.0,0.0,0.0,0.0,0.0,0.0,0.0,0.0,0.0,0.0,0.0,0.0,0.0,0.0,0.0,0.0,0.0,0.0,0.0,0.0,0.0,0.0,0.0,0.0,0.0,0.0,0.0,0.0,0.0,0.0,0.0,0.0,0.0,0.0,0.0,0.0,0.0,0.0,0.0,0.0,0.0,0.0,0.0,0.0,0.0,0.0,0.0,0.0,0.0,0.0,0.0,0.0,0.0,0.0,0.0,0.0,0.0,0.0,0.0,0.0,0.0,0.0,0.0,0.0,-1.4516,-1.4493,-1.4494,-1.4488,-1.4648,-1.495,-1.4617,-1.426,-1.3893,0.0,0.0,0.0,0.0,0.0,0.0,0.0,0.0,0.0,0.0,0.0,0.0,0.0,0.0,0.0,0.0,0.0,0.0,0.0,0.0,0.0,0.0,0.0,0.0,0.0,0.0,0.0,0.0,0.0,0.0,0.0,0.0,0.0,0.0,0.0,0.0,0.0,0.0,0.0,0.0,0.0,0.0,0.0,0.0,0.0,0.0,0.0,0.0,0.0,0.0,0.0,0.0,0.0,0.0,0.0,0.0,0.0,0.0,0.0,0.0,0.0,0.0,0.0,0.0,0.0,0.0,0.0,0.0,0.0,0.0,0.0,0.0,0.0,0.0,0.0,0.0,0.0,0.0,0.0,0.0,0.0,0.0,0.0,0.0,0.0,0.0,0.0,0.0,0.0,0.0,0.0,0.0,0.0,0.0,0.0,0.0,0.0,0.0,0.0,0.0,0.0,0.0,0.0,0.0,0.0,-1.4453,-1.4489,-1.4465,-1.4484,-1.4672,-1.4953,-1.5285,-1.4845,-1.4389,-1.3964,0.0,0.0,0.0,0.0,0.0,0.0,0.0,0.0,0.0,0.0,0.0,0.0,0.0,0.0,0.0,0.0,0.0,0.0,0.0,0.0,0.0,0.0,0.0,0.0,0.0,0.0,0.0,0.0,0.0,0.0,0.0,0.0,0.0,0.0,0.0,0.0,0.0,0.0,0.0,0.0,0.0,0.0,0.0,0.0,0.0,0.0,0.0,0.0,0.0,0.0,0.0,0.0,0.0,0.0,0.0,0.0,0.0,0.0,0.0,0.0,0.0,0.0,0.0,0.0,0.0,0.0,0.0,0.0,0.0,0.0,0.0,0.0,0.0,0.0,0.0,0.0,0.0,0.0,0.0,0.0,0.0,0.0,0.0,0.0,0.0,0.0,0.0,0.0,0.0,0.0,0.0,0.0,0.0,0.0,0.0,0.0,0.0,0.0,0.0,0.0,0.0,0.0,0.0,0.0,0.0,0.0,-1.4411,-1.4411,-1.4411,-1.5091,-1.5347,-1.5145,-1.4727,-1.4097,-1.3207,0.0,0.0,0.0,0.0,0.0,0.0,0.0,0.0,0.0,0.0,0.0,0.0,0.0,0.0,0.0,0.0,0.0,0.0,0.0,0.0,0.0,0.0,0.0,0.0,0.0,0.0,0.0,0.0,0.0,0.0,0.0,0.0,0.0,0.0,0.0,0.0,0.0,0.0,0.0,0.0,0.0,0.0,0.0,0.0,0.0,0.0,0.0,0.0,0.0,0.0,0.0,0.0,0.0,0.0,0.0,0.0,0.0,0.0,0.0,0.0,0.0,0.0,0.0,0.0,0.0,0.0,0.0,0.0,0.0,0.0,0.0,0.0,0.0,0.0,0.0,0.0,0.0,0.0,0.0,0.0,0.0,0.0,0.0,0.0,0.0,0.0,0.0,0.0,0.0,0.0,0.0,0.0,0.0,0.0,0.0,0.0,0.0,0.0,0.0,0.0,0.0,0.0,0.0,0.0,0.0,0.0,-1.3497,-1.3485,-1.3587,-1.5055,-1.5812,-1.5679,-1.5341,-1.4687,-1.3781,0.0,0.0,0.0,0.0,0.0,0.0,0.0,0.0,0.0,0.0,0.0,0.0,0.0,0.0,0.0,0.0,0.0,0.0,0.0,0.0,0.0,0.0,0.0,0.0,0.0,0.0,0.0,0.0,0.0,0.0,0.0,0.0,0.0,0.0,0.0,0.0,0.0,0.0,0.0,0.0,0.0,0.0,0.0,0.0,0.0,0.0,0.0,0.0,0.0,0.0,0.0,0.0,0.0,0.0,0.0,0.0,0.0,0.0,0.0,0.0,0.0,0.0,0.0,0.0,0.0,0.0,0.0,0.0,0.0,0.0,0.0,0.0,0.0,0.0,0.0,0.0,0.0,0.0,0.0,0.0,0.0,0.0,0.0,0.0,0.0,0.0,0.0,0.0,0.0,0.0,0.0,0.0,0.0,0.0,0.0,0.0,0.0,0.0,0.0,0.0,0.0,0.0,0.0,0.0,0.0,0.0,-1.2919,-1.3338,-1.4074,-1.5613,-1.6393,-1.6274,-1.5748,-1.5028,0.0,0.0,0.0,0.0,0.0,0.0,0.0,0.0,0.0,0.0,0.0,0.0,0.0,0.0,0.0,0.0,0.0,0.0,0.0,0.0,0.0,0.0,0.0,0.0,0.0,0.0,0.0,0.0,0.0,0.0,0.0,0.0,0.0,0.0,0.0,0.0,0.0,0.0,0.0,0.0,0.0,0.0,0.0,0.0,0.0,0.0,0.0,0.0,0.0,0.0,0.0,0.0,0.0,0.0,0.0,0.0,0.0,0.0,0.0,0.0,0.0,0.0,0.0,0.0,0.0,0.0,0.0,0.0,0.0,0.0,0.0,0.0,0.0,0.0,0.0,0.0,0.0,0.0,0.0,0.0,0.0,0.0,0.0,0.0,0.0,0.0,0.0,0.0,0.0,0.0,0.0,0.0,0.0,0.0,0.0,0.0,0.0,0.0,0.0,0.0,0.0,0.0,0.0,0.0,0.0,0.0,0.0,-1.2908,-1.4051,-1.6199,-1.6806,-1.7045,-1.688,-1.5988,-1.4971,0.0,0.0,0.0,0.0,0.0,0.0,0.0,0.0,0.0,0.0,0.0,0.0,0.0,0.0,0.0,0.0,0.0,0.0,0.0,0.0,0.0,0.0,0.0,0.0,0.0,0.0,0.0,0.0,0.0,0.0,0.0,0.0,0.0,0.0,0.0,0.0,0.0,0.0,0.0,0.0,0.0,0.0,0.0,0.0,0.0,0.0,0.0,0.0,0.0,0.0,0.0,0.0,0.0,0.0,0.0,0.0,0.0,0.0,0.0,0.0,0.0,0.0,0.0,0.0,0.0,0.0,0.0,0.0,0.0,0.0,0.0,0.0,0.0,0.0,0.0,0.0,0.0,0.0,0.0,0.0,0.0,0.0,0.0,0.0,0.0,0.0,0.0,0.0,0.0,0.0,0.0,0.0,0.0,0.0,0.0,0.0,0.0,0.0,0.0,0.0,0.0,0.0,0.0,0.0,0.0,0.0,0.0,-1.4682,-1.5902,-1.7011,-1.7625,-1.7838,-1.7665,-1.7175,-1.5977,-1.4019,0.0,0.0,0.0,0.0,0.0,0.0,0.0,0.0,0.0,0.0,0.0,0.0,0.0,0.0,0.0,0.0,0.0,0.0,0.0,0.0,0.0,0.0,0.0,0.0,0.0,0.0,0.0,0.0,0.0,0.0,0.0,0.0,0.0,0.0,0.0,0.0,0.0,0.0,0.0,0.0,0.0,0.0,0.0,0.0,0.0,0.0,0.0,0.0,0.0,0.0,0.0,0.0,0.0,0.0,0.0,0.0,0.0,0.0,0.0,0.0,0.0,0.0,0.0,0.0,0.0,0.0,0.0,0.0,0.0,0.0,0.0,0.0,0.0,0.0,0.0,0.0,0.0,0.0,0.0,0.0,0.0,0.0,0.0,0.0,0.0,0.0,0.0,0.0,0.0,0.0,0.0,0.0,0.0,0.0,0.0,0.0,0.0,0.0,0.0,0.0,0.0,0.0,0.0,0.0,0.0,0.0,-1.6273,-1.8084,-1.9605,-1.9679,-1.9551,-1.9275,-1.8464,-1.7095,-1.5096,0.0,0.0,0.0,0.0,0.0,0.0,0.0,0.0,0.0,0.0,0.0,0.0,0.0,0.0,0.0,0.0,0.0,0.0,0.0,0.0,0.0,0.0,0.0,0.0,0.0,0.0,0.0,0.0,0.0,0.0,0.0,0.0,0.0,0.0,0.0,0.0,0.0,0.0,0.0,0.0,0.0,0.0,0.0,0.0,0.0,0.0,0.0,0.0,0.0,0.0,0.0,0.0,0.0,0.0,0.0,0.0,0.0,0.0,0.0,0.0,0.0,0.0,0.0,0.0,0.0,0.0,0.0,0.0,0.0,0.0,0.0,0.0,0.0,0.0,0.0,0.0,0.0,0.0,0.0,0.0,0.0,0.0,0.0,0.0,0.0,0.0,0.0,0.0,0.0,0.0,0.0,0.0,0.0,0.0,0.0,0.0,0.0,0.0,0.0,0.0,0.0,0.0,0.0,0.0,0.0,0.0,0.0,-2.059,-2.3604,-2.2846,-2.2181,-2.1597,-1.9963,-1.839,-1.6978,0.0,0.0,0.0,0.0,0.0,0.0,0.0,0.0,0.0,0.0,0.0,0.0,0.0,0.0,0.0,0.0,0.0,0.0,0.0,0.0,0.0,0.0,0.0,0.0,0.0,0.0,0.0,0.0,0.0,0.0,0.0,0.0,0.0,0.0,0.0,0.0,0.0,0.0,0.0,0.0,0.0,0.0,0.0,0.0,0.0,0.0,0.0,0.0,0.0,0.0,0.0,0.0,0.0,0.0,0.0,0.0,0.0,0.0,0.0,0.0,0.0,0.0,0.0,0.0,0.0,0.0,0.0,0.0,0.0,0.0,0.0,0.0,0.0,0.0,0.0,0.0,0.0,0.0,0.0,0.0,0.0,0.0,0.0,0.0,0.0,0.0,0.0,0.0,0.0,0.0,0.0,0.0,0.0,0.0,0.0,0.0,0.0,0.0,0.0,0.0,0.0,0.0,0.0,0.0,0.0,0.0,-1.9896,-2.2797,-2.5267,-2.6731,-2.6383,-2.4126,-2.2742,-2.0714,-1.7895,0.0,0.0,0.0,0.0,0.0,0.0,0.0,0.0,0.0,0.0,0.0,0.0,0.0,0.0,0.0,0.0,0.0,0.0,0.0,0.0,0.0,0.0,0.0,0.0,0.0,0.0,0.0,0.0,0.0,0.0,0.0,0.0,0.0,0.0,0.0,0.0,0.0,0.0,0.0,0.0,0.0,0.0,0.0,0.0,0.0,0.0,0.0,0.0,0.0,0.0,0.0,0.0,0.0,0.0,0.0,0.0,0.0,0.0,0.0,0.0,0.0,0.0,0.0,0.0,0.0,0.0,0.0,0.0,0.0,0.0,0.0,0.0,0.0,0.0,0.0,0.0,0.0,0.0,0.0,0.0,0.0,0.0,0.0,0.0,0.0,0.0,0.0,0.0,0.0,0.0,0.0,0.0,0.0,0.0,0.0,0.0,0.0,0.0,0.0,0.0,0.0,0.0,0.0,0.0,0.0,0.0,-2.1389,-2.4619,-2.7843,-2.9837,-2.9865,-2.783,-2.5395,-2.2781,-1.9905,0.0,0.0,0.0,0.0,0.0,0.0,0.0,0.0,0.0,0.0,0.0,0.0,0.0,0.0,0.0,0.0,0.0,0.0,0.0,0.0,0.0,0.0,0.0,0.0,0.0,0.0,0.0,0.0,0.0,0.0,0.0,0.0,0.0,0.0,0.0,0.0,0.0,0.0,0.0,0.0,0.0,0.0,0.0,0.0,0.0,0.0,0.0,0.0,-0.979,0.0,0.0,0.0,0.0,0.0,0.0,0.0,0.0,0.0,0.0,0.0,0.0,0.0,0.0,0.0,0.0,0.0,0.0,0.0,0.0,0.0,0.0,0.0,0.0,0.0,0.0,0.0,0.0,0.0,0.0,0.0,0.0,0.0,0.0,0.0,0.0,0.0,0.0,0.0,0.0,0.0,0.0,0.0,0.0,0.0,0.0,0.0,0.0,0.0,0.0,0.0,0.0,0.0,0.0,0.0,-1.5714,-1.9458,-2.2535,-2.6133,-3.0356,-3.2056,-3.2561,-3.1743,-2.7861,-2.4647,-2.2358,0.0,0.0,0.0,0.0,0.0,0.0,0.0,0.0,0.0,0.0,0.0,0.0,0.0,0.0,0.0,0.0,0.0,0.0,0.0,0.0,0.0,0.0,0.0,0.0,0.0,0.0,0.0,0.0,0.0,0.0,0.0,0.0,0.0,0.0,0.0,0.0,0.0,0.0,0.0,0.0,0.0,0.0,0.0,0.0,0.0,0.0,0.0,-0.9413,-0.9691,0.0,0.0,0.0,0.0,0.0,0.0,0.0,0.0,0.0,0.0,0.0,0.0,0.0,0.0,0.0,0.0,0.0,0.0,0.0,0.0,0.0,0.0,0.0,0.0,0.0,0.0,0.0,-0.8919,0.0,-1.0051,0.0,0.0,0.0,0.0,0.0,0.0,0.0,0.0,0.0,0.0,0.0,0.0,0.0,0.0,0.0,0.0,0.0,0.0,0.0,0.0,0.0,0.0,0.0,0.0,-1.3522,-1.6191,-1.9573,-2.3909,-2.753,-3.0196,-3.2392,-3.3459,-3.3319,-2.9805,-2.6354,-2.3095,0.0,0.0,0.0,0.0,0.0,0.0,0.0,0.0,0.0,0.0,0.0,0.0,0.0,0.0,0.0,0.0,0.0,0.0,0.0,0.0,0.0,0.0,0.0,0.0,0.0,0.0,0.0,0.0,0.0,0.0,0.0,0.0,0.0,0.0,0.0,0.0,0.0,0.0,0.0,0.0,0.0,0.0,0.0,0.0,0.0,0.0,0.0,-0.9258,0.0,0.0,0.0,0.0,0.0,0.0,0.0,0.0,0.0,0.0,0.0,0.0,0.0,0.0,0.0,0.0,0.0,0.0,0.0,0.0,0.0,0.0,0.0,0.0,0.0,0.0,0.0,0.0,-0.8919,-0.9309,-1.0041,0.0,0.0,0.0,0.0,0.0,0.0,0.0,0.0,0.0,0.0,0.0,0.0,0.0,0.0,0.0,0.0,0.0,0.0,0.0,0.0,0.0,0.0,0.0,-1.1773,-1.3772,-1.6882,-2.0999,-2.516,-2.8684,-3.1547,-3.3493,-3.4347,-3.3976,-3.1449,-2.8381,-2.4871,0.0,0.0,0.0,0.0,0.0,0.0,0.0,0.0,0.0,0.0,0.0,0.0,0.0,0.0,0.0,0.0,0.0,0.0,0.0,0.0,0.0,0.0,0.0,0.0,0.0,0.0,0.0,0.0,0.0,0.0,0.0,0.0,0.0,0.0,0.0,0.0,0.0,-1.0464,-1.1384,0.0,0.0,0.0,0.0,0.0,0.0,0.0,0.0,-0.9491,-0.988,0.0,0.0,0.0,0.0,0.0,0.0,0.0,0.0,0.0,0.0,0.0,0.0,0.0,0.0,0.0,0.0,0.0,0.0,0.0,0.0,0.0,0.0,0.0,0.0,0.0,0.0,0.0,-0.8919,-0.9258,-0.9872,0.0,0.0,0.0,0.0,0.0,0.0,0.0,0.0,0.0,0.0,0.0,0.0,0.0,0.0,0.0,0.0,0.0,0.0,0.0,0.0,0.0,0.0,0.0,-1.2277,-1.4049,-1.7514,-2.257,-2.606,-2.9562,-3.3144,-3.4757,-3.5246,-3.4671,-3.2954,-3.0377,-2.6863,0.0,0.0,0.0,0.0,0.0,0.0,0.0,0.0,0.0,0.0,0.0,0.0,0.0,0.0,0.0,0.0,0.0,0.0,0.0,0.0,0.0,0.0,0.0,0.0,0.0,0.0,0.0,0.0,0.0,0.0,0.0,0.0,0.0,0.0,0.0,0.0,0.0,-1.0982,-1.1742,-1.2629,-1.3255,0.0,0.0,0.0,0.0,0.0,0.0,0.0,-1.0366,-1.0444,-1.0456,0.0,0.0,0.0,0.0,0.0,0.0,0.0,0.0,0.0,0.0,0.0,0.0,0.0,0.0,0.0,0.0,0.0,0.0,0.0,0.0,0.0,0.0,0.0,0.0,0.0,-0.8919,-0.8942,-0.914,0.0,0.0,0.0,0.0,0.0,0.0,0.0,0.0,0.0,0.0,0.0,0.0,0.0,0.0,0.0,0.0,0.0,0.0,0.0,0.0,0.0,0.0,0.0,0.0,-1.446,-1.7856,-2.2497,-2.6237,-2.9937,-3.3611,-3.5191,-3.6083,-3.6248,-3.4566,-3.1817,-2.802,-2.4007,0.0,0.0,0.0,0.0,0.0,0.0,0.0,0.0,0.0,0.0,0.0,0.0,0.0,0.0,0.0,0.0,0.0,0.0,0.0,0.0,0.0,0.0,0.0,0.0,0.0,0.0,0.0,0.0,0.0,0.0,0.0,0.0,0.0,0.0,0.0,0.0,-1.1283,-1.3109,-1.427,-1.473,-1.406,0.0,0.0,0.0,0.0,0.0,-1.1725,-1.1906,-1.1898,-1.1595,-1.108,0.0,0.0,0.0,0.0,0.0,0.0,0.0,0.0,0.0,0.0,0.0,0.0,0.0,0.0,0.0,0.0,0.0,0.0,0.0,0.0,0.0,0.0,0.0,0.0,-0.8919,-0.8919,-0.8965,-0.9675,-1.0007,0.0,0.0,0.0,0.0,-0.9613,0.0,0.0,0.0,0.0,0.0,0.0,0.0,0.0,0.0,0.0,0.0,0.0,0.0,0.0,0.0,0.0,0.0,-1.5496,-1.9273,-2.4125,-2.798,-3.1502,-3.4738,-3.6307,-3.6962,-3.6595,-3.4645,-3.19,-2.8401,0.0,0.0,0.0,0.0,0.0,0.0,0.0,0.0,0.0,0.0,0.0,0.0,0.0,0.0,0.0,0.0,0.0,0.0,0.0,0.0,0.0,0.0,0.0,0.0,0.0,0.0,0.0,0.0,0.0,0.0,0.0,0.0,0.0,0.0,0.0,0.0,0.0,0.0,-1.3713,-1.5022,-1.5675,-1.5146,-1.4963,-1.4588,-1.3698,-1.3405,-1.3481,-1.3951,-1.3619,-1.3361,-1.3572,0.0,0.0,0.0,0.0,0.0,0.0,0.0,0.0,0.0,0.0,0.0,0.0,0.0,0.0,0.0,0.0,0.0,0.0,0.0,0.0,0.0,0.0,0.0,0.0,0.0,0.0,-0.8919,-0.8953,-0.9523,-0.9764,-0.9787,0.0,0.0,0.0,-0.919,-0.962,0.0,0.0,0.0,0.0,0.0,0.0,0.0,0.0,0.0,0.0,0.0,0.0,0.0,0.0,0.0,0.0,-1.6377,-2.0471,-2.5684,-2.9497,-3.2934,-3.5892,-3.7437,-3.7773,-3.6858,-3.4723,-3.1976,-2.8562,0.0,0.0,0.0,0.0,0.0,0.0,0.0,0.0,0.0,0.0,0.0,0.0,0.0,0.0,0.0,0.0,0.0,0.0,0.0,0.0,0.0,0.0,0.0,0.0,0.0,0.0,0.0,0.0,0.0,0.0,0.0,0.0,0.0,0.0,0.0,0.0,0.0,0.0,0.0,-1.5588,-1.6573,-1.6496,-1.6525,-1.6357,-1.585,-1.5531,-1.5638,-1.6369,-1.5629,-1.5077,0.0,0.0,0.0,0.0,0.0,0.0,0.0,0.0,0.0,0.0,0.0,0.0,0.0,0.0,0.0,0.0,0.0,0.0,0.0,0.0,0.0,0.0,-0.8936,-0.8919,0.0,0.0,-0.8919,-0.8919,-0.8919,-0.901,-0.9032,-0.9044,-0.9015,-0.9044,0.0,-0.8959,-0.9349,-1.0142,0.0,0.0,0.0,0.0,0.0,0.0,0.0,0.0,0.0,0.0,0.0,0.0,0.0,0.0,0.0,0.0,-2.0395,-2.5523,-2.9333,-3.3008,-3.6524,-3.8115,-3.8514,-3.7746,-3.6099,-3.3191,-2.8893,0.0,0.0,0.0,0.0,0.0,0.0,0.0,0.0,0.0,0.0,0.0,0.0,0.0,0.0,0.0,0.0,0.0,0.0,0.0,0.0,0.0,0.0,0.0,0.0,0.0,-0.8394,0.0,0.0,0.0,0.0,0.0,0.0,0.0,0.0,0.0,0.0,0.0,0.0,0.0,0.0,-1.7739,-1.8084,-1.853,-1.8681,-1.8327,-1.829,-1.8407,-1.8749,-1.8311,-1.7562,0.0,0.0,0.0,0.0,0.0,0.0,0.0,0.0,0.0,0.0,0.0,0.0,0.0,0.0,0.0,0.0,0.0,0.0,0.0,0.0,0.0,0.0,-0.9489,-0.9066,-0.8919,-0.8919,-0.8919,-0.8919,-0.8919,-0.8919,-0.8919,-0.8919,-0.8919,-0.8908,-0.8908,-0.8908,-0.929,-0.9977,0.0,0.0,0.0,0.0,0.0,0.0,0.0,0.0,0.0,0.0,0.0,0.0,-1.0295,-1.1836,-1.4107,-1.7839,-2.2073,-2.6793,-3.0954,-3.4489,-3.733,-3.8894,-3.9056,-3.7922,-3.5966,-3.3043,0.0,0.0,0.0,0.0,0.0,0.0,0.0,0.0,0.0,0.0,0.0,0.0,0.0,0.0,0.0,0.0,0.0,0.0,0.0,0.0,0.0,0.0,0.0,0.0,0.0,-0.8739,-0.8972,-0.9111,0.0,0.0,0.0,0.0,0.0,0.0,0.0,0.0,0.0,0.0,0.0,0.0,0.0,-1.9367,-2.0261,-2.1212,-2.1648,-2.1225,-2.1228,-2.1389,-2.1609,-2.0794,-1.9875,0.0,0.0,0.0,0.0,0.0,0.0,0.0,0.0,0.0,0.0,0.0,0.0,0.0,0.0,0.0,0.0,0.0,0.0,-1.2641,-1.2263,-1.0956,-1.0244,-0.9956,-0.9207,-0.8919,-0.8919,-0.8919,-0.8919,-0.8919,-0.8919,-0.8919,-0.8919,-0.8908,-0.8886,-0.8886,-0.9053,-0.938,-0.9905,-1.0733,0.0,0.0,0.0,0.0,0.0,0.0,0.0,0.0,0.0,0.0,-0.9202,-1.0452,-1.2271,-1.4706,-1.8944,-2.346,-2.8078,-3.2324,-3.5774,-3.8355,-3.9512,-3.9563,-3.8464,-3.6265,-3.3343,0.0,0.0,0.0,0.0,0.0,0.0,0.0,0.0,0.0,0.0,0.0,0.0,0.0,0.0,0.0,0.0,0.0,0.0,0.0,0.0,0.0,0.0,0.0,-0.8753,-0.8847,-0.9235,-0.9666,-1.0024,-1.0395,0.0,-1.0798,0.0,0.0,0.0,0.0,0.0,0.0,0.0,0.0,0.0,0.0,-2.0895,-2.2287,-2.3597,-2.4334,-2.4145,-2.4202,-2.4258,-2.4268,-2.3308,-2.222,0.0,0.0,0.0,0.0,0.0,0.0,0.0,0.0,0.0,0.0,0.0,0.0,0.0,0.0,0.0,0.0,0.0,0.0,-1.3154,-1.2348,-1.1565,-1.0746,-1.0018,-0.9196,-0.8931,-0.8936,-0.8919,-0.8919,-0.8914,-0.8914,-0.8919,-0.8914,-0.8903,-0.8863,-0.8895,-0.9437,-0.9719,-0.9819,-1.1123,0.0,0.0,0.0,0.0,0.0,0.0,0.0,0.0,0.0,0.0,-0.9049,-1.0382,-1.2263,-1.4571,-1.8961,-2.3746,-2.884,-3.2594,-3.6265,-3.9775,-4.0037,-4.0079,-3.991,-3.7804,-3.4883,0.0,0.0,0.0,0.0,0.0,0.0,0.0,0.0,0.0,0.0,0.0,0.0,0.0,0.0,0.0,0.0,0.0,0.0,0.0,0.0,0.0,0.0,0.0,0.0,-0.9633,-0.9681,-1.0335,-1.2104,-1.2151,-1.2303,-1.2924,0.0,0.0,0.0,0.0,0.0,0.0,0.0,0.0,0.0,0.0,-2.2061,-2.3895,-2.5245,-2.6288,-2.6994,-2.7109,-2.6951,-2.6458,-2.577,-2.4702,-2.2868,-2.138,-1.9582,0.0,0.0,0.0,0.0,0.0,0.0,0.0,0.0,0.0,0.0,0.0,0.0,0.0,0.0,0.0,-1.3834,-1.3006,-1.225,-1.1739,-1.1326,-1.0592,-1.0248,-1.0191,-0.9719,-0.9528,-0.9467,-0.9041,-0.8829,-0.8846,-0.8829,-0.9026,-0.9376,-0.9576,-1.0057,-1.0862,-1.2577,0.0,0.0,0.0,0.0,0.0,0.0,0.0,0.0,0.0,0.0,-0.9061,-1.0358,-1.2474,-1.5291,-1.9638,-2.4458,-2.9617,-3.3795,-3.7303,-3.9986,-4.0967,-4.1018,-4.0113,-3.8372,-3.5707,-3.1989,0.0,0.0,0.0,0.0,0.0,0.0,0.0,0.0,0.0,0.0,0.0,0.0,0.0,0.0,0.0,0.0,0.0,0.0,0.0,0.0,0.0,0.0,0.0,0.0,-1.1025,-1.2005,-1.2645,-1.3278,-1.3385,-1.2668,-1.126,0.0,0.0,0.0,0.0,0.0,0.0,0.0,-1.9071,0.0,-2.4119,-2.6072,-2.7448,-2.8412,-2.8692,-2.8764,-2.854,-2.7919,-2.726,-2.6138,-2.4208,-2.2787,-2.1036,-1.8386,0.0,0.0,0.0,0.0,0.0,0.0,0.0,0.0,0.0,0.0,0.0,0.0,0.0,0.0,-1.4422,-1.3608,-1.2636,-1.2326,-1.2396,-1.1669,-1.1453,-1.1548,-1.0799,-1.0447,-1.038,-0.9686,-0.9263,-0.9106,-0.9254,-0.9442,-0.9684,-1.0174,-1.1273,-1.2889,-1.4506,-1.5816,0.0,0.0,0.0,0.0,0.0,0.0,0.0,0.0,0.0,-0.9704,-1.0832,-1.2965,-1.6011,-2.0399,-2.5203,-3.0395,-3.4844,-3.8302,-4.0722,-4.1745,-4.1914,-4.1059,-3.9445,-3.7009,-3.3732,0.0,0.0,0.0,0.0,-1.1647,0.0,0.0,0.0,0.0,0.0,0.0,0.0,0.0,0.0,0.0,0.0,0.0,0.0,0.0,0.0,0.0,0.0,0.0,0.0,0.0,-1.3299,-1.3805,-1.4288,-1.405,-1.2663,-1.1731,-1.1166,-1.1163,0.0,0.0,0.0,0.0,0.0,0.0,-2.3648,-2.5929,-2.7899,-2.9157,-2.9939,-3.0133,-2.9983,-2.9639,-2.8981,-2.8323,-2.7275,-2.5486,-2.4298,-2.2838,-2.0572,-1.9645,-1.8897,-1.7986,-1.5574,-1.3573,-1.3297,0.0,0.0,0.0,0.0,0.0,0.0,0.0,0.0,-1.4885,-1.4093,-1.2681,-1.2506,-1.3,-1.2338,-1.245,-1.2976,-1.2176,-1.1864,-1.1642,-1.0994,-1.0351,-0.9821,-1.034,-1.0246,-0.9855,-1.1414,-1.3613,-1.5892,-1.688,-1.8112,-1.9421,-1.9467,-1.9534,-1.9857,-1.7229,-1.4982,-1.3412,-1.2603,-1.1891,-1.1248,-1.1898,-1.3777,-1.679,-2.1143,-2.5947,-3.1106,-3.5605,-3.9292,-4.2117,-4.2286,-4.2642,-4.3189,-4.1187,-3.8979,-3.6592,0.0,0.0,0.0,0.0,-1.3489,0.0,0.0,0.0,0.0,0.0,0.0,0.0,0.0,0.0,0.0,0.0,0.0,0.0,0.0,0.0,0.0,0.0,0.0,0.0,0.0,-1.4031,-1.5978,-1.5266,-1.4227,-1.327,-1.2046,-1.1762,0.0,0.0,0.0,0.0,0.0,-2.0692,-2.3227,-2.5285,-2.729,-2.9277,-3.0088,-3.0717,-3.1331,-3.0883,-3.0268,-2.9669,-2.9011,-2.8128,-2.6782,-2.6004,0.0,0.0,0.0,0.0,0.0,0.0,0.0,0.0,0.0,0.0,0.0,0.0,0.0,0.0,0.0,0.0,-1.6913,-1.5381,-1.4874,-1.4798,-1.5011,-1.5151,-1.56,-1.6104,-1.5241,-1.4892,-1.478,-1.3162,-1.2341,-1.2193,-1.1873,-1.1848,-1.2244,-1.4338,-1.6255,-1.8014,-2.0104,-2.1691,-2.2831,-2.4087,-2.4597,-2.4408,-2.3305,-2.0502,-1.6376,-1.5066,-1.4107,-1.3439,-1.365,-1.524,-1.8195,-2.2138,-2.6708,-3.187,-3.6366,-3.9817,-4.2245,-4.3311,-4.369,-4.3375,-4.1728,-3.8616,-3.3952,-2.9721,0.0,0.0,-1.8166,-1.5709,0.0,0.0,0.0,0.0,0.0,0.0,0.0,0.0,0.0,0.0,0.0,0.0,0.0,0.0,0.0,0.0,0.0,0.0,0.0,0.0,-1.632,-1.6787,-1.5498,-1.4416,-1.3918,-1.3014,-1.3134,-1.486,-1.6377,-1.739,-1.7716,-2.0246,-2.295,-2.5417,-2.7455,-2.9083,-3.0086,-3.0761,-3.1241,-3.1466,-3.1316,-3.0928,-3.0298,-3.0013,-2.943,-2.8158,-2.7739,-2.7156,-2.5824,-2.5405,-2.5443,-2.5878,-2.5031,-2.3648,-2.1645,-2.1107,-2.0904,-2.0938,-2.1039,-2.1238,-2.1426,-2.222,-2.2996,-1.919,-1.7507,-1.6979,-1.7059,-1.7523,-1.7913,-1.871,-1.9673,-1.8547,-1.8238,-1.8314,-1.6258,-1.5101,-1.4714,-1.4424,-1.4747,-1.5695,-1.7683,-1.9391,-2.0993,-2.3525,-2.538,-2.6658,-2.8167,-2.8909,-2.8937,-2.826,-2.6,-2.2351,-1.9364,-1.7422,-1.6431,-1.6431,-1.7648,-2.0111,-2.3782,-2.7995,-3.2693,-3.7163,-4.0408,-4.2411,-4.3902,-4.4416,-4.3847,-4.2144,-3.8768,-3.3609,-3.1328,-2.8197,0.0,-2.0991,0.0,0.0,0.0,0.0,0.0,0.0,0.0,0.0,0.0,0.0,0.0,0.0,0.0,0.0,0.0,0.0,0.0,0.0,0.0,0.0,-1.764,-1.8265,-1.717,-1.5999,-1.5076,-1.4575,-1.4314,-1.4903,-1.6891,-1.932,-2.0796,-2.0672,-2.2966,-2.5428,-2.7627,-2.9199,-3.0325,-3.0761,-3.1421,-3.1839,-3.1854,-3.1854,-3.169,-3.127,-3.1016,-3.0554,-2.9759,-2.9624,-2.9325,-2.8457,-2.8502,-2.8861,-2.9547,-3.0178,-2.9594,-2.6288,-2.5689,-2.5689,-2.5698,-2.5657,-2.5685,-2.5893,-2.6703,-2.7458,-2.1883,-2.035,-1.9117,-1.9239,-2.0428,-2.0582,-2.167,-2.3211,-2.2007,-2.18,-2.2106,-2.0183,-1.8536,-1.7304,-1.7926,-1.8783,-2.0008,-2.1328,-2.2954,-2.4784,-2.7043,-2.9072,-3.0787,-3.1457,-3.2385,-3.3414,-3.1838,-3.1079,-3.0799,-2.5425,-2.1806,-2.0289,-2.0149,-2.0927,-2.2584,-2.6133,-2.9809,-3.3666,-3.8084,-4.1112,-4.2663,-4.4075,-4.4786,-4.4674,-4.2468,-3.9512,-3.587,-3.3575,-3.0685,-2.6979,-2.4019,0.0,0.0,0.0,0.0,0.0,0.0,0.0,0.0,0.0,0.0,0.0,0.0,0.0,0.0,0.0,0.0,0.0,0.0,0.0,-1.8751,-2.01,-1.9844,-1.7512,-1.6897,-1.6314,-1.5536,-1.5955,-1.7103,-1.9221,-2.2035,-2.3846,-2.3856,-2.5975,-2.817,-2.9855,-3.0576,-3.1091,-3.1509,-3.2153,-3.2542,-3.2512,-3.2542,-3.2542,-3.2497,-3.1989,-3.157,-3.16,-3.163,-3.163,-3.1615,-3.2153,-3.2796,-3.3455,-3.4023,-3.359,-3.046,-2.9846,-2.9786,-2.9759,-2.9759,-2.9996,-3.0537,-3.1077,-3.175,-2.7288,-2.3687,-2.3269,-2.333,-2.381,-2.4689,-2.5673,-2.6641,-2.6568,-2.6415,-2.6137,-2.4534,-2.313,-2.1996,-2.2073,-2.253,-2.3302,-2.4605,-2.6042,-2.7545,-2.9811,-3.1861,-3.3643,-3.4832,-3.6045,-3.7187,-3.6114,-3.5639,-3.5593,-3.2026,-2.8383,-2.4831,-2.3746,-2.4222,-2.6302,-2.8963,-3.1958,-3.5197,-3.9167,-4.1707,-4.2689,-4.4075,-4.4493,-4.3813,-4.2634,-4.073,-3.8108,-3.5859,-3.3203,-3.0042,-2.7046,0.0,-2.1206,0.0,0.0,0.0,0.0,-1.0732,-0.9092,-0.8996,0.0,0.0,0.0,-1.1028,0.0,0.0,0.0,0.0,-1.612,-1.8227,-2.1569,-2.2553,-2.2191,-2.0225,-1.9225,-1.8779,-1.8873,-1.9474,-2.0916,-2.362,-2.6172,-2.8361,-2.9885,-3.0543,-3.1142,-3.1751,-3.2869,-3.35,-3.3201,-3.3292,-3.3382,-3.3231,-3.32,-3.3215,-3.3215,-3.3051,-3.3095,-3.3544,-3.4038,-3.4336,-3.4336,-3.4906,-3.54,-3.5609,-3.6148,-3.6222,-3.54,-3.4412,-3.3844,-3.3799,-3.3799,-3.3858,-3.4068,-3.4607,-3.51,-3.2745,-2.9591,-2.79,-2.7284,-2.7533,-2.8292,-2.9234,-3.0303,-3.0319,-3.025,-3.0039,-2.861,-2.7305,-2.6139,-2.5852,-2.6156,-2.7021,-2.8338,-2.952,-3.0612,-3.2927,-3.4711,-3.6112,-3.7467,-3.8735,-3.977,-3.9125,-3.8749,-3.8629,-3.632,-3.3677,-3.0702,-2.8333,-2.7977,-2.96,-3.1647,-3.4235,-3.7274,-4.0247,-4.2293,-4.3408,-4.439,-4.4419,-4.3453,-4.298,-4.1694,-3.9495,-3.7838,-3.5588,-3.2628,-2.9922,-2.7148,0.0,-2.1274,-1.8557,-1.6113,-1.4545,-1.2829,-1.095,-1.0225,0.0,0.0,-1.1688,-1.2779,-1.3549,0.0,0.0,-1.7354,-1.9773,-2.2189,-2.4258,-2.541,-2.5232,-2.3189,-2.2505,-2.2431,-2.3014,-2.3704,-2.5186,-2.7797,-3.006,-3.2167,-3.4134,-3.4781,-3.477,-3.392,-3.4448,-3.4721,-3.4238,-3.4546,-3.4805,-3.4605,-3.5073,-3.5358,-3.5183,-3.5151,-3.5287,-3.5597,-3.5968,-3.6237,-3.6282,-3.6806,-3.7315,-3.7614,-3.7958,-3.8287,-3.8542,-3.7749,-3.6851,-3.6372,-3.6267,-3.6267,-3.6252,-3.6776,-3.724,-3.7839,-3.6719,-3.2764,-3.1259,-3.1515,-3.1475,-3.2484,-3.4,-3.3472,-3.3442,-3.3681,-3.2511,-3.1311,-3.0096,-2.9435,-2.9783,-3.0984,-3.2257,-3.3171,-3.386,-3.6107,-3.7505,-3.8263,-3.9544,-4.0637,-4.1558,-4.1165,-4.0764,-4.0316,-3.8862,-3.7821,-3.7066,-3.3643,-3.2175,-3.2716,-3.4266,-3.6585,-3.9639,-4.134,-4.2963,-4.4516,-4.4833,-4.4501,-4.3521,-4.3426,-4.2455,-4.0468,-3.9529,-3.777,-3.4979,-3.2679,-3.0144,-2.7284,-2.4282,-2.1358,-1.8501,-1.6884,-1.5335,-1.3752,-1.2488,-1.1795,-1.1695,-1.3489,-1.5112,-1.5984,-1.8031,-1.9604,-2.0441,-2.4494,-2.7046,-2.6956,-2.8533,-2.8675,-2.6567,-2.6491,-2.6903,-2.7524,-2.8403,-2.973,-3.1806,-3.3754,-3.5489,-3.6896,-3.85,-3.865,-3.6396,-3.5848,-3.5508,-3.5132,-3.6088,-3.6677,-3.6458,-3.7483,-3.8132,-3.7619,-3.765,-3.7684,-3.7528,-3.7644,-3.7793,-3.7823,-3.8242,-3.8871,-3.9424,-3.9574,-3.9738,-4.0352,-3.9873,-3.9149,-3.8003,-3.7659,-3.7554,-3.7564,-3.8093,-3.8542,-3.9886,-3.9375,-3.8237,-3.6711,-3.511,-3.5429,-3.5821,-3.6292,-3.6785,-3.6757,-3.6391,-3.6227,-3.5615,-3.4653,-3.4013,-3.4,-3.4587,-3.5528,-3.5935,-3.6034,-3.7623,-3.8946,-4.0024,-4.0949,-4.2018,-4.3144,-4.2808,-4.2621,-4.253,-4.1136,-4.0324,-4.0087,-3.8684,-3.7235,-3.5847,-3.7427,-3.8931,-4.0285,-4.2565,-4.4105,-4.4858,-4.4865,-4.468,-4.4327,-4.3741,-4.3166,-4.2608,-4.0832,-3.9259,-3.7939,-3.5216,-3.2649,-3.0245,-2.73,-2.4354,-2.1441,-1.9836,-1.8087,-1.615,-1.6648,-1.635,-1.464,-1.6069,-1.7817,-1.9705,-2.138,-2.3088,-2.4966,-2.8163,-3.034,-3.0796,-3.1516,-3.1676,-3.0964,-3.0709,-3.0923,-3.1688,-3.2918,-3.4267,-3.5571,-3.7652,-3.9166,-3.9648,-4.0631,-4.1055,-4.0304,-3.9789,-3.9226,-3.86,-3.8637,-3.8733,-3.8496,-3.8616,-3.8608,-3.8499,-3.8842,-3.9159,-3.8981,-3.9753,-4.0427,-4.0427,-4.0546,-4.0726,-4.0891,-4.092,-4.0995,-4.1115,-4.101,-4.0816,-4.0442,-3.9664,-3.8895,-3.896,-3.9454,-3.9918,-4.1814,-4.1527,-4.1237,-4.0229,-3.8857,-3.8369,-3.8222,-3.8385,-3.895,-3.8936,-3.8486,-3.8367,-3.7962,-3.7402,-3.6937,-3.6714,-3.6849,-3.7567,-3.7807,-3.7819,-3.9077,-4.0218,-4.115,-4.1893,-4.2777,-4.3768,-4.3719,-4.3575,-4.3358,-4.2564,-4.2033,-4.1694,-4.1271,-4.0485,-3.9334,-3.9988,-4.0945,-4.209,-4.3881,-4.4879,-4.5052,-4.4896,-4.4737,-4.4598,-4.4164,-4.3775,-4.3409,-4.2209,-4.1059,-3.9986,-3.7753,-3.5639,-3.3766,-3.0835,-2.8028,-2.5439,-2.3833,-2.2158,-2.0374,-2.1228,-2.1498,-2.0619,-2.0382,-2.1245,-2.3444,-2.5032,-2.6962,-2.9465,-3.1799,-3.3296,-3.3633,-3.4705,-3.5188,-3.4707,-3.5013,-3.5563,-3.6319,-3.7169,-3.8091,-3.8994,-4.0311,-4.1314,-4.1714,-4.2242,-4.2673,-4.2825,-4.2587,-4.1844,-4.064,-4.0496,-4.0553,-4.0228,-4.0563,-4.0759,-4.0523,-4.0593,-4.0628,-4.0521,-4.0965,-4.1422,-4.1422,-4.1422,-4.1497,-4.1767,-4.1617,-4.1489,-4.1782,-4.1602,-4.1422,-4.1332,-4.0816,-4.0352,-4.0307,-4.0576,-4.0831,-4.3386,-4.3204,-4.2743,-4.2429,-4.2093,-4.0657,-4.0135,-4.0235,-4.0429,-4.0478,-4.0334,-3.9833,-3.9486,-3.9262,-3.9068,-3.8789,-3.8437,-3.9017,-3.9291,-3.9337,-4.0452,-4.1307,-4.1949,-4.26,-4.3232,-4.386,-4.4196,-4.4075,-4.3544,-4.3527,-4.3234,-4.2608,-4.2591,-4.2601,-4.2584,-4.2176,-4.2749,-4.4198,-4.4956,-4.5274,-4.515,-4.4913,-4.4709,-4.4598,-4.4598,-4.4265,-4.3578,-4.346,-4.2828,-4.1542,-4.0113,-3.8647,-3.7157,-3.4469,-3.1876,-2.9587,-2.8181,-2.6776,-2.5388,-2.5981,-2.6776,-2.7351,-2.5862,-2.5541,-2.7283,-2.8993,-3.1108,-3.3761,-3.5211,-3.6101,-3.6217,-3.7866,-3.8648,-3.8029,-3.8935,-3.9904,-4.0519,-4.0804,-4.1176,-4.1844,-4.2215,-4.2671,-4.3255,-4.3489,-4.377,-4.4164,-4.4192,-4.3607,-4.2256,-4.2169,-4.2297,-4.1975,-4.2846,-4.3178,-4.2845,-4.2458,-4.2141,-4.1926,-4.1866,-4.1662,-4.1698,-4.1698,-4.1833,-4.2336,-4.2073,-4.1931,-4.244,-4.2066,-4.1683,-4.1728,-4.1669,-4.1564,-4.1354,-4.1414,-4.1527,-4.4051,-4.3877,-4.3671,-4.3279,-4.2896,-4.2557,-4.2058,-4.1466,-4.166,-4.1981,-4.2345,-4.2354,-4.218,-4.1883,-4.1661,-4.1244,-4.0698,-4.079,-4.0785,-4.0748,-4.1492,-4.211,-4.2632,-4.3292,-4.3831,-4.4207,-4.444,-4.4502,-4.435,-4.435,-4.431,-4.4175,-4.4175,-4.4175,-4.4175,-4.417,-4.4419,-4.481,-4.4899,-4.4896,-4.4886,-4.4709,-4.4626,-4.4598,-4.4598,-4.4547,-4.435,-4.373,-4.3274,-4.298,-4.168,-4.028,-3.8795,-3.7166,-3.4938,-3.2199,-3.155,-3.0713,-2.9178,-3.026,-3.1362,-3.2087,-3.229,-3.209,-3.1396,-3.3766,-3.5814,-3.6941,-3.7838,-3.8853,-4.0011,-4.0356,-4.0716,-4.116,-4.1312,-4.1502,-4.1751,-4.2309,-4.2801,-4.3063,-4.3703,-4.4153,-4.4254,-4.4367,-4.4401,-4.4542,-4.4542,-4.4637,-4.4793,-4.4511,-4.4318,-4.4188,-4.4395,-4.4281,-4.3646,-4.353,-4.3288,-4.2947,-4.3059,-4.3121,-4.295,-4.2871,-4.2901,-4.312,-4.3045,-4.2955,-4.3105,-4.3006,-4.2841,-4.294,-4.2901,-4.2641,-4.1624,-4.1856,-4.2216,-4.4253,-4.4167,-4.3919,-4.3625,-4.3325,-4.3099,-4.2695,-4.2206,-4.2285,-4.2586,-4.3007,-4.319,-4.3113,-4.2834,-4.2648,-4.219,-4.1557,-4.1557,-4.1524,-4.1458,-4.1997,-4.2539,-4.3113,-4.3595,-4.3977,-4.431,-4.4497,-4.4598,-4.4598,-4.4598,-4.4598,-4.4598,-4.4598,-4.4598,-4.4615,-4.4737,-4.4858,-4.5005,-4.4886,-4.4803,-4.4793,-4.4682,-4.4598,-4.4598,-4.4654,-4.4692,-4.4692,-4.4374,-4.4198,-4.4147,-4.3242,-4.2407,-4.1655,-3.9986,-3.8122,-3.6143,-3.5283,-3.4315,-3.3172,-3.4036,-3.501,-3.5771,-3.7097,-3.7119,-3.5221,-3.7449,-3.9123,-3.9512,-4.0189,-4.0916,-4.166,-4.2013,-4.2331,-4.2719,-4.3019,-4.3271,-4.336,-4.3675,-4.3911,-4.4001,-4.4361,-4.4598,-4.4598,-4.4598,-4.4756,-4.5077,-4.5128,-4.5399,-4.6012,-4.5748,-4.5479,-4.591,-4.5809,-4.5586,-4.5319,-4.482,-4.4412,-4.3975,-4.376,-4.3606,-4.3329,-4.3305,-4.3305,-4.3305,-4.3305,-4.3305,-4.3305,-4.3305,-4.3305,-4.3305,-4.3305,-4.3125,-4.2476,-4.2611,-4.2836,-4.4367,-4.4338,-4.4035,-4.3818,-4.3582,-4.316,-4.279,-4.2476,-4.2586,-4.2836,-4.3174,-4.3416,-4.3432,-4.3265,-4.3096,-4.271,-4.211,-4.2078,-4.2078,-4.2078,-4.2444,-4.2929,-4.3522,-4.3772,-4.4035,-4.4338,-4.4542,-4.4598,-4.4598,-4.4598,-4.4598,-4.4598,-4.4598,-4.4598,-4.4598,-4.4737,-4.4858,-4.4978,-4.4886,-4.4831,-4.4831,-4.4692,-4.4626,-4.4626,-4.4737,-4.4803,-4.4803,-4.4968,-4.5032,-4.5015,-4.4646,-4.4354,-4.4191,-4.2466,-4.1024,-4.0003,-3.875,-3.7679,-3.6984,-3.7597,-3.8351,-3.9146,-4.0869,-4.1001,-3.8868,-4.0341,-4.1457,-4.1593,-4.2151,-4.254,-4.2692,-4.325,-4.3623,-4.3639,-4.4198,-4.4581,-4.4581,-4.4598,-4.4536,-4.4598,-4.4581,-4.4598,-4.4615,-4.475,-4.5021,-4.5568,-4.5788,-4.6177,-4.6735,-4.6519,-4.652,-4.734,-4.72,-4.6963,-4.6786,-4.6186,-4.5405,-4.4699,-4.4135,-4.3714,-4.3423,-4.3305,-4.3305,-4.3305,-4.3364,-4.3484,-4.3484,-4.3648,-4.3633,-4.3633,-4.3633,-4.3633,-4.3633,-4.3688,-4.3633,-4.457,-4.4542,-4.4514,-4.4212,-4.3743,-4.3383,-4.2789,-4.2045,-4.2539,-4.2974,-4.3372,-4.3835,-4.3981,-4.3952,-4.3952,-4.3713,-4.3369,-4.3155,-4.3078,-4.3078,-4.3323,-4.3625,-4.401,-4.4167,-4.4338,-4.4542,-4.4587,-4.4598,-4.4598,-4.4598,-4.4598,-4.4598,-4.4598,-4.4598,-4.4598,-4.4737,-4.4858,-4.4978,-4.4978,-4.4978,-4.4951,-4.4831,-4.4793,-4.4793,-4.4776,-4.4803,-4.4803,-4.5032,-4.5177,-4.5177,-4.5528,-4.5416,-4.4743,-4.4074,-4.3027,-4.1472,-4.1006,-4.0709,-4.0395,-4.1064,-4.1832,-4.2635,-4.3456,-4.3323,-4.2014,-4.2027,-4.2405,-4.2987,-4.3172,-4.3538,-4.4175,-4.4344,-4.435,-4.4384,-4.4513,-4.4598,-4.4598,-4.4598,-4.4598,-4.4598,-4.4598,-4.4632,-4.4716,-4.5162,-4.5602,-4.5805,-4.6397,-4.6938,-4.7547,-4.7652,-4.7862,-4.8399,-4.8413,-4.8014,-4.7455,-4.686,-4.5985,-4.4924,-4.448,-4.3972,-4.3409,-4.3305,-4.3319,-4.3319,-4.3723,-4.4107,-4.4182,-4.4661,-4.4825,-4.4855,-4.484,-4.4885,-4.487,-4.4915,-4.4796,-4.4598,-4.457,-4.4468,-4.4196,-4.3743,-4.2787,-4.2029,-4.1503,-4.1835,-4.2396,-4.3096,-4.3684,-4.3993,-4.4097,-4.4167,-4.4023,-4.3713,-4.3608,-4.3562,-4.3562,-4.3684,-4.3889,-4.4196,-4.4281,-4.4412,-4.457,-4.4598,-4.4598,-4.4598,-4.4598,-4.4598,-4.4598,-4.4598,-4.4598,-4.4598,-4.4803,-4.5005,-4.5203,-4.5203,-4.5203,-4.5203,-4.5167,-4.5086,-4.5032,-4.5005,-4.5022,-4.5022,-4.5291,-4.5441,-4.5529,-4.602,-4.618,-4.5829,-4.5036,-4.4185,-4.3261,-4.2341,-4.1947,-4.2166,-4.3266,-4.405,-4.4388,-4.4903,-4.4922,-4.4225,-4.3856,-4.3783,-4.3995,-4.4045,-4.4181,-4.4581,-4.4598,-4.4598,-4.4598,-4.4598,-4.4598,-4.4598,-4.4598,-4.4598,-4.4632,-4.4942,-4.5196,-4.5196,-4.5838,-4.6498,-4.6853,-4.7547,-4.8122,-4.8443,-4.8494,-4.8565,-4.8841,-4.8769,-4.8468,-4.7886,-4.7169,-4.6359,-4.5442,-4.4746,-4.4166,-4.3636,-4.3438,-4.3494,-4.3753,-4.4112,-4.4451,-4.4736,-4.5065,-4.5259,-4.5289,-4.5289,-4.5289,-4.5304,-4.5574,-4.5603,-4.4598,-4.457,-4.4384,-4.4006,-4.3413,-4.2077,-4.1355,-4.1117,-4.129,-4.1884,-4.2772,-4.3459,-4.3906,-4.4097,-4.4281,-4.4224,-4.4006,-4.3977,-4.3977,-4.3993,-4.3993,-4.4109,-4.4338,-4.4367,-4.444,-4.457,-4.4598,-4.4598,-4.4598,-4.4598,-4.4598,-4.4598,-4.4598,-4.4598,-4.4615,-4.4858,-4.514,-4.5389,-4.5555,-4.5632,-4.5632,-4.5555,-4.5468,-4.5336,-4.523,-4.5203,-4.5203,-4.5459,-4.5693,-4.5912,-4.6405,-4.676,-4.6832,-4.5911,-4.5243,-4.4967,-4.3706,-4.3173,-4.3825,-4.5081,-4.5818,-4.568,-4.6017,-4.6094,-4.5735,-4.5327,-4.4896,-4.4682,-4.462,-4.4609,-4.4598,-4.4598,-4.4598,-4.4598,-4.4598,-4.4598,-4.4598,-4.4598,-4.4699,-4.4869,-4.5348,-4.5737,-4.6024,-4.6599,-4.731,-4.8037,-4.8663,-4.8984,-4.9018,-4.9018,-4.9018,-4.897,-4.8909,-4.8658,-4.826,-4.7572,-4.6689,-4.5877,-4.4977,-4.4396,-4.3998,-4.3703,-4.3823,-4.4377,-4.4706,-4.502,-4.5454,-4.5708,-4.5813,-4.5888,-4.5918,-4.5843,-4.5888,-4.6217,-4.6396,-4.4598,-4.457,-4.4367,-4.3697,-4.2648,-4.159,-4.1153,-4.1135,-4.1439,-4.1964,-4.2679,-4.3323,-4.3802,-4.4126,-4.4446,-4.4542,-4.4514,-4.4514,-4.4514,-4.4497,-4.4514,-4.4542,-4.4542,-4.457,-4.457,-4.4598,-4.4598,-4.4598,-4.4598,-4.4598,-4.4598,-4.4598,-4.4598,-4.4598,-4.4626,-4.4886,-4.5123,-4.5398,-4.5988,-4.6308,-4.6284,-4.6062,-4.5887,-4.5752,-4.5372,-4.5203,-4.5203,-4.5468,-4.5786,-4.6161,-4.6742,-4.7151,-4.7338,-4.6912,-4.6561,-4.6463,-4.5528,-4.5301,-4.5954,-4.6816,-4.7219,-4.7128,-4.699,-4.6742,-4.6193,-4.5887,-4.5424,-4.4951,-4.4803,-4.4737,-4.4598,-4.4598,-4.4598,-4.4598,-4.4598,-4.4598,-4.4598,-4.4598,-4.484,-4.5534,-4.572,-4.5957,-4.665,-4.7361,-4.8041,-4.8697,-4.8883,-4.9018,-4.9018,-4.9018,-4.9018,-4.9018,-4.897,-4.8753,-4.8324,-4.7902,-4.7132,-4.6017,-4.5216,-4.4833,-4.4625,-4.4459,-4.4421,-4.508,-4.5633,-4.595,-4.6292,-4.6666,-4.701,-4.683,-4.689,-4.704,-4.71,-4.71,-4.7055,-4.4598,-4.4587,-4.4298,-4.3535,-4.246,-4.172,-4.1339,-4.1239,-4.1573,-4.2094,-4.2756,-4.3429,-4.3889,-4.4224,-4.4485,-4.4598,-4.4598,-4.4598,-4.4598,-4.4598,-4.4598,-4.4598,-4.4598,-4.4598,-4.4598,-4.4598,-4.4598,-4.4598,-4.4598,-4.4598,-4.4598,-4.4598,-4.4682,-4.4709,-4.4737,-4.4978,-4.5283,-4.5632,-4.6154,-4.6501,-4.6708,-4.6548,-4.635,-4.602,-4.5632,-4.5389,-4.5353,-4.5555,-4.5895,-4.6308,-4.6967,-4.745,-4.7648,-4.7226,-4.6942,-4.6865,-4.6438,-4.6304,-4.6571,-4.7334,-4.7747,-4.7606,-4.7515,-4.7254,-4.6788,-4.6489,-4.6077,-4.5494,-4.5032,-4.472,-4.4626,-4.4598,-4.4598,-4.4598,-4.4598,-4.4598,-4.4598,-4.4976,-4.5399,-4.572,-4.6452,-4.709,-4.7479,-4.8105,-4.8646,-4.8968,-4.9018,-4.9018,-4.9018,-4.9018,-4.9018,-4.9018,-4.9018,-4.8894,-4.8564,-4.8114,-4.7602,-4.7049,-4.626,-4.5725,-4.5617,-4.5324,-4.5304,-4.5825,-4.6142,-4.6531,-4.6845,-4.704,-4.7309,-4.7309,-4.7309,-4.7309,-4.7309,-4.7309,-4.7309,-4.4598,-4.4542,-4.4155,-4.3369,-4.2429,-4.2013,-4.172,-4.1606,-4.1981,-4.2475,-4.305,-4.3667,-4.4109,-4.4367,-4.4542,-4.4598,-4.4598,-4.4598,-4.4598,-4.4598,-4.4598,-4.4598,-4.4598,-4.4598,-4.4598,-4.4598,-4.4598,-4.4598,-4.4598,-4.4626,-4.4654,-4.4682,-4.4831,-4.4913,-4.4923,-4.5203,-4.5546,-4.5862,-4.6284,-4.6678,-4.6888,-4.6865,-4.6613,-4.6242,-4.5837,-4.5546,-4.5476,-4.5709,-4.6087,-4.6525,-4.7187,-4.7663,-4.7875,-4.7584,-4.7406,-4.7348,-4.7272,-4.7213,-4.7213,-4.7743,-4.8032,-4.7931,-4.7868,-4.766,-4.728,-4.7017,-4.6584,-4.5945,-4.5398,-4.5005,-4.4682,-4.4654,-4.4626,-4.4598,-4.4598,-4.4598,-4.4632,-4.5246,-4.5771,-4.6075,-4.7073,-4.799,-4.8193,-4.8646,-4.8984,-4.9001,-4.9018,-4.9018,-4.9018,-4.9018,-4.9018,-4.9018,-4.9154,-4.9159,-4.8885,-4.8606,-4.8248,-4.7874,-4.726,-4.6861,-4.6751,-4.6382,-4.6245,-4.6635,-4.6629,-4.6708,-4.704,-4.7249,-4.7309,-4.7309,-4.7309,-4.7309,-4.7309,-4.7309,-4.7309,-4.4598,-4.4497,-4.3906,-4.3262,-4.2585,-4.2429,-4.2238,-4.2142,-4.2758,-4.3248,-4.3578,-4.4064,-4.4367,-4.457,-4.4598,-4.4598,-4.4598,-4.4598,-4.4598,-4.4598,-4.4598,-4.4598,-4.4598,-4.4598,-4.4598,-4.4598,-4.4598,-4.4598,-4.4615,-4.4737,-4.4793,-4.482,-4.5086,-4.5203,-4.5257,-4.5606,-4.5862,-4.6062,-4.6477,-4.6754,-4.6795,-4.6795,-4.6637,-4.6332,-4.5887,-4.5598,-4.5615,-4.5854,-4.6249,-4.6863,-4.7385,-4.7824,-4.813,-4.8193,-4.8177,-4.8195,-4.8213,-4.8213,-4.8176,-4.8231,-4.8247,-4.8169,-4.8148,-4.7988,-4.7557,-4.7385,-4.6972,-4.6242,-4.5963,-4.5529,-4.4968,-4.4803,-4.472,-4.4598,-4.4598,-4.4598,-4.4649,-4.5365,-4.6007,-4.6667,-4.7496,-4.8193,-4.8815,-4.8968,-4.9001,-4.9018,-4.9018,-4.9018,-4.9018,-4.9018,-4.9018,-4.9204,-4.9526,-4.9782,-4.907,-4.9104,-4.8928,-4.864,-4.8441,-4.7972,-4.7746,-4.7553,-4.7509,-4.7404,-4.7325,-4.7287,-4.7292,-4.7309,-4.7309,-4.7309,-4.7309,-4.7309,-4.7309,-4.7309,-4.7309,-4.4497,-4.4384,-4.4051,-4.3654,-4.3232,-4.305,-4.2927,-4.2896,-4.3248,-4.3625,-4.3919,-4.4179,-4.4395,-4.4598,-4.4598,-4.4598,-4.4598,-4.4598,-4.4598,-4.4598,-4.4598,-4.4598,-4.4598,-4.4598,-4.4598,-4.4598,-4.4598,-4.4654,-4.472,-4.4858,-4.5005,-4.523,-4.5529,-4.576,-4.5887,-4.6179,-4.6332,-4.6398,-4.659,-4.6637,-4.6542,-4.6453,-4.6284,-4.6013,-4.5752,-4.5632,-4.5709,-4.6005,-4.6411,-4.7017,-4.7496,-4.7891,-4.8168,-4.8267,-4.8324,-4.8324,-4.8324,-4.8324,-4.8324,-4.8324,-4.8305,-4.8267,-4.8248,-4.8189,-4.797,-4.7809,-4.7518,-4.6994,-4.6654,-4.6224,-4.5632,-4.5096,-4.4765,-4.4626,-4.4615,-4.4818,-4.5297,-4.5957,-4.6684,-4.7428,-4.8156,-4.8731,-4.89,-4.9018,-4.9018,-4.9018,-4.9018,-4.9018,-4.9018,-4.9018,-4.9137,-4.9593,-4.9915,-5.0154,-5.0349,-5.0156,-5.0075,-4.9817,-4.9572,-4.9254,-4.8985,-4.8559,-4.8419,-4.7851,-4.7807,-4.7581,-4.7424,-4.7309,-4.7309,-4.7309,-4.7309,-4.7309,-4.7309,-4.7309,-4.7309,-4.4468,-4.431,-4.4196,-4.3964,-4.3651,-4.3608,-4.3532,-4.3502,-4.3726,-4.3964,-4.4167,-4.431,-4.4468,-4.457,-4.4598,-4.4598,-4.4598,-4.4598,-4.4598,-4.4598,-4.4598,-4.4598,-4.4598,-4.4654,-4.4654,-4.4682,-4.4692,-4.4803,-4.4923,-4.5113,-4.5336,-4.5606,-4.602,-4.6291,-4.6459,-4.6737,-4.687,-4.6783,-4.676,-4.6643,-4.6447,-4.6211,-4.6055,-4.5829,-4.5709,-4.576,-4.5938,-4.6242,-4.6695,-4.7258,-4.7708,-4.8014,-4.8226,-4.8286,-4.8324,-4.8324,-4.8324,-4.8324,-4.8324,-4.8324,-4.8324,-4.8324,-4.8287,-4.8248,-4.8207,-4.811,-4.7829,-4.7432,-4.7169,-4.6788,-4.6246,-4.5832,-4.538,-4.4977,-4.4913,-4.5213,-4.571,-4.6595,-4.7411,-4.8139,-4.8646,-4.8951,-4.9018,-4.9018,-4.9018,-4.9018,-4.9018,-4.9018,-4.9018,-4.9018,-4.9255,-4.9949,-5.0304,-5.0683,-5.1059,-5.1263,-5.0976,-5.0754,-5.0667,-5.0387,-4.9983,-4.9567,-4.9097,-4.848,-4.7992,-4.7709,-4.7467,-4.7352,-4.7309,-4.7309,-4.7309,-4.7309,-4.7309,-4.7309,-4.7309,-4.4485,-4.4321,-4.431,-4.4138,-4.3889,-4.4023,-4.3993,-4.3889,-4.4121,-4.4281,-4.4338,-4.4497,-4.457,-4.4598,-4.4598,-4.4598,-4.4598,-4.4598,-4.4598,-4.4598,-4.4598,-4.4598,-4.4598,-4.4737,-4.4803,-4.4831,-4.4923,-4.5086,-4.523,-4.5477,-4.5735,-4.6045,-4.6489,-4.6794,-4.6908,-4.728,-4.7345,-4.7169,-4.7102,-4.6858,-4.6429,-4.6161,-4.5963,-4.5829,-4.5811,-4.5963,-4.6235,-4.6631,-4.7107,-4.7618,-4.7988,-4.8226,-4.8267,-4.8324,-4.8324,-4.8324,-4.8324,-4.8324,-4.8324,-4.8324,-4.8324,-4.8324,-4.8324,-4.8286,-4.8226,-4.8187,-4.801,-4.7621,-4.7407,-4.7062,-4.6702,-4.6882,-4.6645,-4.5551,-4.5678,-4.6005,-4.6277,-4.7145,-4.8159,-4.8765,-4.8984,-4.9001,-4.9018,-4.9018,-4.9018,-4.9018,-4.9018,-4.9018,-4.9035,-4.9103,-4.939,-5.0067,-5.0794,-5.139,-5.1866,-5.2266,-5.1909,-5.1597,-5.1589,-5.1422,-5.0811,-5.0315,-4.9765,-4.9163,-4.837,-4.8007,-4.7639,-4.751,-4.7424,-4.7439,-4.7396,-4.7352,-4.7309,-4.7309,-4.7309,-4.4587,-4.4514,-4.4497,-4.444,-4.4355,-4.4429,-4.4384,-4.4355,-4.4485,-4.4497,-4.4514,-4.457,-4.4598,-4.4598,-4.4598,-4.4598,-4.4598,-4.4598,-4.4598,-4.4598,-4.4598,-4.4598,-4.4626,-4.4748,-4.4896,-4.5086,-4.5203,-4.5415,-4.5632,-4.5887,-4.6217,-4.6649,-4.7039,-4.7327,-4.7503,-4.7728,-4.7726,-4.7515,-4.7341,-4.7012,-4.6548,-4.6284,-4.6105,-4.5963,-4.613,-4.6405,-4.6812,-4.6954,-4.7266,-4.7749,-4.805,-4.8208,-4.8286,-4.8324,-4.8324,-4.8324,-4.8324,-4.8324,-4.8324,-4.8324,-4.8324,-4.8324,-4.8324,-4.8287,-4.8286,-4.8267,-4.8189,-4.797,-4.785,-4.7642,-4.7467,-4.7709,-4.7508,-4.6395,-4.6773,-4.7255,-4.7539,-4.8171,-4.8663,-4.8934,-4.9018,-4.9018,-4.9018,-4.9018,-4.9018,-4.9018,-4.9018,-4.9018,-4.9052,-4.9407,-5.0033,-5.076,-5.1455,-5.2048,-5.2505,-5.2705,-5.25,-5.2209,-5.2142,-5.2053,-5.1508,-5.1005,-5.0454,-4.9725,-4.8934,-4.837,-4.8007,-4.7794,-4.7752,-4.7596,-4.7553,-4.7467,-4.7352,-4.7309,-4.7309,-4.4598,-4.4598,-4.4598,-4.4598,-4.4598,-4.4598,-4.4598,-4.4598,-4.4598,-4.4598,-4.4598,-4.4598,-4.4598,-4.4598,-4.4598,-4.4598,-4.4598,-4.4598,-4.4598,-4.4598,-4.4671,-4.4682,-4.4737,-4.4978,-4.5327,-4.5624,-4.5735,-4.5912,-4.6186,-4.6411,-4.6742,-4.7129,-4.7496,-4.7767,-4.7951,-4.8052,-4.7992,-4.7747,-4.7554,-4.7209,-4.6754,-4.6501,-4.6357,-4.6284,-4.6483,-4.6835,-4.7214,-4.7349,-4.7603,-4.7913,-4.8149,-4.8247,-4.8287,-4.8324,-4.8324,-4.8324,-4.8324,-4.8324,-4.8324,-4.8324,-4.8324,-4.8324,-4.8324,-4.8324,-4.8324,-4.8324,-4.8267,-4.8207,-4.811,-4.8136,-4.8252,-4.871,-4.8721,-4.8373,-4.8232,-4.8407,-4.8697,-4.885,-4.8951,-4.9018,-4.9018,-4.9018,-4.9018,-4.9018,-4.9018,-4.9018,-4.9018,-4.9018,-4.9154,-4.9627,-5.0371,-5.1099,-5.1758,-5.2336,-5.2994,-5.3128,-5.3093,-5.2836,-5.2627,-5.2395,-5.202,-5.1639,-5.1177,-5.026,-4.9405,-4.8959,-4.8589,-4.8423,-4.8297,-4.8061,-4.7837,-4.7681,-4.7553,-4.7337,-4.7294,-4.4598,-4.4598,-4.4598,-4.4598,-4.4598,-4.4598,-4.4598,-4.4598,-4.4598,-4.4598,-4.4598,-4.4598,-4.4598,-4.4598,-4.4598,-4.4598,-4.4598,-4.4598,-4.4598,-4.4654,-4.4748,-4.4886,-4.4978,-4.5398,-4.5862,-4.6308,-4.6405,-4.6572,-4.6801,-4.7012,-4.7258,-4.7536,-4.7829,-4.807,-4.8169,-4.8248,-4.8132,-4.7872,-4.7765,-4.7425,-4.6934,-4.6865,-4.6801,-4.6666,-4.6967,-4.7258,-4.7536,-4.779,-4.8032,-4.8169,-4.8267,-4.8305,-4.8324,-4.8324,-4.8324,-4.8324,-4.8324,-4.8324,-4.8324,-4.8324,-4.8324,-4.8324,-4.8324,-4.8324,-4.8324,-4.8305,-4.8286,-4.8208,-4.8207,-4.8439,-4.9024,-4.9683,-5.0208,-5.0665,-4.9819,-4.9364,-4.921,-4.9107,-4.9032,-4.9001,-4.9018,-4.9018,-4.9018,-4.9018,-4.9018,-4.9018,-4.9018,-4.9018,-4.9204,-4.9695,-5.0422,-5.1166,-5.1944,-5.2622,-5.3264,-5.3298,-5.3264,-5.3161,-5.2972,-5.2747,-5.2485,-5.2112,-5.1696,-5.0783,-5.0143,-4.9654,-4.9309,-4.9188,-4.8918,-4.8646,-4.8328,-4.8007,-4.7724,-4.7553,-4.7337,-4.4598,-4.4598,-4.4598,-4.4598,-4.4598,-4.4598,-4.4598,-4.4598,-4.4598,-4.4598,-4.4598,-4.4598,-4.4598,-4.4598,-4.4598,-4.4598,-4.4598,-4.4598,-4.4598,-4.4654,-4.4951,-4.5257,-4.5529,-4.5887,-4.6291,-4.6742,-4.688,-4.7075,-4.7316,-4.7468,-4.7642,-4.787,-4.803,-4.8189,-4.8267,-4.8305,-4.8247,-4.811,-4.7972,-4.7785,-4.7508,-4.7359,-4.7298,-4.7298,-4.7446,-4.7621,-4.785,-4.8092,-4.8247,-4.8267,-4.8305,-4.8324,-4.8324,-4.8324,-4.8324,-4.8324,-4.8324,-4.8324,-4.8324,-4.8324,-4.8324,-4.8324,-4.8324,-4.8324,-4.8324,-4.8324,-4.8305,-4.8286,-4.8286,-4.8615,-4.938,-5.014,-5.0806,-5.1323,-5.0743,-5.0028,-4.9605,-4.9337,-4.9124,-4.9032,-4.9001,-4.9018,-4.9018,-4.9018,-4.9018,-4.9018,-4.9018,-4.9069,-4.9323,-5.0084,-5.0947,-5.1488,-5.2148,-5.2875,-5.3366,-5.3399,-5.3433,-5.3433,-5.328,-5.3161,-5.2817,-5.2449,-5.1915,-5.1236,-5.1011,-5.0615,-5.0299,-5.0042,-4.9661,-4.9325,-4.8934,-4.862,-4.8049,-4.7752,-4.751,-4.4598,-4.4598,-4.4598,-4.4598,-4.4598,-4.4598,-4.4598,-4.4598,-4.4598,-4.4598,-4.4598,-4.4598,-4.4598,-4.4598,-4.4598,-4.4598,-4.4598,-4.4598,-4.4598,-4.4682,-4.514,-4.5641,-4.6102,-4.6411,-4.6771,-4.7244,-4.7353,-4.7518,-4.7702,-4.7845,-4.797,-4.807,-4.8189,-4.8248,-4.8305,-4.8305,-4.8267,-4.8207,-4.811,-4.799,-4.7765,-4.7726,-4.7684,-4.7684,-4.7806,-4.797,-4.8131,-4.8248,-4.8324,-4.8324,-4.8324,-4.8324,-4.8324,-4.8324,-4.8324,-4.8324,-4.8324,-4.8324,-4.8324,-4.8324,-4.8324,-4.8324,-4.8324,-4.8324,-4.8324,-4.8324,-4.8324,-4.8305,-4.8324,-4.8912,-4.9993,-5.0993,-5.1661,-5.1897,-5.1424,-5.0704,-4.9907,-4.9441,-4.9168,-4.9063,-4.9018,-4.9018,-4.9018,-4.9018,-4.9018,-4.9018,-4.9018,-4.9221,-4.9543,-5.0557,-5.1403,-5.1877,-5.2402,-5.3129,-5.3433,-5.345,-5.3467,-5.3484,-5.345,-5.3348,-5.3127,-5.2782,-5.2449,-5.2023,-5.1842,-5.1586,-5.1215,-5.0892,-5.0608,-5.0221,-4.9725,-4.9138,-4.8604,-4.816,-4.7922,-4.4598,-4.4598,-4.4598,-4.4598,-4.4598,-4.4598,-4.4598,-4.4598,-4.4598,-4.4598,-4.4598,-4.4598,-4.4598,-4.4598,-4.4598,-4.4598,-4.4598,-4.4598,-4.4654,-4.4858,-4.531,-4.5945,-4.6607,-4.6817,-4.7222,-4.7689,-4.7813,-4.7893,-4.8012,-4.8148,-4.8187,-4.8226,-4.8267,-4.8305,-4.8324,-4.8324,-4.8267,-4.8208,-4.8208,-4.8092,-4.7953,-4.7953,-4.7953,-4.7913,-4.8052,-4.8189,-4.8248,-4.8324,-4.8324,-4.8324,-4.8324,-4.8324,-4.8324,-4.8324,-4.8324,-4.8324,-4.8324,-4.8324,-4.8324,-4.8324,-4.8324,-4.8324,-4.8324,-4.8324,-4.8324,-4.8324,-4.8324,-4.8324,-4.8324,-4.9095,-5.0507,-5.2019,-5.2554,-5.2384,-5.1915,-5.1122,-5.0226,-4.9555,-4.9216,-4.9032,-4.9032,-4.9018,-4.9018,-4.9001,-4.9018,-4.9052,-4.9154,-4.9526,-5.0016,-5.0896,-5.1623,-5.2131,-5.2739,-5.3399,-5.3501,-5.3501,-5.3501,-5.3484,-5.3484,-5.3433,-5.3348,-5.311,-5.2972,-5.2747,-5.2468,-5.2291,-5.2076,-5.1786,-5.1475,-5.1065,-5.0554,-4.9868,-4.9259,-4.8852,-4.8537,-4.4598,-4.4598,-4.4598,-4.4598,-4.4598,-4.4598,-4.4598,-4.4598,-4.4598,-4.4598,-4.4598,-4.4598,-4.4598,-4.4598,-4.4598,-4.4598,-4.4598,-4.4598,-4.4748,-4.5113,-4.5415,-4.6077,-4.6747,-4.7062,-4.7475,-4.7872,-4.807,-4.8149,-4.8229,-4.8267,-4.8286,-4.8286,-4.8286,-4.8324,-4.8324,-4.8324,-4.8287,-4.8267,-4.8286,-4.8248,-4.819,-4.819,-4.8209,-4.819,-4.8229,-4.8286,-4.8305,-4.8324,-4.8324,-4.8324,-4.8324,-4.8324,-4.8324,-4.8324,-4.8324,-4.8324,-4.8324,-4.8324,-4.8324,-4.8324,-4.8324,-4.8324,-4.8324,-4.8324,-4.8324,-4.8324,-4.8324,-4.8324,-4.8361,-4.9077,-5.0617,-5.2111,-5.2707,-5.2563,-5.209,-5.1533,-5.0804,-5.008,-4.9543,-4.926,-4.9094,-4.9001,-4.9032,-4.9032,-4.9066,-4.9086,-4.9424,-4.9847,-5.0524,-5.1285,-5.1911,-5.2486,-5.2942,-5.3501,-5.3518,-5.3518,-5.3518,-5.3518,-5.3518,-5.3518,-5.3416,-5.3382,-5.323,-5.3161,-5.3059,-5.2886,-5.2677,-5.2485,-5.2167,-5.1753,-5.1348,-5.0707,-5.0104,-4.9646,-4.9113,-4.4598,-4.4598,-4.4598,-4.4598,-4.4598,-4.4598,-4.4598,-4.4598,-4.4598,-4.4598,-4.4598,-4.4598,-4.4598,-4.4598,-4.4598,-4.4598,-4.4598,-4.4598,-4.472,-4.5032,-4.5363,-4.5827,-4.6448,-4.7017,-4.7496,-4.8012,-4.8189,-4.8267,-4.8305,-4.8324,-4.8305,-4.8324,-4.8324,-4.8324,-4.8324,-4.8324,-4.8324,-4.8287,-4.8324,-4.8324,-4.8324,-4.8324,-4.8324,-4.8324,-4.8324,-4.8324,-4.8324,-4.8324,-4.8324,-4.8324,-4.8324,-4.8324,-4.8324,-4.8324,-4.8324,-4.8324,-4.8324,-4.8324,-4.8324,-4.8324,-4.8324,-4.8324,-4.8324,-4.8324,-4.8324,-4.8324,-4.8324,-4.8324,-4.8453,-4.8985,-5.0637,-5.2192,-5.2831,-5.2783,-5.2366,-5.1922,-5.1406,-5.0622,-4.9913,-4.9619,-4.9441,-4.9381,-4.932,-4.9229,-4.9124,-4.9189,-4.9709,-5.0166,-5.0845,-5.1589,-5.2317,-5.2858,-5.3213,-5.3484,-5.3501,-5.3518,-5.3518,-5.3518,-5.3518,-5.3518,-5.3467,-5.3467,-5.3433,-5.3382,-5.3298,-5.3298,-5.3127,-5.2956,-5.2765,-5.2433,-5.2004,-5.1475,-5.1027,-5.057,-4.9924,-4.4598,-4.4598,-4.4598,-4.4598,-4.4598,-4.4598,-4.4598,-4.4598,-4.4598,-4.4598,-4.4598,-4.4598,-4.4598,-4.4598,-4.4598,-4.4598,-4.4598,-4.4598,-4.4709,-4.4886,-4.522,-4.5606,-4.6102,-4.6724,-4.7327,-4.7992,-4.8208,-4.8286,-4.8286,-4.8268,-4.8324,-4.8324,-4.8324,-4.8324,-4.8324,-4.8324,-4.8324,-4.8324,-4.8324,-4.8324,-4.8324,-4.8324,-4.8324,-4.8324,-4.8324,-4.8324,-4.8324,-4.8324,-4.8324,-4.8324,-4.8324,-4.8324,-4.8324,-4.8324,-4.8324,-4.8324,-4.8324,-4.8324,-4.8324,-4.8324,-4.8324,-4.8324,-4.8324,-4.8324,-4.8324,-4.8324,-4.8324,-4.8471,-4.8691,-4.9407,-5.0729,-5.2231,-5.2996,-5.2955,-5.2654,-5.2361,-5.197,-5.121,-5.0649,-5.0097,-4.9895,-4.9779,-4.9661,-4.9543,-4.9394,-4.9379,-4.9935,-5.0503,-5.1165,-5.1928,-5.2672,-5.3078,-5.3382,-5.3484,-5.3501,-5.3518,-5.3518,-5.3518,-5.3518,-5.3518,-5.3518,-5.3467,-5.3467,-5.3467,-5.3433,-5.3433,-5.3433,-5.328,-5.3093,-5.2938,-5.2677,-5.2183,-5.1822,-5.1455,-5.0761,-4.4598,-4.4598,-4.4598,-4.4598,-4.4598,-4.4598,-4.4598,-4.4598,-4.4598,-4.4598,-4.4598,-4.4598,-4.4598,-4.4598,-4.4598,-4.4598,-4.4598,-4.4598,-4.4671,-4.4803,-4.5086,-4.5441,-4.5819,-4.6394,-4.6976,-4.7475,-4.7891,-4.8168,-4.8246,-4.8248,-4.8305,-4.8324,-4.8324,-4.8324,-4.8324,-4.8324,-4.8324,-4.8324,-4.8324,-4.8324,-4.8324,-4.8324,-4.8324,-4.8324,-4.8324,-4.8324,-4.8324,-4.8324,-4.8324,-4.8324,-4.8324,-4.8324,-4.8324,-4.8324,-4.8324,-4.8324,-4.8324,-4.8324,-4.8324,-4.8324,-4.8324,-4.8324,-4.8324,-4.8324,-4.8324,-4.8324,-4.8324,-4.8673,-4.9481,-5.049,-5.0784,-5.227,-5.2978,-5.2999,-5.285,-5.2631,-5.2361,-5.197,-5.1475,-5.0902,-5.054,-5.0268,-5.0194,-5.0034,-4.9849,-4.9936,-5.041,-5.0853,-5.142,-5.2277,-5.3128,-5.3348,-5.3467,-5.3501,-5.3518,-5.3518,-5.3518,-5.3518,-5.3518,-5.3518,-5.3518,-5.3518,-5.3518,-5.3518,-5.3518,-5.3467,-5.3467,-5.3433,-5.3348,-5.3161,-5.3007,-5.2886,-5.252,-5.2076,-5.1623,-4.4598,-4.4598,-4.4598,-4.4598,-4.4598,-4.4598,-4.4598,-4.4598,-4.4598,-4.4598,-4.4598,-4.4598,-4.4598,-4.4598,-4.4598,-4.4598,-4.4598,-4.4598,-4.4626,-4.4748,-4.4913,-4.5113,-4.5468,-4.5978,-4.6418,-4.6903,-4.741,-4.7929,-4.8169,-4.8267,-4.8305,-4.8324,-4.8324,-4.8324,-4.8324,-4.8324,-4.8324,-4.8324,-4.8324,-4.8324,-4.8324,-4.8324,-4.8324,-4.8324,-4.8324,-4.8324,-4.8324,-4.8324,-4.8324,-4.8324,-4.8324,-4.8324,-4.8324,-4.8324,-4.8324,-4.8324,-4.8324,-4.8324,-4.8324,-4.8324,-4.8324,-4.8324,-4.8324,-4.8324,-4.8324,-4.8324,-4.8324,-4.8691,-4.9774,-5.082,-5.0857,-5.2289,-5.2999,-5.3103,-5.2977,-5.285,-5.2698,-5.2522,-5.2155,-5.1676,-5.1347,-5.1087,-5.092,-5.0686,-5.0373,-5.0512,-5.0875,-5.1243,-5.1651,-5.2437,-5.3278,-5.35,-5.3568,-5.3518,-5.3518,-5.3518,-5.3518,-5.3518,-5.3518,-5.3518,-5.3518,-5.3518,-5.3518,-5.3518,-5.3518,-5.3518,-5.3518,-5.3467,-5.3433,-5.3382,-5.328,-5.3161,-5.299,-5.2696,-5.2219,-4.4598,-4.4598,-4.4598,-4.4598,-4.4598,-4.4598,-4.4598,-4.4598,-4.4598,-4.4598,-4.4598,-4.4598,-4.4598,-4.4598,-4.4598,-4.4598,-4.4598,-4.4598,-4.4598,-4.4643,-4.4765,-4.4886,-4.5086,-4.5477,-4.5995,-4.6411,-4.6972,-4.7518,-4.8012,-4.8228,-4.8267,-4.8287,-4.8324,-4.8324,-4.8324,-4.8324,-4.8324,-4.8324,-4.8324,-4.8324,-4.8324,-4.8324,-4.8324,-4.8324,-4.8324,-4.8324,-4.8324,-4.8324,-4.8324,-4.8324,-4.8324,-4.8324,-4.8324,-4.8324,-4.8324,-4.8324,-4.8324,-4.8324,-4.8324,-4.8324,-4.8324,-4.8324,-4.8324,-4.8324,-4.8324,-4.8324,-4.8343,-4.858,-4.9793,-5.0784,-5.1004,-5.2252,-5.302,-5.3167,-5.3103,-5.302,-5.2977,-5.2872,-5.2783,-5.2408,-5.2108,-5.1824,-5.1626,-5.1322,-5.0964,-5.0877,-5.1198,-5.1302,-5.1727,-5.2386,-5.3084,-5.3497,-5.3618,-5.3534,-5.3518,-5.3518,-5.3518,-5.3518,-5.3518,-5.3518,-5.3518,-5.3518,-5.3518,-5.3518,-5.3518,-5.3518,-5.3518,-5.3518,-5.3467,-5.3467,-5.3467,-5.3433,-5.323,-5.3076,-5.2782,-4.4598,-4.4598,-4.4598,-4.4598,-4.4598,-4.4598,-4.4598,-4.4598,-4.4598,-4.4598,-4.4598,-4.4598,-4.4598,-4.4598,-4.4598,-4.4598,-4.4598,-4.4598,-4.4598,-4.4643,-4.4709,-4.4793,-4.4886,-4.5372,-4.5709,-4.6062,-4.6607,-4.7248,-4.771,-4.8032,-4.8228,-4.8286,-4.8305,-4.8324,-4.8324,-4.8324,-4.8324,-4.8324,-4.8324,-4.8324,-4.8324,-4.8324,-4.8324,-4.8324,-4.8324,-4.8324,-4.8324,-4.8324,-4.8324,-4.8324,-4.8324,-4.8324,-4.8324,-4.8324,-4.8324,-4.8324,-4.8324,-4.8324,-4.8324,-4.8324,-4.8343,-4.8343,-4.8343,-4.8324,-4.8324,-4.8324,-4.8324,-4.836,-4.9774,-5.0692,-5.1022,-5.2252,-5.2947,-5.3185,-5.3164,-5.3164,-5.3143,-5.3082,-5.2999,-5.2977,-5.2608,-5.2408,-5.2203,-5.1897,-5.1619,-5.1501,-5.1456,-5.1535,-5.1829,-5.2492,-5.3077,-5.3495,-5.3618,-5.3534,-5.3518,-5.3518,-5.3518,-5.3518,-5.3518,-5.3518,-5.3518,-5.3518,-5.3518,-5.3518,-5.3518,-5.3518,-5.3518,-5.3518,-5.3518,-5.3518,-5.3518,-5.3518,-5.3467,-5.3314,-5.3161,-4.4598,-4.4598,-4.4598,-4.4598,-4.4598,-4.4598,-4.4598,-4.4598,-4.4598,-4.4598,-4.4598,-4.4598,-4.4598,-4.4598,-4.4598,-4.4598,-4.4598,-4.4598,-4.4598,-4.4598,-4.4654,-4.4699,-4.4748,-4.5005,-4.5327,-4.5709,-4.6094,-4.6543,-4.7138,-4.771,-4.8052,-4.8208,-4.8247,-4.8267,-4.8286,-4.8305,-4.8324,-4.8324,-4.8324,-4.8324,-4.8324,-4.8324,-4.8324,-4.8324,-4.8324,-4.8324,-4.8324,-4.8324,-4.8324,-4.8324,-4.8324,-4.8324,-4.8324,-4.8324,-4.8324,-4.8324,-4.8324,-4.8324,-4.8324,-4.8363,-4.8401,-4.8438,-4.8457,-4.8476,-4.8401,-4.8343,-4.8324,-4.8343,-4.9389,-5.0233,-5.0857,-5.1848,-5.2601,-5.2983,-5.3185,-5.3185,-5.3185,-5.3185,-5.3164,-5.3164,-5.3143,-5.289,-5.2631,-5.2361,-5.206,-5.1882,-5.1746,-5.1722,-5.2049,-5.2632,-5.3146,-5.3614,-5.3601,-5.3518,-5.3518,-5.3518,-5.3518,-5.3518,-5.3518,-5.3518,-5.3518,-5.3518,-5.3518,-5.3518,-5.3518,-5.3518,-5.3518,-5.3518,-5.3518,-5.3518,-5.3518,-5.3518,-5.3518,-5.3467,-5.3127,-4.4598,-4.4598,-4.4598,-4.4598,-4.4598,-4.4598,-4.4598,-4.4598,-4.4598,-4.4598,-4.4598,-4.4598,-4.4598,-4.4598,-4.4598,-4.4598,-4.4598,-4.4598,-4.4598,-4.4598,-4.4598,-4.4598,-4.4682,-4.482,-4.5005,-4.531,-4.5632,-4.6052,-4.6566,-4.7071,-4.7521,-4.8008,-4.805,-4.8092,-4.817,-4.8229,-4.8286,-4.8324,-4.8324,-4.8324,-4.8324,-4.8324,-4.8324,-4.8324,-4.8324,-4.8324,-4.8324,-4.8324,-4.8324,-4.8324,-4.8324,-4.8324,-4.8324,-4.8324,-4.8324,-4.8324,-4.8325,-4.8401,-4.8438,-4.8476,-4.855,-4.8569,-4.8569,-4.8569,-4.8494,-4.84,-4.8324,-4.8324,-4.9132,-4.9976,-5.0747,-5.1555,-5.2362,-5.2913,-5.3185,-5.3185,-5.3185,-5.3185,-5.3185,-5.3185,-5.3185,-5.3185,-5.2974,-5.2775,-5.2536,-5.2291,-5.2113,-5.1965,-5.2335,-5.2815,-5.3291,-5.3772,-5.3667,-5.3584,-5.3551,-5.3568,-5.3534,-5.3518,-5.3518,-5.3518,-5.3518,-5.3518,-5.3518,-5.3518,-5.3518,-5.3518,-5.3518,-5.3518,-5.3518,-5.3518,-5.3518,-5.3518,-5.3518,-5.3467,-5.3161,-4.4598,-4.4598,-4.4598,-4.4598,-4.4598,-4.4598,-4.4598,-4.4598,-4.4598,-4.4598,-4.4598,-4.4598,-4.4598,-4.4598,-4.4598,-4.4598,-4.4598,-4.4598,-4.4598,-4.4598,-4.4598,-4.4598,-4.466,-4.4788,-4.4937,-4.5059,-4.5404,-4.5771,-4.5988,-4.6249,-4.6858,-4.745,-4.7624,-4.7752,-4.7933,-4.8072,-4.8228,-4.8267,-4.8287,-4.8324,-4.8324,-4.8324,-4.8324,-4.8324,-4.8324,-4.8324,-4.8324,-4.8324,-4.8324,-4.8324,-4.8324,-4.8324,-4.8324,-4.8324,-4.8324,-4.8324,-4.8401,-4.8476,-4.8569,-4.8624,-4.866,-4.8715,-4.8678,-4.8642,-4.8569,-4.8419,-4.8324,-4.8361,-4.8967,-4.9738,-5.06,-5.1481,-5.2123,-5.2711,-5.3023,-5.3185,-5.3185,-5.3185,-5.3185,-5.3185,-5.3185,-5.3185,-5.3164,-5.293,-5.2802,-5.2568,-5.2282,-5.213,-5.2616,-5.3119,-5.3554,-5.3866,-5.3811,-5.375,-5.3651,-5.3634,-5.3534,-5.3518,-5.3518,-5.3518,-5.3518,-5.3518,-5.3518,-5.3518,-5.3518,-5.3518,-5.3518,-5.3518,-5.3518,-5.3518,-5.3518,-5.3518,-5.3433,-5.3382,-5.3058,-4.4598,-4.4598,-4.4598,-4.4598,-4.4598,-4.4598,-4.4598,-4.4598,-4.4598,-4.4598,-4.4598,-4.4598,-4.4598,-4.4598,-4.4598,-4.4598,-4.4598,-4.4598,-4.4598,-4.4598,-4.4598,-4.4598,-4.4744,-4.4993,-4.523,-4.5063,-4.5381,-4.5544,-4.5511,-4.5658,-4.587,-4.637,-4.6936,-4.7371,-4.7603,-4.787,-4.8092,-4.8228,-4.8267,-4.8324,-4.8324,-4.8324,-4.8324,-4.8324,-4.8324,-4.8324,-4.8324,-4.8324,-4.8324,-4.8324,-4.8324,-4.8324,-4.8324,-4.8324,-4.8324,-4.8343,-4.8438,-4.8606,-4.8767,-4.8819,-4.8906,-4.9027,-4.8959,-4.8803,-4.8679,-4.8532,-4.8382,-4.8454,-4.86,-4.926,-4.9996,-5.0765,-5.1499,-5.2289,-5.2821,-5.3093,-5.3185,-5.3185,-5.3185,-5.3185,-5.3185,-5.3185,-5.3124,-5.306,-5.2937,-5.2828,-5.2529,-5.2424,-5.2927,-5.3321,-5.369,-5.3991,-5.3982,-5.3815,-5.375,-5.3634,-5.3501,-5.3518,-5.3518,-5.3518,-5.3518,-5.3518,-5.3518,-5.3518,-5.3518,-5.3518,-5.3518,-5.3518,-5.3518,-5.3518,-5.3518,-5.3518,-5.3433,-5.3348,-5.3007,-4.4598,-4.4598,-4.4598,-4.4598,-4.4598,-4.4598,-4.4598,-4.4598,-4.4598,-4.4598,-4.4598,-4.4598,-4.4598,-4.4598,-4.4598,-4.4598,-4.4598,-4.4598,-4.4598,-4.4598,-4.4598,-4.4598,-4.4823,-4.5122,-4.532,-4.5066,-4.5365,-4.5618,-4.513,-4.5177,-4.5372,-4.5692,-4.6077,-4.6584,-4.7169,-4.7639,-4.7911,-4.8052,-4.8208,-4.8267,-4.8267,-4.8305,-4.8324,-4.8324,-4.8324,-4.8324,-4.8324,-4.8324,-4.8324,-4.8324,-4.8324,-4.8324,-4.8324,-4.8324,-4.8324,-4.8363,-4.8495,-4.8697,-4.8909,-4.9127,-4.9257,-4.9352,-4.9193,-4.9029,-4.884,-4.8624,-4.842,-4.8324,-4.8379,-4.8655,-4.95,-5.0398,-5.1242,-5.2087,-5.2876,-5.3185,-5.3185,-5.3185,-5.3185,-5.3185,-5.3185,-5.3185,-5.3185,-5.3103,-5.3017,-5.2893,-5.2663,-5.269,-5.3179,-5.3486,-5.3728,-5.4,-5.417,-5.3973,-5.3832,-5.3668,-5.3534,-5.3518,-5.3518,-5.3518,-5.3518,-5.3518,-5.3518,-5.3518,-5.3518,-5.3518,-5.3518,-5.3518,-5.3518,-5.3518,-5.3518,-5.3518,-5.3467,-5.3399,-5.323,-4.4598,-4.4598,-4.4598,-4.4598,-4.457,-4.4598,-4.4598,-4.4598,-4.4598,-4.4598,-4.4598,-4.4598,-4.4598,-4.4598,-4.4598,-4.4598,-4.4598,-4.4598,-4.4598,-4.4598,-4.4598,-4.4598,-4.4942,-4.5314,-4.5664,-4.501,-4.554,-4.5846,-4.5052,-4.525,-4.5313,-4.5414,-4.5839,-4.6011,-4.6506,-4.7183,-4.7618,-4.7811,-4.805,-4.8148,-4.8189,-4.8247,-4.8286,-4.8324,-4.8324,-4.8324,-4.8324,-4.8324,-4.8324,-4.8324,-4.8324,-4.8324,-4.8324,-4.8324,-4.8324,-4.8324,-4.8606,-4.8839,-4.9025,-4.943,-4.963,-4.9644,-4.9461,-4.9209,-4.8943,-4.8678,-4.8457,-4.8343,-4.8324,-4.8673,-4.9462,-5.0306,-5.1114,-5.1793,-5.2564,-5.3185,-5.3185,-5.3185,-5.3185,-5.3185,-5.3185,-5.3185,-5.3185,-5.3164,-5.3057,-5.2912,-5.2717,-5.292,-5.3362,-5.3705,-5.3916,-5.4122,-5.4329,-5.4198,-5.3996,-5.3718,-5.3568,-5.3534,-5.3501,-5.3534,-5.3501,-5.3518,-5.3518,-5.3518,-5.3518,-5.3518,-5.3518,-5.3518,-5.3518,-5.3518,-5.3518,-5.3518,-5.3518,-5.3467,-5.3264,-4.4598,-4.457,-4.444,-4.4395,-4.4412,-4.4559,-4.4598,-4.4598,-4.4598,-4.4598,-4.4598,-4.4598,-4.4598,-4.4598,-4.4598,-4.4598,-4.4598,-4.4598,-4.4598,-4.4598,-4.4598,-4.4942,-4.5365,-4.5889,-4.621,-4.6312,-4.6684,-4.6667,-4.6179,-4.5987,-4.6089,-4.6283,-4.6298,-4.6339,-4.6525,-4.7051,-4.7693,-4.7475,-4.7642,-4.7909,-4.805,-4.8169,-4.8267,-4.8305,-4.8324,-4.8324,-4.8324,-4.8324,-4.8324,-4.8324,-4.8324,-4.8324,-4.8324,-4.8324,-4.8306,-4.8363,-4.8624,-4.9042,-4.9404,-4.98,-4.9925,-4.9857,-4.9683,-4.938,-4.9008,-4.8804,-4.8587,-4.8382,-4.8324,-4.8563,-4.8802,-5.0086,-5.0949,-5.1353,-5.2068,-5.291,-5.3185,-5.3185,-5.3185,-5.3185,-5.3185,-5.3185,-5.3185,-5.3185,-5.3121,-5.3078,-5.2912,-5.3017,-5.3405,-5.3835,-5.4145,-5.4323,-5.4478,-5.4364,-5.4158,-5.3899,-5.3685,-5.3618,-5.3618,-5.3568,-5.3551,-5.3501,-5.3518,-5.3518,-5.3518,-5.3518,-5.3518,-5.3518,-5.3518,-5.3518,-5.3518,-5.3518,-5.3518,-5.3467,-5.3382,-4.457,-4.4468,-4.431,-4.415,-4.4121,-4.4327,-4.4457,-4.4468,-4.4497,-4.4542,-4.457,-4.4598,-4.4598,-4.4598,-4.4598,-4.4598,-4.4598,-4.4598,-4.4598,-4.4598,-4.4598,-4.501,-4.5686,-4.643,-4.6599,-4.7022,-4.7411,-4.7479,-4.6697,-4.6735,-4.6713,-4.6818,-4.7253,-4.6792,-4.6673,-4.6893,-4.7322,-4.7117,-4.7258,-4.7681,-4.7888,-4.807,-4.8246,-4.8286,-4.8324,-4.8324,-4.8324,-4.8324,-4.8324,-4.8324,-4.8324,-4.8324,-4.8324,-4.8324,-4.8325,-4.8438,-4.8767,-4.9252,-4.9731,-4.9967,-5.0044,-5.0018,-4.98,-4.948,-4.909,-4.8838,-4.8587,-4.8382,-4.8324,-4.8324,-4.8581,-4.9921,-5.0784,-5.1187,-5.2032,-5.2892,-5.3185,-5.3185,-5.3185,-5.3185,-5.3185,-5.3185,-5.3185,-5.3185,-5.3164,-5.3143,-5.3121,-5.3247,-5.338,-5.3735,-5.4088,-5.4224,-5.436,-5.4277,-5.4146,-5.4045,-5.3849,-5.375,-5.3684,-5.3651,-5.3551,-5.3518,-5.3518,-5.3518,-5.3518,-5.3518,-5.3518,-5.3518,-5.3518,-5.3518,-5.3518,-5.3518,-5.3518,-5.3467,-5.3433,-4.4485,-4.431,-4.4138,-4.3906,-4.3667,-4.3877,-4.408,-4.4281,-4.4281,-4.4384,-4.457,-4.4542,-4.4542,-4.457,-4.457,-4.457,-4.4598,-4.4598,-4.4598,-4.4666,-4.4767,-4.5246,-4.5889,-4.6583,-4.7073,-4.7276,-4.7597,-4.7902,-4.6989,-4.7225,-4.7192,-4.7204,-4.7848,-4.7243,-4.682,-4.6686,-4.6877,-4.6718,-4.688,-4.7341,-4.766,-4.7988,-4.8169,-4.8248,-4.8324,-4.8324,-4.8324,-4.8324,-4.8324,-4.8324,-4.8324,-4.8324,-4.8324,-4.8324,-4.8382,-4.8606,-4.901,-4.9442,-4.9838,-5.0018,-5.0012,-4.9959,-4.9717,-4.9435,-4.9137,-4.8819,-4.8587,-4.8401,-4.8324,-4.8324,-4.8545,-4.9682,-5.0784,-5.1499,-5.2325,-5.2818,-5.3112,-5.3185,-5.3185,-5.3185,-5.3185,-5.3185,-5.3185,-5.3185,-5.3185,-5.3185,-5.3143,-5.3093,-5.3212,-5.344,-5.3702,-5.385,-5.3969,-5.4074,-5.4063,-5.4171,-5.4013,-5.3882,-5.3783,-5.3717,-5.3618,-5.3518,-5.3518,-5.3518,-5.3518,-5.3518,-5.3518,-5.3518,-5.3518,-5.3518,-5.3518,-5.3518,-5.3518,-5.3518,-5.3467,-4.4468,-4.4281,-4.3889,-4.3565,-4.3248,-4.3096,-4.3309,-4.3756,-4.3919,-4.4051,-4.4241,-4.4241,-4.4298,-4.4367,-4.4367,-4.4468,-4.4525,-4.4598,-4.4598,-4.4733,-4.506,-4.5771,-4.6481,-4.7158,-4.7767,-4.8223,-4.8477,-4.8477,-4.8392,-4.8308,-4.8274,-4.8508,-4.8504,-4.7755,-4.7075,-4.6829,-4.6504,-4.6302,-4.6501,-4.7012,-4.7472,-4.7809,-4.8034,-4.8229,-4.8305,-4.8324,-4.8324,-4.8324,-4.8324,-4.8324,-4.8324,-4.8324,-4.8324,-4.8325,-4.8401,-4.8768,-4.9096,-4.9402,-4.9759,-4.983,-4.9797,-4.9731,-4.948,-4.9233,-4.9006,-4.882,-4.8587,-4.842,-4.8324,-4.8324,-4.8691,-4.9664,-5.0545,-5.1279,-5.2179,-5.2947,-5.3185,-5.3185,-5.3185,-5.3185,-5.3185,-5.3185,-5.3185,-5.3185,-5.3185,-5.3185,-5.3164,-5.3082,-5.304,-5.3235,-5.3405,-5.353,-5.3729,-5.3915,-5.4264,-5.4428,-5.419,-5.4013,-5.3882,-5.3767,-5.3584,-5.3518,-5.3518,-5.3518,-5.3518,-5.3518,-5.3518,-5.3518,-5.3518,-5.3518,-5.3518,-5.3518,-5.3518,-5.3518,-5.3467,-4.4457,-4.4167,-4.368,-4.3111,-4.2522,-4.2381,-4.2633,-4.3127,-4.3565,-4.3818,-4.3964,-4.3993,-4.4023,-4.4093,-4.4196,-4.4327,-4.4468,-4.457,-4.4598,-4.4784,-4.5399,-4.6041,-4.6802,-4.7581,-4.8223,-4.8765,-4.9018,-4.8883,-4.9018,-4.9018,-4.8968,-4.8917,-4.9018,-4.8118,-4.7305,-4.6885,-4.6515,-4.6204,-4.6235,-4.6737,-4.7218,-4.7687,-4.7974,-4.8229,-4.8305,-4.8324,-4.8324,-4.8324,-4.8324,-4.8324,-4.8324,-4.8324,-4.8325,-4.8382,-4.8513,-4.8839,-4.9079,-4.9324,-4.957,-4.9551,-4.9551,-4.9472,-4.922,-4.9006,-4.8854,-4.8697,-4.8532,-4.8344,-4.8343,-4.8434,-4.9022,-4.9646,-5.0233,-5.0857,-5.1977,-5.3075,-5.3185,-5.3185,-5.3185,-5.3185,-5.3185,-5.3185,-5.3185,-5.3185,-5.3185,-5.3185,-5.3185,-5.3164,-5.3032,-5.299,-5.3153,-5.3292,-5.3554,-5.3818,-5.4126,-5.4316,-5.4119,-5.3895,-5.3849,-5.3701,-5.3568,-5.3518,-5.3518,-5.3518,-5.3518,-5.3518,-5.3518,-5.3518,-5.3518,-5.3518,-5.3518,-5.3518,-5.3518,-5.3518,-5.3467,-4.4384,-4.4039,-4.3459,-4.2585,-4.172,-4.1817,-4.2141,-4.2509,-4.3319,-4.3678,-4.3776,-4.3826,-4.3859,-4.3864,-4.3993,-4.4167,-4.4355,-4.4497,-4.475,-4.4733,-4.5602,-4.6346,-4.7056,-4.7682,-4.846,-4.8849,-4.9018,-4.9018,-4.9018,-4.9018,-4.9018,-4.9018,-4.9018,-4.8369,-4.7437,-4.71,-4.6728,-4.636,-4.6309,-4.6643,-4.7218,-4.7627,-4.7953,-4.8248,-4.8324,-4.8324,-4.8324,-4.8324,-4.8324,-4.8324,-4.8324,-4.8324,-4.8363,-4.8458,-4.8605,-4.8767,-4.8978,-4.9146,-4.9273,-4.9273,-4.926,-4.916,-4.901,-4.8803,-4.8678,-4.8606,-4.8457,-4.8363,-4.8324,-4.8324,-4.8765,-4.9811,-5.06,-5.1206,-5.2087,-5.2892,-5.3185,-5.3185,-5.3185,-5.3185,-5.3185,-5.3185,-5.3185,-5.3185,-5.3185,-5.3185,-5.3185,-5.3203,-5.3118,-5.2937,-5.301,-5.3124,-5.3238,-5.3444,-5.3535,-5.3694,-5.3815,-5.371,-5.3647,-5.3668,-5.3517,-5.3501,-5.3518,-5.3518,-5.3518,-5.3518,-5.3518,-5.3518,-5.3518,-5.3518,-5.3518,-5.3518,-5.3518,-5.3467,-5.3365,-4.44,-4.3964,-4.2881,-4.2077,-4.1621,-4.167,-4.2029,-4.2619,-4.3517,-4.3809,-4.3614,-4.3913,-4.3894,-4.3674,-4.3802,-4.4006,-4.4281,-4.4502,-4.4942,-4.5432,-4.6109,-4.6769,-4.7597,-4.8257,-4.8765,-4.8917,-4.9018,-4.9018,-4.9018,-4.9018,-4.9018,-4.9018,-4.8984,-4.8501,-4.7826,-4.7476,-4.7107,-4.6879,-4.6825,-4.7014,-4.7555,-4.7723,-4.7935,-4.819,-4.8324,-4.8324,-4.8324,-4.8324,-4.8324,-4.8324,-4.8324,-4.8324,-4.8324,-4.8457,-4.8532,-4.866,-4.8803,-4.8943,-4.8995,-4.8976,-4.8943,-4.8874,-4.8732,-4.8606,-4.8532,-4.8494,-4.8457,-4.8363,-4.8324,-4.8324,-4.8673,-4.9866,-5.0894,-5.1499,-5.2179,-5.269,-5.3185,-5.3185,-5.3185,-5.3185,-5.3185,-5.3185,-5.3185,-5.3185,-5.3185,-5.3185,-5.3185,-5.3185,-5.3164,-5.305,-5.3054,-5.3099,-5.2924,-5.3033,-5.3038,-5.3107,-5.3215,-5.3319,-5.3292,-5.3347,-5.3484,-5.3501,-5.3518,-5.3518,-5.3518,-5.3518,-5.3518,-5.3518,-5.3518,-5.3518,-5.3518,-5.3518,-5.3399,-5.3348,-5.3212,-4.4429,-4.4051,-4.2834,-4.2045,-4.175,-4.2086,-4.259,-4.3249,-4.4495,-4.4847,-4.4391,-4.4222,-4.3848,-4.3515,-4.3625,-4.3973,-4.4308,-4.4485,-4.4998,-4.572,-4.6532,-4.7158,-4.7936,-4.8663,-4.8866,-4.9018,-4.9018,-4.9018,-4.9018,-4.9018,-4.9018,-4.9018,-4.8951,-4.8782,-4.8306,-4.8003,-4.7909,-4.7988,-4.7747,-4.7921,-4.8185,-4.8084,-4.803,-4.8209,-4.8324,-4.8324,-4.8324,-4.8324,-4.8324,-4.8324,-4.8324,-4.8324,-4.8343,-4.8438,-4.8513,-4.8569,-4.866,-4.8732,-4.875,-4.8715,-4.8679,-4.8606,-4.8513,-4.842,-4.842,-4.8382,-4.8382,-4.8306,-4.8324,-4.8324,-4.8765,-4.9738,-5.0527,-5.1187,-5.2197,-5.302,-5.3185,-5.3185,-5.3185,-5.3185,-5.3185,-5.3185,-5.3185,-5.3185,-5.3185,-5.3185,-5.3185,-5.3185,-5.3164,-5.3124,-5.3134,-5.3028,-5.285,-5.2554,-5.2404,-5.251,-5.2649,-5.2755,-5.2869,-5.3144,-5.3331,-5.345,-5.3518,-5.3518,-5.3518,-5.3518,-5.3518,-5.3518,-5.3518,-5.3518,-5.3518,-5.3518,-5.3382,-5.323,-5.2903,-4.444,-4.4064,-4.3117,-4.2398,-4.1991,-4.2874,-4.354,-4.4139,-4.5636,-4.614,-4.5636,-4.4766,-4.3969,-4.3711,-4.377,-4.4085,-4.4511,-4.5115,-4.5522,-4.6143,-4.6752,-4.7547,-4.8173,-4.8697,-4.8917,-4.9018,-4.9018,-4.9018,-4.9018,-4.9018,-4.9018,-4.9018,-4.9006,-4.8923,-4.8814,-4.8819,-4.887,-4.9111,-4.9144,-4.9311,-4.9016,-4.8496,-4.8329,-4.8301,-4.8324,-4.8324,-4.8324,-4.8324,-4.8324,-4.8324,-4.8324,-4.8324,-4.8306,-4.8382,-4.8438,-4.8476,-4.8495,-4.855,-4.855,-4.8513,-4.8494,-4.8457,-4.8363,-4.8306,-4.8306,-4.8306,-4.8306,-4.8306,-4.8324,-4.8453,-4.8893,-4.9627,-5.038,-5.1096,-5.2234,-5.3167,-5.3185,-5.3185,-5.3185,-5.3185,-5.3185,-5.3185,-5.3185,-5.3185,-5.3185,-5.3185,-5.3185,-5.3185,-5.3185,-5.3164,-5.3142,-5.2958,-5.275,-5.2404,-5.1913,-5.1964,-5.2114,-5.2138,-5.2289,-5.2771,-5.3213,-5.3399,-5.3518,-5.3518,-5.3518,-5.3484,-5.3501,-5.3518,-5.3518,-5.3518,-5.3518,-5.3467,-5.3382,-5.3161,-5.2626,-4.427,-4.37,-4.3468,-4.3218,-4.3035,-4.3709,-4.4348,-4.5,-4.593,-4.6205,-4.6129,-4.6073,-4.5699,-4.5305,-4.5443,-4.5617,-4.5652,-4.6022,-4.6739,-4.7513,-4.7432,-4.8071,-4.8595,-4.8849,-4.8968,-4.9018,-4.9018,-4.9018,-4.9018,-4.9018,-4.9001,-4.9001,-4.9155,-4.9278,-4.948,-4.9507,-4.9627,-5.0004,-5.0142,-5.0148,-5.0122,-4.9555,-4.8811,-4.856,-4.8324,-4.8324,-4.8324,-4.8324,-4.8324,-4.8324,-4.8324,-4.8324,-4.8324,-4.8325,-4.8363,-4.84,-4.8401,-4.8401,-4.8401,-4.8401,-4.8382,-4.8363,-4.8324,-4.8324,-4.8324,-4.8324,-4.8324,-4.8324,-4.8324,-4.8324,-4.8802,-4.9958,-5.082,-5.1408,-5.2307,-5.2892,-5.3185,-5.3185,-5.3185,-5.3185,-5.3185,-5.3185,-5.3185,-5.3185,-5.3185,-5.3185,-5.3185,-5.3185,-5.3185,-5.3164,-5.3143,-5.2933,-5.2707,-5.1961,-5.1379,-5.1487,-5.1603,-5.1586,-5.176,-5.2312,-5.2874,-5.3399,-5.3484,-5.3264,-5.3348,-5.3416,-5.345,-5.3518,-5.3518,-5.3518,-5.3518,-5.3467,-5.3382,-5.311,-5.259]},{"header":{"parameterUnit":"m.s-1","parameterCategory":1,"la1":31.0,"la2":29.5877,"lo1":-88.7671,"lo2":-86.6584,"dx":0.0162,"dy":0.0185,"nx":115,"ny":88,"refTime":"2023-01-02T06:00:00:Z","depth":0,"parameterNumber":3,"parameterNumberName":"V-component_of_WINDS"},"data":[0.0,0.0,0.0,0.0,0.0,0.0,0.0,0.0,0.0,0.0,0.0,0.0,0.0,0.0,0.0,0.0,0.0,0.0,0.0,0.0,0.0,0.0,0.0,0.0,0.0,0.0,0.0,0.0,0.0,0.0,0.0,0.0,0.0,0.0,0.0,0.0,0.0,0.0,0.0,0.0,0.0,0.3039,0.3335,0.3765,0.4058,0.4436,0.487,0.0,0.0,0.0,0.0,0.0,0.0,0.0,0.0,0.0,0.0,0.0,0.0,0.0,0.0,0.0,0.0,0.0,0.0,0.0,0.0,0.0,0.0,0.0,0.0,0.0,0.0,0.0,0.0,0.0,0.0,0.0,0.0,0.0,0.0,0.0,0.0,0.0,0.0,0.0,0.0,0.0,0.0,0.0,0.0,0.0,0.0,0.0,0.0,0.0,0.0,0.0,0.0,0.0,0.0,0.0,0.0,0.0,0.0,0.0,0.0,0.0,0.0,0.0,0.0,0.0,0.0,0.0,0.0,0.0,0.0,0.0,0.0,0.0,0.0,0.0,0.0,0.0,0.0,0.0,0.0,0.0,0.0,0.0,0.0,0.0,0.0,0.0,0.0,0.0,0.0,0.0,0.0,0.0,0.0,0.0,0.0,0.0,0.0,0.0,0.0,0.0,0.0,0.0,0.0,0.0,0.0,0.0,0.0,0.0,0.0,0.3438,0.3891,0.4237,0.4608,0.5023,0.0,0.0,0.0,0.0,0.0,0.0,0.0,0.0,0.0,0.0,0.0,0.0,0.0,0.0,0.0,0.0,0.0,0.0,0.0,0.0,0.0,0.0,0.0,0.0,0.0,0.0,0.0,0.0,0.0,0.0,0.0,0.0,0.0,0.0,0.0,0.0,0.0,0.0,0.0,0.0,0.0,0.0,0.0,0.0,0.0,0.0,0.0,0.0,0.0,0.0,0.0,0.0,0.0,0.0,0.0,0.0,0.0,0.0,0.0,0.0,0.0,0.0,0.0,0.0,0.0,0.0,0.0,0.0,0.0,0.0,0.0,0.0,0.0,0.0,0.0,0.0,0.0,0.0,0.0,0.0,0.0,0.0,0.0,0.0,0.0,0.0,0.0,0.0,0.0,0.0,0.0,0.0,0.0,0.0,0.0,0.0,0.0,0.0,0.0,0.0,0.0,0.0,0.0,0.0,0.0,0.0,0.0,0.0,0.0,0.0,0.3455,0.3961,0.4366,0.4788,0.528,0.0,0.0,0.0,0.0,0.0,0.0,0.0,0.0,0.0,0.0,0.0,0.0,0.0,0.0,0.0,0.0,0.0,0.0,0.0,0.0,0.0,0.0,0.0,0.0,0.0,0.0,0.0,0.0,0.0,0.0,0.0,0.0,0.0,0.0,0.0,0.0,0.0,0.0,0.0,0.0,0.0,0.0,0.0,0.0,0.0,0.0,0.0,0.0,0.0,0.0,0.0,0.0,0.0,0.0,0.0,0.0,0.0,0.0,0.0,0.0,0.0,0.0,0.0,0.0,0.0,0.0,0.0,0.0,0.0,0.0,0.0,0.0,0.0,0.0,0.0,0.0,0.0,0.0,0.0,0.0,0.0,0.0,0.0,0.0,0.0,0.0,0.0,0.0,0.0,0.0,0.0,0.0,0.0,0.0,0.0,0.0,0.0,0.0,0.0,0.0,0.0,0.0,0.0,0.0,0.0,0.0,0.0,0.0,0.0,0.0,0.3548,0.4042,0.4505,0.4953,0.5421,0.5889,0.0,0.0,0.0,0.0,0.0,0.0,0.0,0.0,0.0,0.0,0.0,0.0,0.0,0.0,0.0,0.0,0.0,0.0,0.0,0.0,0.0,0.0,0.0,0.0,0.0,0.0,0.0,0.0,0.0,0.0,0.0,0.0,0.0,0.0,0.0,0.0,0.0,0.0,0.0,0.0,0.0,0.0,0.0,0.0,0.0,0.0,0.0,0.0,0.0,0.0,0.0,0.0,0.0,0.0,0.0,0.0,0.0,0.0,0.0,0.0,0.0,0.0,0.0,0.0,0.0,0.0,0.0,0.0,0.0,0.0,0.0,0.0,0.0,0.0,0.0,0.0,0.0,0.0,0.0,0.0,0.0,0.0,0.0,0.0,0.0,0.0,0.0,0.0,0.0,0.0,0.0,0.0,0.0,0.0,0.0,0.0,0.0,0.0,0.0,0.0,0.0,0.0,0.0,0.0,0.0,0.0,0.0,0.0,0.0,0.3744,0.4156,0.4666,0.5137,0.5561,0.6145,0.0,0.0,0.0,0.0,0.0,0.0,0.0,0.0,0.0,0.0,0.0,0.0,0.0,0.0,0.0,0.0,0.0,0.0,0.0,0.0,0.0,0.0,0.0,0.0,0.0,0.0,0.0,0.0,0.0,0.0,0.0,0.0,0.0,0.0,0.0,0.0,0.0,0.0,0.0,0.0,0.0,0.0,0.0,0.0,0.0,0.0,0.0,0.0,0.0,0.0,0.0,0.0,0.0,0.0,0.0,0.0,0.0,0.0,0.0,0.0,0.0,0.0,0.0,0.0,0.0,0.0,0.0,0.0,0.0,0.0,0.0,0.0,0.0,0.0,0.0,0.0,0.0,0.0,0.0,0.0,0.0,0.0,0.0,0.0,0.0,0.0,0.0,0.0,0.0,0.0,0.0,0.0,0.0,0.0,0.0,0.0,0.0,0.0,0.0,0.0,0.0,0.0,0.0,0.0,0.0,0.0,0.0,0.0,0.0,0.4032,0.4419,0.4938,0.5428,0.5928,0.6777,0.0,0.0,0.0,0.0,0.0,0.0,0.0,0.0,0.0,0.0,0.0,0.0,0.0,0.0,0.0,0.0,0.0,0.0,0.0,0.0,0.0,0.0,0.0,0.0,0.0,0.0,0.0,0.0,0.0,0.0,0.0,0.0,0.0,0.0,0.0,0.0,0.0,0.0,0.0,0.0,0.0,0.0,0.0,0.0,0.0,0.0,0.0,0.0,0.0,0.0,0.0,0.0,0.0,0.0,0.0,0.0,0.0,0.0,0.0,0.0,0.0,0.0,0.0,0.0,0.0,0.0,0.0,0.0,0.0,0.0,0.0,0.0,0.0,0.0,0.0,0.0,0.0,0.0,0.0,0.0,0.0,0.0,0.0,0.0,0.0,0.0,0.0,0.0,0.0,0.0,0.0,0.0,0.0,0.0,0.0,0.0,0.0,0.0,0.0,0.0,0.0,0.0,0.0,0.0,0.0,0.0,0.0,0.0,0.0,0.4328,0.4746,0.5217,0.5672,0.6215,0.7051,0.0,0.0,0.0,0.0,0.0,0.0,0.0,0.0,0.0,0.0,0.0,0.0,0.0,0.0,0.0,0.0,0.0,0.0,0.0,0.0,0.0,0.0,0.0,0.0,0.0,0.0,0.0,0.0,0.0,0.0,0.0,0.0,0.0,0.0,0.0,0.0,0.0,0.0,0.0,0.0,0.0,0.0,0.0,0.0,0.0,0.0,0.0,0.0,0.0,0.0,0.0,0.0,0.0,0.0,0.0,0.0,0.0,0.0,0.0,0.0,0.0,0.0,0.0,0.0,0.0,0.0,0.0,0.0,0.0,0.0,0.0,0.0,0.0,0.0,0.0,0.0,0.0,0.0,0.0,0.0,0.0,0.0,0.0,0.0,0.0,0.0,0.0,0.0,0.0,0.0,0.0,0.0,0.0,0.0,0.0,0.0,0.0,0.0,0.0,0.0,0.0,0.0,0.0,0.0,0.0,0.0,0.0,0.0,0.4415,0.4672,0.5071,0.5446,0.5921,0.6482,0.7242,0.0,0.0,0.0,0.0,0.0,0.0,0.0,0.0,0.0,0.0,0.0,0.0,0.0,0.0,0.0,0.0,0.0,0.0,0.0,0.0,0.0,0.0,0.0,0.0,0.0,0.0,0.0,0.0,0.0,0.0,0.0,0.0,0.0,0.0,0.0,0.0,0.0,0.0,0.0,0.0,0.0,0.0,0.0,0.0,0.0,0.0,0.0,0.0,0.0,0.0,0.0,0.0,0.0,0.0,0.0,0.0,0.0,0.0,0.0,0.0,0.0,0.0,0.0,0.0,0.0,0.0,0.0,0.0,0.0,0.0,0.0,0.0,0.0,0.0,0.0,0.0,0.0,0.0,0.0,0.0,0.0,0.0,0.0,0.0,0.0,0.0,0.0,0.0,0.0,0.0,0.0,0.0,0.0,0.0,0.0,0.0,0.0,0.0,0.0,0.0,0.0,0.0,0.0,0.0,0.0,0.0,0.0,0.4538,0.473,0.4985,0.5343,0.568,0.6168,0.6809,0.7544,0.0,0.0,0.0,0.0,0.0,0.0,0.0,0.0,0.0,0.0,0.0,0.0,0.0,0.0,0.0,0.0,0.0,0.0,0.0,0.0,0.0,0.0,0.0,0.0,0.0,0.0,0.0,0.0,0.0,0.0,0.0,0.0,0.0,0.0,0.0,0.0,0.0,0.0,0.0,0.0,0.0,0.0,0.0,0.0,0.0,0.0,0.0,0.0,0.0,0.0,0.0,0.0,0.0,0.0,0.0,0.0,0.0,0.0,0.0,0.0,0.0,0.0,0.0,0.0,0.0,0.0,0.0,0.0,0.0,0.0,0.0,0.0,0.0,0.0,0.0,0.0,0.0,0.0,0.0,0.0,0.0,0.0,0.0,0.0,0.0,0.0,0.0,0.0,0.0,0.0,0.0,0.0,0.0,0.0,0.0,0.0,0.0,0.0,0.0,0.0,0.0,0.0,0.0,0.0,0.0,0.0,0.4656,0.4922,0.5017,0.5255,0.5609,0.5835,0.6291,0.6999,0.7934,0.0,0.0,0.0,0.0,0.0,0.0,0.0,0.0,0.0,0.0,0.0,0.0,0.0,0.0,0.0,0.0,0.0,0.0,0.0,0.0,0.0,0.0,0.0,0.0,0.0,0.0,0.0,0.0,0.0,0.0,0.0,0.0,0.0,0.0,0.0,0.0,0.0,0.0,0.0,0.0,0.0,0.0,0.0,0.0,0.0,0.0,0.0,0.0,0.0,0.0,0.0,0.0,0.0,0.0,0.0,0.0,0.0,0.0,0.0,0.0,0.0,0.0,0.0,0.0,0.0,0.0,0.0,0.0,0.0,0.0,0.0,0.0,0.0,0.0,0.0,0.0,0.0,0.0,0.0,0.0,0.0,0.0,0.0,0.0,0.0,0.0,0.0,0.0,0.0,0.0,0.0,0.0,0.0,0.0,0.0,0.0,0.0,0.0,0.0,0.0,0.0,0.0,0.0,0.0,0.0,0.0,0.489,0.5192,0.5223,0.5397,0.578,0.592,0.6382,0.7214,0.0,0.0,0.0,0.0,0.0,0.0,0.0,0.0,0.0,0.0,0.0,0.0,0.0,0.0,0.0,0.0,0.0,0.0,0.0,0.0,0.0,0.0,0.0,0.0,0.0,0.0,0.0,0.0,0.0,0.0,0.0,0.0,0.0,0.0,0.0,0.0,0.0,0.0,0.0,0.0,0.0,0.0,0.0,0.0,0.0,0.0,0.0,0.0,0.0,0.0,0.0,0.0,0.0,0.0,0.0,0.0,0.0,0.0,0.0,0.0,0.0,0.0,0.0,0.0,0.0,0.0,0.0,0.0,0.0,0.0,0.0,0.0,0.0,0.0,0.0,0.0,0.0,0.0,0.0,0.0,0.0,0.0,0.0,0.0,0.0,0.0,0.0,0.0,0.0,0.0,0.0,0.0,0.0,0.0,0.0,0.0,0.0,0.0,0.0,0.0,0.0,0.0,0.0,0.0,0.0,0.0,0.0,0.5176,0.5277,0.5293,0.5458,0.578,0.5936,0.652,0.7603,0.0,0.0,0.0,0.0,0.0,0.0,0.0,0.0,0.0,0.0,0.0,0.0,0.0,0.0,0.0,0.0,0.0,0.0,0.0,0.0,0.0,0.0,0.0,0.0,0.0,0.0,0.0,0.0,0.0,0.0,0.0,0.0,0.0,0.0,0.0,0.0,0.0,0.0,0.0,0.0,0.0,0.0,0.0,0.0,0.0,0.0,0.0,0.0,0.0,0.0,0.0,0.0,0.0,0.0,0.0,0.0,0.0,0.0,0.0,0.0,0.0,0.0,0.0,0.0,0.0,0.0,0.0,0.0,0.0,0.0,0.0,0.0,0.0,0.0,0.0,0.0,0.0,0.0,0.0,0.0,0.0,0.0,0.0,0.0,0.0,0.0,0.0,0.0,0.0,0.0,0.0,0.0,0.0,0.0,0.0,0.0,0.0,0.0,0.0,0.0,0.0,0.0,0.0,0.0,0.0,0.0,0.523,0.5293,0.5347,0.5363,0.5659,0.6269,0.6874,0.7503,0.8163,0.0,0.0,0.0,0.0,0.0,0.0,0.0,0.0,0.0,0.0,0.0,0.0,0.0,0.0,0.0,0.0,0.0,0.0,0.0,0.0,0.0,0.0,0.0,0.0,0.0,0.0,0.0,0.0,0.0,0.0,0.0,0.0,0.0,0.0,0.0,0.0,0.0,0.0,0.0,0.0,0.0,0.0,0.0,0.0,0.0,0.0,0.0,0.0,0.0,0.0,0.0,0.0,0.0,0.0,0.0,0.0,0.0,0.0,0.0,0.0,0.0,0.0,0.0,0.0,0.0,0.0,0.0,0.0,0.0,0.0,0.0,0.0,0.0,0.0,0.0,0.0,0.0,0.0,0.0,0.0,0.0,0.0,0.0,0.0,0.0,0.0,0.0,0.0,0.0,0.0,0.0,0.0,0.0,0.0,0.0,0.0,0.0,0.0,0.0,0.0,0.0,0.0,0.0,0.0,0.0,0.5404,0.5417,0.5426,0.5487,0.5595,0.6004,0.6726,0.7605,0.8162,0.8349,0.0,0.0,0.0,0.0,0.0,0.0,0.0,0.0,0.0,0.0,0.0,0.0,0.0,0.0,0.0,0.0,0.0,0.0,0.0,0.0,0.0,0.0,0.0,0.0,0.0,0.0,0.0,0.0,0.0,0.0,0.0,0.0,0.0,0.0,0.0,0.0,0.0,0.0,0.0,0.0,0.0,0.0,0.0,0.0,0.0,0.0,0.0,0.0,0.0,0.0,0.0,0.0,0.0,0.0,0.0,0.0,0.0,0.0,0.0,0.0,0.0,0.0,0.0,0.0,0.0,0.0,0.0,0.0,0.0,0.0,0.0,0.0,0.0,0.0,0.0,0.0,0.0,0.0,0.0,0.0,0.0,0.0,0.0,0.0,0.0,0.0,0.0,0.0,0.0,0.0,0.0,0.0,0.0,0.0,0.0,0.0,0.0,0.0,0.0,0.0,0.0,0.0,0.0,0.0,0.0,0.0,0.5676,0.5676,0.5676,0.6078,0.6534,0.7082,0.7872,0.82,0.8054,0.0,0.0,0.0,0.0,0.0,0.0,0.0,0.0,0.0,0.0,0.0,0.0,0.0,0.0,0.0,0.0,0.0,0.0,0.0,0.0,0.0,0.0,0.0,0.0,0.0,0.0,0.0,0.0,0.0,0.0,0.0,0.0,0.0,0.0,0.0,0.0,0.0,0.0,0.0,0.0,0.0,0.0,0.0,0.0,0.0,0.0,0.0,0.0,0.0,0.0,0.0,0.0,0.0,0.0,0.0,0.0,0.0,0.0,0.0,0.0,0.0,0.0,0.0,0.0,0.0,0.0,0.0,0.0,0.0,0.0,0.0,0.0,0.0,0.0,0.0,0.0,0.0,0.0,0.0,0.0,0.0,0.0,0.0,0.0,0.0,0.0,0.0,0.0,0.0,0.0,0.0,0.0,0.0,0.0,0.0,0.0,0.0,0.0,0.0,0.0,0.0,0.0,0.0,0.0,0.0,0.0,0.5642,0.5569,0.5628,0.6762,0.7499,0.7817,0.846,0.8738,0.8611,0.0,0.0,0.0,0.0,0.0,0.0,0.0,0.0,0.0,0.0,0.0,0.0,0.0,0.0,0.0,0.0,0.0,0.0,0.0,0.0,0.0,0.0,0.0,0.0,0.0,0.0,0.0,0.0,0.0,0.0,0.0,0.0,0.0,0.0,0.0,0.0,0.0,0.0,0.0,0.0,0.0,0.0,0.0,0.0,0.0,0.0,0.0,0.0,0.0,0.0,0.0,0.0,0.0,0.0,0.0,0.0,0.0,0.0,0.0,0.0,0.0,0.0,0.0,0.0,0.0,0.0,0.0,0.0,0.0,0.0,0.0,0.0,0.0,0.0,0.0,0.0,0.0,0.0,0.0,0.0,0.0,0.0,0.0,0.0,0.0,0.0,0.0,0.0,0.0,0.0,0.0,0.0,0.0,0.0,0.0,0.0,0.0,0.0,0.0,0.0,0.0,0.0,0.0,0.0,0.0,0.0,0.5701,0.5817,0.6229,0.7552,0.8353,0.854,0.8933,0.9119,0.0,0.0,0.0,0.0,0.0,0.0,0.0,0.0,0.0,0.0,0.0,0.0,0.0,0.0,0.0,0.0,0.0,0.0,0.0,0.0,0.0,0.0,0.0,0.0,0.0,0.0,0.0,0.0,0.0,0.0,0.0,0.0,0.0,0.0,0.0,0.0,0.0,0.0,0.0,0.0,0.0,0.0,0.0,0.0,0.0,0.0,0.0,0.0,0.0,0.0,0.0,0.0,0.0,0.0,0.0,0.0,0.0,0.0,0.0,0.0,0.0,0.0,0.0,0.0,0.0,0.0,0.0,0.0,0.0,0.0,0.0,0.0,0.0,0.0,0.0,0.0,0.0,0.0,0.0,0.0,0.0,0.0,0.0,0.0,0.0,0.0,0.0,0.0,0.0,0.0,0.0,0.0,0.0,0.0,0.0,0.0,0.0,0.0,0.0,0.0,0.0,0.0,0.0,0.0,0.0,0.0,0.0,0.5916,0.6422,0.764,0.8402,0.892,0.9189,0.93,0.9287,0.0,0.0,0.0,0.0,0.0,0.0,0.0,0.0,0.0,0.0,0.0,0.0,0.0,0.0,0.0,0.0,0.0,0.0,0.0,0.0,0.0,0.0,0.0,0.0,0.0,0.0,0.0,0.0,0.0,0.0,0.0,0.0,0.0,0.0,0.0,0.0,0.0,0.0,0.0,0.0,0.0,0.0,0.0,0.0,0.0,0.0,0.0,0.0,0.0,0.0,0.0,0.0,0.0,0.0,0.0,0.0,0.0,0.0,0.0,0.0,0.0,0.0,0.0,0.0,0.0,0.0,0.0,0.0,0.0,0.0,0.0,0.0,0.0,0.0,0.0,0.0,0.0,0.0,0.0,0.0,0.0,0.0,0.0,0.0,0.0,0.0,0.0,0.0,0.0,0.0,0.0,0.0,0.0,0.0,0.0,0.0,0.0,0.0,0.0,0.0,0.0,0.0,0.0,0.0,0.0,0.0,0.0,0.6827,0.7352,0.816,0.886,0.9385,0.9666,1.0016,0.9887,0.9323,0.0,0.0,0.0,0.0,0.0,0.0,0.0,0.0,0.0,0.0,0.0,0.0,0.0,0.0,0.0,0.0,0.0,0.0,0.0,0.0,0.0,0.0,0.0,0.0,0.0,0.0,0.0,0.0,0.0,0.0,0.0,0.0,0.0,0.0,0.0,0.0,0.0,0.0,0.0,0.0,0.0,0.0,0.0,0.0,0.0,0.0,0.0,0.0,0.0,0.0,0.0,0.0,0.0,0.0,0.0,0.0,0.0,0.0,0.0,0.0,0.0,0.0,0.0,0.0,0.0,0.0,0.0,0.0,0.0,0.0,0.0,0.0,0.0,0.0,0.0,0.0,0.0,0.0,0.0,0.0,0.0,0.0,0.0,0.0,0.0,0.0,0.0,0.0,0.0,0.0,0.0,0.0,0.0,0.0,0.0,0.0,0.0,0.0,0.0,0.0,0.0,0.0,0.0,0.0,0.0,0.0,0.748,0.817,0.9116,0.9598,1.007,1.0548,1.0714,1.0605,1.0206,0.0,0.0,0.0,0.0,0.0,0.0,0.0,0.0,0.0,0.0,0.0,0.0,0.0,0.0,0.0,0.0,0.0,0.0,0.0,0.0,0.0,0.0,0.0,0.0,0.0,0.0,0.0,0.0,0.0,0.0,0.0,0.0,0.0,0.0,0.0,0.0,0.0,0.0,0.0,0.0,0.0,0.0,0.0,0.0,0.0,0.0,0.0,0.0,0.0,0.0,0.0,0.0,0.0,0.0,0.0,0.0,0.0,0.0,0.0,0.0,0.0,0.0,0.0,0.0,0.0,0.0,0.0,0.0,0.0,0.0,0.0,0.0,0.0,0.0,0.0,0.0,0.0,0.0,0.0,0.0,0.0,0.0,0.0,0.0,0.0,0.0,0.0,0.0,0.0,0.0,0.0,0.0,0.0,0.0,0.0,0.0,0.0,0.0,0.0,0.0,0.0,0.0,0.0,0.0,0.0,0.0,0.0,0.8926,1.0417,1.0623,1.1059,1.1757,1.1439,1.1408,1.1641,0.0,0.0,0.0,0.0,0.0,0.0,0.0,0.0,0.0,0.0,0.0,0.0,0.0,0.0,0.0,0.0,0.0,0.0,0.0,0.0,0.0,0.0,0.0,0.0,0.0,0.0,0.0,0.0,0.0,0.0,0.0,0.0,0.0,0.0,0.0,0.0,0.0,0.0,0.0,0.0,0.0,0.0,0.0,0.0,0.0,0.0,0.0,0.0,0.0,0.0,0.0,0.0,0.0,0.0,0.0,0.0,0.0,0.0,0.0,0.0,0.0,0.0,0.0,0.0,0.0,0.0,0.0,0.0,0.0,0.0,0.0,0.0,0.0,0.0,0.0,0.0,0.0,0.0,0.0,0.0,0.0,0.0,0.0,0.0,0.0,0.0,0.0,0.0,0.0,0.0,0.0,0.0,0.0,0.0,0.0,0.0,0.0,0.0,0.0,0.0,0.0,0.0,0.0,0.0,0.0,0.0,0.8806,0.9677,1.0954,1.1797,1.2373,1.266,1.2834,1.2662,1.2099,0.0,0.0,0.0,0.0,0.0,0.0,0.0,0.0,0.0,0.0,0.0,0.0,0.0,0.0,0.0,0.0,0.0,0.0,0.0,0.0,0.0,0.0,0.0,0.0,0.0,0.0,0.0,0.0,0.0,0.0,0.0,0.0,0.0,0.0,0.0,0.0,0.0,0.0,0.0,0.0,0.0,0.0,0.0,0.0,0.0,0.0,0.0,0.0,0.0,0.0,0.0,0.0,0.0,0.0,0.0,0.0,0.0,0.0,0.0,0.0,0.0,0.0,0.0,0.0,0.0,0.0,0.0,0.0,0.0,0.0,0.0,0.0,0.0,0.0,0.0,0.0,0.0,0.0,0.0,0.0,0.0,0.0,0.0,0.0,0.0,0.0,0.0,0.0,0.0,0.0,0.0,0.0,0.0,0.0,0.0,0.0,0.0,0.0,0.0,0.0,0.0,0.0,0.0,0.0,0.0,0.0,0.9439,1.0482,1.2179,1.3129,1.3966,1.4681,1.4331,1.396,1.3521,0.0,0.0,0.0,0.0,0.0,0.0,0.0,0.0,0.0,0.0,0.0,0.0,0.0,0.0,0.0,0.0,0.0,0.0,0.0,0.0,0.0,0.0,0.0,0.0,0.0,0.0,0.0,0.0,0.0,0.0,0.0,0.0,0.0,0.0,0.0,0.0,0.0,0.0,0.0,0.0,0.0,0.0,0.0,0.0,0.0,0.0,0.0,0.0,0.9599,0.0,0.0,0.0,0.0,0.0,0.0,0.0,0.0,0.0,0.0,0.0,0.0,0.0,0.0,0.0,0.0,0.0,0.0,0.0,0.0,0.0,0.0,0.0,0.0,0.0,0.0,0.0,0.0,0.0,0.0,0.0,0.0,0.0,0.0,0.0,0.0,0.0,0.0,0.0,0.0,0.0,0.0,0.0,0.0,0.0,0.0,0.0,0.0,0.0,0.0,0.0,0.0,0.0,0.0,0.0,0.7921,0.9516,1.0033,1.1363,1.3595,1.4482,1.5618,1.7056,1.5843,1.5215,1.5331,0.0,0.0,0.0,0.0,0.0,0.0,0.0,0.0,0.0,0.0,0.0,0.0,0.0,0.0,0.0,0.0,0.0,0.0,0.0,0.0,0.0,0.0,0.0,0.0,0.0,0.0,0.0,0.0,0.0,0.0,0.0,0.0,0.0,0.0,0.0,0.0,0.0,0.0,0.0,0.0,0.0,0.0,0.0,0.0,0.0,0.0,0.0,1.05,1.0324,0.0,0.0,0.0,0.0,0.0,0.0,0.0,0.0,0.0,0.0,0.0,0.0,0.0,0.0,0.0,0.0,0.0,0.0,0.0,0.0,0.0,0.0,0.0,0.0,0.0,0.0,0.0,0.5098,0.0,0.5832,0.0,0.0,0.0,0.0,0.0,0.0,0.0,0.0,0.0,0.0,0.0,0.0,0.0,0.0,0.0,0.0,0.0,0.0,0.0,0.0,0.0,0.0,0.0,0.0,0.7227,0.8361,0.9812,1.1117,1.2546,1.4041,1.5062,1.6364,1.8043,1.7165,1.6428,1.5947,0.0,0.0,0.0,0.0,0.0,0.0,0.0,0.0,0.0,0.0,0.0,0.0,0.0,0.0,0.0,0.0,0.0,0.0,0.0,0.0,0.0,0.0,0.0,0.0,0.0,0.0,0.0,0.0,0.0,0.0,0.0,0.0,0.0,0.0,0.0,0.0,0.0,0.0,0.0,0.0,0.0,0.0,0.0,0.0,0.0,0.0,0.0,1.0792,0.0,0.0,0.0,0.0,0.0,0.0,0.0,0.0,0.0,0.0,0.0,0.0,0.0,0.0,0.0,0.0,0.0,0.0,0.0,0.0,0.0,0.0,0.0,0.0,0.0,0.0,0.0,0.0,0.5098,0.5361,0.5812,0.0,0.0,0.0,0.0,0.0,0.0,0.0,0.0,0.0,0.0,0.0,0.0,0.0,0.0,0.0,0.0,0.0,0.0,0.0,0.0,0.0,0.0,0.0,0.6559,0.7381,0.8811,1.0757,1.217,1.372,1.5472,1.6426,1.7643,1.9076,1.8571,1.7864,1.7054,0.0,0.0,0.0,0.0,0.0,0.0,0.0,0.0,0.0,0.0,0.0,0.0,0.0,0.0,0.0,0.0,0.0,0.0,0.0,0.0,0.0,0.0,0.0,0.0,0.0,0.0,0.0,0.0,0.0,0.0,0.0,0.0,0.0,0.0,0.0,0.0,0.0,0.9278,1.0183,0.0,0.0,0.0,0.0,0.0,0.0,0.0,0.0,1.126,1.139,0.0,0.0,0.0,0.0,0.0,0.0,0.0,0.0,0.0,0.0,0.0,0.0,0.0,0.0,0.0,0.0,0.0,0.0,0.0,0.0,0.0,0.0,0.0,0.0,0.0,0.0,0.0,0.5098,0.5332,0.5714,0.0,0.0,0.0,0.0,0.0,0.0,0.0,0.0,0.0,0.0,0.0,0.0,0.0,0.0,0.0,0.0,0.0,0.0,0.0,0.0,0.0,0.0,0.0,0.6858,0.7608,0.9288,1.1843,1.3171,1.4901,1.7162,1.7997,1.9037,2.022,1.9899,1.9166,1.8119,0.0,0.0,0.0,0.0,0.0,0.0,0.0,0.0,0.0,0.0,0.0,0.0,0.0,0.0,0.0,0.0,0.0,0.0,0.0,0.0,0.0,0.0,0.0,0.0,0.0,0.0,0.0,0.0,0.0,0.0,0.0,0.0,0.0,0.0,0.0,0.0,0.0,0.9694,1.0689,1.2143,1.3371,0.0,0.0,0.0,0.0,0.0,0.0,0.0,1.1899,1.1779,1.1638,0.0,0.0,0.0,0.0,0.0,0.0,0.0,0.0,0.0,0.0,0.0,0.0,0.0,0.0,0.0,0.0,0.0,0.0,0.0,0.0,0.0,0.0,0.0,0.0,0.0,0.5098,0.5137,0.5263,0.0,0.0,0.0,0.0,0.0,0.0,0.0,0.0,0.0,0.0,0.0,0.0,0.0,0.0,0.0,0.0,0.0,0.0,0.0,0.0,0.0,0.0,0.0,0.0,0.8077,0.9847,1.231,1.4098,1.6044,1.8202,1.9057,1.995,2.0928,2.0667,1.9737,1.8067,1.6655,0.0,0.0,0.0,0.0,0.0,0.0,0.0,0.0,0.0,0.0,0.0,0.0,0.0,0.0,0.0,0.0,0.0,0.0,0.0,0.0,0.0,0.0,0.0,0.0,0.0,0.0,0.0,0.0,0.0,0.0,0.0,0.0,0.0,0.0,0.0,0.0,1.0294,1.2742,1.4208,1.4989,1.4849,0.0,0.0,0.0,0.0,0.0,1.2965,1.2852,1.2511,1.1799,1.1374,0.0,0.0,0.0,0.0,0.0,0.0,0.0,0.0,0.0,0.0,0.0,0.0,0.0,0.0,0.0,0.0,0.0,0.0,0.0,0.0,0.0,0.0,0.0,0.0,0.5098,0.5098,0.5137,0.5586,0.5792,0.0,0.0,0.0,0.0,0.5536,0.0,0.0,0.0,0.0,0.0,0.0,0.0,0.0,0.0,0.0,0.0,0.0,0.0,0.0,0.0,0.0,0.0,0.8745,1.0794,1.3442,1.543,1.7417,1.9355,2.0229,2.0859,2.1341,2.0611,1.9453,1.7833,0.0,0.0,0.0,0.0,0.0,0.0,0.0,0.0,0.0,0.0,0.0,0.0,0.0,0.0,0.0,0.0,0.0,0.0,0.0,0.0,0.0,0.0,0.0,0.0,0.0,0.0,0.0,0.0,0.0,0.0,0.0,0.0,0.0,0.0,0.0,0.0,0.0,0.0,1.3185,1.4892,1.5951,1.5891,1.6011,1.5746,1.4786,1.4312,1.4052,1.4166,1.356,1.3015,1.2767,0.0,0.0,0.0,0.0,0.0,0.0,0.0,0.0,0.0,0.0,0.0,0.0,0.0,0.0,0.0,0.0,0.0,0.0,0.0,0.0,0.0,0.0,0.0,0.0,0.0,0.0,0.5098,0.5117,0.5498,0.5666,0.5665,0.0,0.0,0.0,0.5293,0.5526,0.0,0.0,0.0,0.0,0.0,0.0,0.0,0.0,0.0,0.0,0.0,0.0,0.0,0.0,0.0,0.0,0.9289,1.1612,1.4495,1.6561,1.8538,2.041,2.1289,2.1644,2.1549,2.0556,1.9213,1.746,0.0,0.0,0.0,0.0,0.0,0.0,0.0,0.0,0.0,0.0,0.0,0.0,0.0,0.0,0.0,0.0,0.0,0.0,0.0,0.0,0.0,0.0,0.0,0.0,0.0,0.0,0.0,0.0,0.0,0.0,0.0,0.0,0.0,0.0,0.0,0.0,0.0,0.0,0.0,1.5152,1.6573,1.6896,1.7112,1.6976,1.6271,1.5599,1.5268,1.5466,1.4542,1.3786,0.0,0.0,0.0,0.0,0.0,0.0,0.0,0.0,0.0,0.0,0.0,0.0,0.0,0.0,0.0,0.0,0.0,0.0,0.0,0.0,0.0,0.0,0.5108,0.5098,0.0,0.0,0.5098,0.5098,0.5098,0.5176,0.5176,0.5195,0.5166,0.5195,0.0,0.5146,0.537,0.587,0.0,0.0,0.0,0.0,0.0,0.0,0.0,0.0,0.0,0.0,0.0,0.0,0.0,0.0,0.0,0.0,1.1745,1.4699,1.685,1.8961,2.1034,2.1951,2.2236,2.1848,2.1105,1.9502,1.7062,0.0,0.0,0.0,0.0,0.0,0.0,0.0,0.0,0.0,0.0,0.0,0.0,0.0,0.0,0.0,0.0,0.0,0.0,0.0,0.0,0.0,0.0,0.0,0.0,0.0,0.6514,0.0,0.0,0.0,0.0,0.0,0.0,0.0,0.0,0.0,0.0,0.0,0.0,0.0,0.0,1.6944,1.7655,1.8289,1.8358,1.7544,1.7243,1.709,1.6919,1.6236,1.5402,0.0,0.0,0.0,0.0,0.0,0.0,0.0,0.0,0.0,0.0,0.0,0.0,0.0,0.0,0.0,0.0,0.0,0.0,0.0,0.0,0.0,0.0,0.5479,0.5195,0.5098,0.5098,0.5098,0.5098,0.5098,0.5098,0.5098,0.5098,0.5098,0.5117,0.5156,0.5156,0.5432,0.5921,0.0,0.0,0.0,0.0,0.0,0.0,0.0,0.0,0.0,0.0,0.0,0.0,0.584,0.6765,0.8145,1.0273,1.2744,1.5508,1.7871,1.9912,2.1553,2.2399,2.2549,2.1894,2.0869,1.9174,0.0,0.0,0.0,0.0,0.0,0.0,0.0,0.0,0.0,0.0,0.0,0.0,0.0,0.0,0.0,0.0,0.0,0.0,0.0,0.0,0.0,0.0,0.0,0.0,0.0,0.6248,0.6624,0.7055,0.0,0.0,0.0,0.0,0.0,0.0,0.0,0.0,0.0,0.0,0.0,0.0,0.0,1.7864,1.8853,1.9781,2.0143,1.9364,1.9156,1.9006,1.8785,1.7996,1.7088,0.0,0.0,0.0,0.0,0.0,0.0,0.0,0.0,0.0,0.0,0.0,0.0,0.0,0.0,0.0,0.0,0.0,0.0,0.6721,0.6641,0.6058,0.5811,0.5763,0.5302,0.5098,0.5098,0.5098,0.5098,0.5098,0.5098,0.5098,0.5098,0.5117,0.5156,0.5234,0.5373,0.5664,0.6115,0.6707,0.0,0.0,0.0,0.0,0.0,0.0,0.0,0.0,0.0,0.0,0.5233,0.5959,0.7067,0.8512,1.0937,1.3545,1.6211,1.8662,2.0654,2.22,2.2812,2.2842,2.2207,2.0937,1.9202,0.0,0.0,0.0,0.0,0.0,0.0,0.0,0.0,0.0,0.0,0.0,0.0,0.0,0.0,0.0,0.0,0.0,0.0,0.0,0.0,0.0,0.0,0.0,0.5563,0.5814,0.6288,0.6831,0.7468,0.8013,0.0,0.8513,0.0,0.0,0.0,0.0,0.0,0.0,0.0,0.0,0.0,0.0,1.865,1.9936,2.1108,2.1719,2.1315,2.1131,2.0948,2.0636,1.9775,1.8853,0.0,0.0,0.0,0.0,0.0,0.0,0.0,0.0,0.0,0.0,0.0,0.0,0.0,0.0,0.0,0.0,0.0,0.0,0.6921,0.6687,0.6329,0.6034,0.5813,0.5283,0.5117,0.5108,0.5098,0.5098,0.5108,0.5108,0.5098,0.5108,0.5166,0.5234,0.5371,0.5869,0.6192,0.6361,0.7293,0.0,0.0,0.0,0.0,0.0,0.0,0.0,0.0,0.0,0.0,0.5185,0.5964,0.708,0.8434,1.0947,1.3675,1.6609,1.8818,2.0937,2.3022,2.3115,2.3081,2.31,2.1826,2.0089,0.0,0.0,0.0,0.0,0.0,0.0,0.0,0.0,0.0,0.0,0.0,0.0,0.0,0.0,0.0,0.0,0.0,0.0,0.0,0.0,0.0,0.0,0.0,0.0,0.6108,0.6393,0.7169,0.8794,0.9157,0.9505,1.0075,0.0,0.0,0.0,0.0,0.0,0.0,0.0,0.0,0.0,0.0,1.9009,2.068,2.1897,2.2751,2.3157,2.3204,2.2968,2.225,2.1672,2.0727,1.9146,1.794,1.6468,0.0,0.0,0.0,0.0,0.0,0.0,0.0,0.0,0.0,0.0,0.0,0.0,0.0,0.0,0.0,0.7472,0.7154,0.6825,0.6659,0.6555,0.6146,0.5961,0.5943,0.5782,0.5683,0.5632,0.5392,0.5253,0.5224,0.5292,0.5531,0.593,0.6233,0.6815,0.7676,0.8971,0.0,0.0,0.0,0.0,0.0,0.0,0.0,0.0,0.0,0.0,0.5205,0.5965,0.7184,0.8828,1.1338,1.4121,1.71,1.9512,2.1483,2.3086,2.3652,2.3682,2.3218,2.221,2.0615,1.8422,0.0,0.0,0.0,0.0,0.0,0.0,0.0,0.0,0.0,0.0,0.0,0.0,0.0,0.0,0.0,0.0,0.0,0.0,0.0,0.0,0.0,0.0,0.0,0.0,0.694,0.7871,0.867,0.9537,1.0018,0.9831,0.8778,0.0,0.0,0.0,0.0,0.0,0.0,0.0,1.6074,0.0,2.0418,2.2072,2.3288,2.4053,2.4236,2.4243,2.4054,2.3427,2.2874,2.1933,2.0313,1.912,1.7652,1.5462,0.0,0.0,0.0,0.0,0.0,0.0,0.0,0.0,0.0,0.0,0.0,0.0,0.0,0.0,0.8222,0.7837,0.7332,0.7243,0.7356,0.7011,0.6916,0.7059,0.6748,0.6575,0.6534,0.6097,0.5816,0.5662,0.5867,0.6117,0.6425,0.7058,0.8209,0.9735,1.0931,1.1757,0.0,0.0,0.0,0.0,0.0,0.0,0.0,0.0,0.0,0.5575,0.6238,0.7466,0.9221,1.1777,1.4551,1.7549,2.0117,2.2058,2.3452,2.4102,2.4199,2.3765,2.2773,2.1367,1.9426,0.0,0.0,0.0,0.0,0.6623,0.0,0.0,0.0,0.0,0.0,0.0,0.0,0.0,0.0,0.0,0.0,0.0,0.0,0.0,0.0,0.0,0.0,0.0,0.0,0.0,0.835,0.9008,0.9935,1.0302,0.9805,0.9063,0.8549,0.8488,0.0,0.0,0.0,0.0,0.0,0.0,1.9887,2.1757,2.3358,2.4412,2.5121,2.5285,2.5159,2.487,2.4318,2.3766,2.2887,2.1433,2.0388,1.9121,1.7262,1.6484,1.5856,1.5058,1.304,1.1414,1.1257,0.0,0.0,0.0,0.0,0.0,0.0,0.0,0.0,0.9166,0.87,0.7828,0.7777,0.8202,0.786,0.8047,0.8528,0.8002,0.7872,0.7853,0.7346,0.6867,0.65,0.7024,0.7092,0.6901,0.8446,1.0493,1.2556,1.31,1.3741,1.4404,1.3536,1.3022,1.2957,1.061,0.8891,0.794,0.735,0.6865,0.6494,0.6852,0.7934,0.9669,1.2207,1.498,1.7959,2.0557,2.2685,2.4316,2.4414,2.4619,2.4998,2.3779,2.2448,2.1073,0.0,0.0,0.0,0.0,0.769,0.0,0.0,0.0,0.0,0.0,0.0,0.0,0.0,0.0,0.0,0.0,0.0,0.0,0.0,0.0,0.0,0.0,0.0,0.0,0.0,0.8577,1.0179,1.0443,1.0456,1.0298,0.9327,0.9087,0.0,0.0,0.0,0.0,0.0,1.7057,1.9447,2.1217,2.2899,2.4512,2.5247,2.5774,2.6348,2.5971,2.5398,2.4895,2.4343,2.3602,2.2472,2.182,0.0,0.0,0.0,0.0,0.0,0.0,0.0,0.0,0.0,0.0,0.0,0.0,0.0,0.0,0.0,0.0,1.1036,1.006,0.9729,0.9702,0.9912,1.0195,1.0647,1.112,1.0921,1.077,1.0592,0.9563,0.8966,0.8737,0.8646,0.8747,0.9163,1.1278,1.3134,1.4718,1.6171,1.7062,1.744,1.722,1.6866,1.6309,1.4562,1.2258,0.9719,0.8787,0.8145,0.7778,0.7881,0.8799,1.0478,1.2749,1.5381,1.8354,2.0996,2.2988,2.4329,2.4943,2.5225,2.5106,2.4092,2.2295,1.9553,1.7116,0.0,0.0,1.0488,0.9001,0.0,0.0,0.0,0.0,0.0,0.0,0.0,0.0,0.0,0.0,0.0,0.0,0.0,0.0,0.0,0.0,0.0,0.0,0.0,0.0,1.0075,1.098,1.0726,1.0595,1.0801,1.0213,1.0377,1.1846,1.2824,1.3526,1.406,1.6213,1.8585,2.0998,2.2733,2.4135,2.5189,2.5812,2.6273,2.6461,2.6336,2.6009,2.5423,2.5184,2.4695,2.3627,2.3276,2.2786,2.1669,2.1317,2.1302,2.1666,2.1004,1.9887,1.8202,1.775,1.7657,1.7647,1.789,1.8139,1.834,1.9273,2.0167,1.3625,1.2487,1.2083,1.214,1.2499,1.2926,1.3656,1.4491,1.4072,1.3963,1.3926,1.2532,1.1666,1.1239,1.1168,1.1548,1.2428,1.4351,1.6056,1.746,1.9178,2.0143,2.041,2.0278,1.9868,1.9198,1.7616,1.5584,1.3199,1.1265,1.0059,0.951,0.951,1.0215,1.1611,1.373,1.6082,1.8686,2.1294,2.3095,2.4117,2.5092,2.545,2.5188,2.427,2.2383,1.9404,1.8042,1.6239,0.0,1.2119,0.0,0.0,0.0,0.0,0.0,0.0,0.0,0.0,0.0,0.0,0.0,0.0,0.0,0.0,0.0,0.0,0.0,0.0,0.0,0.0,1.0573,1.1386,1.1392,1.1203,1.1181,1.1387,1.1309,1.1854,1.3466,1.4926,1.5922,1.6114,1.8064,2.0272,2.2522,2.3963,2.5054,2.5812,2.6424,2.6776,2.6788,2.6788,2.665,2.6239,2.6025,2.5695,2.4971,2.4858,2.4607,2.3879,2.3916,2.4217,2.4738,2.5322,2.4833,2.2058,2.1556,2.1556,2.1515,2.1625,2.1744,2.192,2.2807,2.3607,1.6944,1.5828,1.4869,1.4998,1.5888,1.6008,1.6931,1.8257,1.7388,1.7302,1.7702,1.6198,1.491,1.3981,1.4516,1.5381,1.6567,1.7699,1.9133,2.0751,2.2095,2.297,2.3305,2.2594,2.205,2.1596,1.9702,1.8582,1.8097,1.479,1.2621,1.1773,1.1663,1.2113,1.3071,1.5126,1.708,1.895,2.1492,2.3083,2.3709,2.4746,2.5274,2.5275,2.4334,2.2812,2.0762,1.9385,1.7672,1.5576,1.3867,0.0,0.0,0.0,0.0,0.0,0.0,0.0,0.0,0.0,0.0,0.0,0.0,0.0,0.0,0.0,0.0,0.0,0.0,0.0,1.0881,1.2167,1.2581,1.1618,1.1997,1.2265,1.222,1.2634,1.3544,1.5085,1.668,1.7847,1.8223,2.0112,2.2157,2.3961,2.4871,2.5629,2.644,2.6979,2.7306,2.7341,2.7306,2.7306,2.7329,2.6901,2.6549,2.6575,2.66,2.66,2.6587,2.704,2.7519,2.8072,2.8549,2.8123,2.5502,2.4988,2.4938,2.4971,2.4971,2.5114,2.5624,2.6135,2.676,2.132,1.8758,1.8468,1.8516,1.8855,1.9726,2.0559,2.1382,2.1658,2.163,2.126,2.0135,1.8982,1.7931,1.8115,1.8696,1.9509,2.06,2.1804,2.3113,2.4357,2.5173,2.5583,2.496,2.4484,2.4034,2.2294,2.1308,2.0966,1.863,1.6387,1.4336,1.3675,1.3984,1.5186,1.6553,1.8081,1.9813,2.1878,2.3178,2.3663,2.4746,2.5237,2.5168,2.4553,2.3516,2.2002,2.0703,1.917,1.7301,1.5615,0.0,1.2059,0.0,0.0,0.0,0.0,0.5857,0.4949,0.4961,0.0,0.0,0.0,0.6367,0.0,0.0,0.0,0.0,0.9307,1.0656,1.2832,1.3922,1.424,1.3674,1.3745,1.4023,1.4514,1.5078,1.6086,1.7758,1.9103,2.0276,2.1267,2.2191,2.3255,2.4584,2.5565,2.6469,2.7308,2.7566,2.7702,2.7822,2.7858,2.7871,2.7871,2.7733,2.777,2.8147,2.8561,2.8875,2.8875,2.9289,2.9704,2.988,3.0331,3.0394,2.9704,2.8875,2.8398,2.836,2.836,2.8411,2.8586,2.9038,2.9453,2.5183,2.3067,2.1995,2.1703,2.2048,2.2757,2.3673,2.4649,2.4938,2.4992,2.4817,2.3848,2.276,2.1596,2.1453,2.185,2.2673,2.3778,2.477,2.5686,2.6902,2.7425,2.7274,2.6849,2.6189,2.5397,2.4035,2.311,2.2584,2.1075,1.9443,1.7681,1.6317,1.6112,1.709,1.7996,1.9173,2.0661,2.2023,2.2963,2.3446,2.4542,2.5131,2.5088,2.4814,2.4072,2.2803,2.1846,2.0547,1.8838,1.7275,1.5595,0.0,1.2097,1.0473,0.9001,0.8083,0.7111,0.607,0.5726,0.0,0.0,0.6748,0.7397,0.7822,0.0,0.0,1.002,1.1416,1.2973,1.4539,1.5763,1.6191,1.5567,1.5905,1.641,1.7068,1.758,1.8467,2.0057,2.0951,2.1851,2.2916,2.346,2.4064,2.4985,2.5782,2.6522,2.7173,2.7726,2.8122,2.8336,2.872,2.9082,2.9262,2.93,2.9413,2.9803,3.0181,3.0407,3.0444,3.0884,3.1311,3.1562,3.1851,3.2127,3.234,3.1675,3.0922,3.052,3.0432,3.0432,3.0419,3.0859,3.1248,2.8128,2.7733,2.5254,2.4643,2.5294,2.5375,2.6364,2.7903,2.747,2.7629,2.8136,2.716,2.6099,2.5086,2.4536,2.4881,2.5941,2.7007,2.7772,2.8287,2.9369,2.9434,2.8572,2.8141,2.7281,2.5968,2.5041,2.4192,2.3335,2.2494,2.1836,2.1346,1.9424,1.8529,1.8841,1.9436,2.0332,2.1466,2.2097,2.2664,2.3235,2.4342,2.4985,2.5127,2.5135,2.4512,2.3305,2.2822,2.1807,2.0195,1.8867,1.736,1.5594,1.3879,1.2146,1.0414,0.9504,0.8632,0.782,0.7119,0.6758,0.6735,0.7808,0.8747,0.9228,1.041,1.1318,1.1861,1.4177,1.5733,1.6117,1.7657,1.8312,1.7542,1.8249,1.9057,1.9633,1.998,2.0673,2.1962,2.2395,2.2882,2.3619,2.4116,2.4682,2.5249,2.5688,2.6155,2.6594,2.7691,2.8527,2.8806,2.9682,3.0467,3.0667,3.0968,3.1203,3.142,3.1587,3.1712,3.1738,3.2089,3.2616,3.3081,3.3206,3.3345,3.3859,3.3458,3.2923,3.1888,3.1599,3.1512,3.159,3.1964,3.234,2.7413,2.7635,2.7148,2.7289,2.7865,2.8499,2.9008,2.9389,2.9523,2.9434,2.9141,2.8752,2.8266,2.775,2.7237,2.7533,2.8512,2.9028,2.9425,2.9704,2.9726,2.9548,2.9146,2.8143,2.7352,2.6634,2.5722,2.5043,2.4617,2.375,2.3281,2.3144,2.2334,2.1444,2.0644,2.1068,2.158,2.2158,2.2871,2.3636,2.4419,2.4933,2.5343,2.5528,2.5254,2.4922,2.46,2.3574,2.2666,2.1904,2.0332,1.8802,1.7418,1.5722,1.399,1.2317,1.1424,1.039,0.9254,0.9563,0.9416,0.8431,0.9277,1.0312,1.1377,1.2344,1.333,1.4414,1.626,1.7605,1.814,1.9219,1.9889,1.9917,2.0519,2.1005,2.1374,2.2099,2.2681,2.2935,2.3814,2.4414,2.4415,2.4716,2.5035,2.543,2.6087,2.696,2.7916,2.833,2.8726,2.9075,2.9498,2.9893,3.035,3.1454,3.2424,3.2637,3.3357,3.3922,3.3922,3.4022,3.4173,3.4311,3.4336,3.4399,3.45,3.4412,3.4248,3.3935,3.3282,3.2709,3.2692,3.3106,3.3495,2.7415,2.7813,2.8275,2.8695,2.9082,2.9243,2.9594,2.9989,3.009,3.0012,2.9732,2.9374,2.9195,2.909,2.8923,2.9269,2.9973,3.0421,3.0684,3.0762,3.053,3.01,2.9556,2.8457,2.7581,2.6887,2.6139,2.554,2.5096,2.4636,2.4268,2.4072,2.3828,2.3315,2.2652,2.2451,2.2579,2.3091,2.3516,2.4051,2.4716,2.5079,2.544,2.5684,2.5498,2.5273,2.5125,2.4431,2.3765,2.3086,2.1797,2.0576,1.9446,1.7803,1.6141,1.4687,1.376,1.2793,1.1704,1.2256,1.2412,1.1904,1.1768,1.2266,1.3535,1.4416,1.5527,1.7012,1.8359,1.9321,1.9713,2.0853,2.1563,2.1635,2.2359,2.2984,2.3361,2.3736,2.4033,2.4248,2.4642,2.4947,2.5002,2.5069,2.5262,2.5732,2.6161,2.6722,2.7347,2.7767,2.8132,2.8628,2.9268,3.0092,3.1024,3.2361,3.3343,3.3626,3.4222,3.468,3.468,3.468,3.4743,3.4969,3.4843,3.4813,3.4981,3.4831,3.468,3.4605,3.4248,3.3859,3.3822,3.4048,3.4261,2.7573,2.7857,2.856,2.9024,2.9269,2.8733,2.9093,3.0045,2.9848,2.9815,2.9846,2.9341,2.9285,2.9519,2.9775,3.0169,3.0711,3.1174,3.1394,3.143,3.118,3.0566,2.9578,2.8667,2.7741,2.6812,2.6294,2.5768,2.5204,2.5194,2.4961,2.46,2.459,2.4534,2.4524,2.3741,2.3514,2.3998,2.4156,2.439,2.4578,2.5088,2.5489,2.5684,2.5684,2.5557,2.5223,2.5155,2.4727,2.3984,2.3101,2.2201,2.1345,1.9751,1.8265,1.6996,1.6189,1.542,1.4621,1.5,1.5459,1.5791,1.4932,1.4746,1.5712,1.6697,1.7915,1.9492,2.038,2.0948,2.1174,2.2416,2.3165,2.302,2.3859,2.4633,2.5013,2.4883,2.4986,2.5391,2.5115,2.5073,2.5352,2.5299,2.5398,2.5885,2.6031,2.6137,2.6213,2.6865,2.7533,2.7915,2.9036,3.0445,3.2066,3.3246,3.3897,3.4255,3.4666,3.4881,3.4989,3.4989,3.5102,3.5445,3.5303,3.5107,3.5533,3.5219,3.4977,3.5014,3.4964,3.4876,3.47,3.4751,3.4768,2.6534,2.6822,2.7156,2.7704,2.8258,2.8168,2.8771,2.9851,2.9647,2.9259,2.8696,2.8367,2.8451,2.8853,2.9172,2.976,3.0599,3.0737,3.0873,3.0986,3.0215,2.9417,2.862,2.7647,2.686,2.6235,2.5917,2.5693,2.5605,2.5605,2.5518,2.544,2.544,2.544,2.544,2.5054,2.4812,2.4711,2.4952,2.5079,2.5137,2.5489,2.5635,2.5684,2.5684,2.5654,2.5605,2.5311,2.5047,2.4814,2.3822,2.2847,2.2061,2.0814,1.9516,1.8171,1.785,1.7465,1.6846,1.7471,1.8061,1.8525,1.8643,1.8481,1.8081,1.9446,2.0625,2.1328,2.1846,2.2432,2.3159,2.3653,2.4043,2.4366,2.4761,2.4937,2.4901,2.5109,2.5275,2.5177,2.5359,2.5556,2.5615,2.5615,2.5635,2.5781,2.5781,2.5966,2.6319,2.6944,2.7558,2.7948,2.9107,3.0433,3.1638,3.2877,3.3897,3.4546,3.5338,3.5784,3.5959,3.6053,3.6078,3.6182,3.6119,3.6044,3.6169,3.6166,3.6028,3.6031,3.6078,3.578,3.4926,3.5044,3.5345,2.6197,2.6342,2.6716,2.7194,2.7668,2.8055,2.8595,2.9279,2.9198,2.8792,2.8196,2.7914,2.7998,2.8351,2.8631,2.9268,3.0193,3.0193,3.0238,3.0329,2.9612,2.8828,2.7998,2.7241,2.662,2.61,2.582,2.5684,2.5684,2.5684,2.5684,2.5684,2.5684,2.5684,2.5693,2.544,2.5186,2.4883,2.5137,2.5284,2.5342,2.5538,2.5684,2.5684,2.5586,2.5479,2.5479,2.517,2.5006,2.4977,2.4155,2.3446,2.303,2.1767,2.0699,1.988,1.9457,1.907,1.8672,1.9208,1.9707,2.0187,2.1095,2.1215,2.0284,2.1621,2.2588,2.2812,2.3203,2.3623,2.4053,2.4379,2.4687,2.4913,2.5214,2.5362,2.5287,2.5407,2.5544,2.5468,2.5547,2.5684,2.5684,2.5684,2.584,2.6025,2.6055,2.6211,2.6632,2.6814,2.7192,2.8065,2.9113,3.0316,3.1439,3.2713,3.3848,3.4667,3.5436,3.6026,3.6358,3.6417,3.6417,3.6417,3.6417,3.6417,3.6417,3.6417,3.6417,3.6417,3.6417,3.6267,3.5642,3.5755,3.5943,2.6004,2.6052,2.6524,2.6918,2.7299,2.7961,2.8524,2.8921,2.8792,2.842,2.7904,2.7526,2.7536,2.7762,2.7987,2.8538,2.9349,2.9395,2.9395,2.9395,2.8967,2.8279,2.7394,2.6955,2.6524,2.6052,2.5781,2.5684,2.5684,2.5684,2.5684,2.5684,2.5684,2.5684,2.5684,2.544,2.5186,2.4932,2.5137,2.5235,2.5235,2.5479,2.5635,2.5635,2.544,2.5284,2.5284,2.499,2.4833,2.4824,2.4115,2.3708,2.3558,2.2224,2.1356,2.1158,2.0604,2.0245,2.0133,2.052,2.0931,2.131,2.2596,2.3079,2.2327,2.3291,2.3935,2.4014,2.4336,2.456,2.4648,2.4971,2.5185,2.5195,2.5518,2.5674,2.5674,2.5684,2.5713,2.5684,2.5674,2.5684,2.5693,2.5771,2.5927,2.6309,2.6435,2.666,2.6982,2.6926,2.7197,2.8304,2.9137,2.9991,3.1262,3.2415,3.3598,3.4532,3.5343,3.5955,3.6275,3.6417,3.6417,3.6417,3.6468,3.6568,3.6568,3.6707,3.6694,3.6694,3.6694,3.6694,3.6694,3.6659,3.6694,2.5732,2.5781,2.583,2.6304,2.7003,2.7505,2.8456,2.9646,2.8828,2.8175,2.7631,2.6928,2.6688,2.6736,2.6736,2.7051,2.7563,2.7825,2.7908,2.7908,2.76,2.7194,2.664,2.6342,2.6052,2.5781,2.5742,2.5684,2.5684,2.5684,2.5684,2.5684,2.5684,2.5684,2.5684,2.544,2.5186,2.4932,2.4932,2.4932,2.4981,2.5235,2.5342,2.5342,2.5333,2.5284,2.5284,2.4833,2.4529,2.4529,2.3574,2.2892,2.2491,2.1377,2.058,2.0339,2.0445,2.0687,2.1084,2.1491,2.1834,2.2195,2.2984,2.3522,2.371,2.4081,2.4482,2.4881,2.4988,2.5137,2.544,2.5538,2.5605,2.5625,2.5635,2.5684,2.5684,2.5684,2.5684,2.5684,2.5684,2.5703,2.5752,2.6074,2.6328,2.6445,2.6787,2.71,2.7451,2.7581,2.7842,2.8509,2.8946,2.964,3.0671,3.1607,3.2801,3.4239,3.4908,3.5608,3.6263,3.6417,3.643,3.643,3.6769,3.701,3.7073,3.7475,3.7613,3.7638,3.7626,3.7663,3.7651,3.7688,3.7588,2.5684,2.5732,2.5868,2.6294,2.7003,2.8387,2.9566,3.0432,2.984,2.9002,2.7987,2.7098,2.663,2.6496,2.6342,2.6582,2.7051,2.7183,2.722,2.722,2.7098,2.6764,2.6294,2.6149,2.5965,2.5732,2.5684,2.5684,2.5684,2.5684,2.5684,2.5684,2.5684,2.5684,2.5684,2.5284,2.4883,2.448,2.448,2.448,2.448,2.4587,2.4735,2.4833,2.4883,2.4892,2.4892,2.4399,2.4035,2.3827,2.282,2.2089,2.1737,2.0524,1.9846,1.9944,1.9744,1.9895,2.0566,2.1161,2.1604,2.189,2.2695,2.3385,2.3825,2.4498,2.5024,2.54,2.543,2.5508,2.5674,2.5684,2.5684,2.5684,2.5684,2.5684,2.5684,2.5684,2.5684,2.5703,2.5947,2.6094,2.6094,2.6465,2.6846,2.7051,2.7451,2.7783,2.7969,2.7998,2.811,2.8412,2.8727,2.9195,3.0068,3.1073,3.2235,3.3549,3.4568,3.5368,3.6051,3.6288,3.6496,3.6795,3.7096,3.7299,3.7538,3.7814,3.7977,3.8002,3.8002,3.8002,3.8015,3.8241,3.8266,2.5684,2.5732,2.6014,2.6572,2.7458,2.9463,3.0601,3.0984,3.0623,2.9738,2.8445,2.7421,2.6774,2.6496,2.6149,2.6245,2.6572,2.662,2.662,2.663,2.663,2.6438,2.6052,2.6004,2.5917,2.5732,2.5684,2.5684,2.5684,2.5684,2.5684,2.5684,2.5684,2.5684,2.5693,2.5186,2.4637,2.4134,2.3777,2.3628,2.3628,2.3777,2.3985,2.4233,2.443,2.448,2.448,2.4044,2.3596,2.3079,2.2072,2.131,2.0912,1.9606,1.903,1.9378,1.8947,1.8997,1.9742,2.0426,2.088,2.118,2.1887,2.2669,2.3429,2.4291,2.5079,2.5538,2.5567,2.5625,2.5684,2.5684,2.5684,2.5684,2.5684,2.5684,2.5684,2.5684,2.5742,2.584,2.6182,2.6406,2.6572,2.6904,2.7314,2.7734,2.8096,2.8281,2.8301,2.8301,2.8301,2.8344,2.8451,2.8877,2.9501,3.0526,3.179,3.2951,3.4201,3.5235,3.5948,3.6428,3.6772,3.7236,3.7513,3.7776,3.814,3.8354,3.8442,3.8504,3.853,3.8467,3.8504,3.8781,3.8931,2.5684,2.5732,2.6004,2.704,2.8631,3.0147,3.0871,3.0927,3.0454,2.9658,2.8585,2.76,2.6907,2.6448,2.5985,2.5781,2.583,2.583,2.583,2.582,2.583,2.5781,2.5781,2.5732,2.5732,2.5684,2.5684,2.5684,2.5684,2.5684,2.5684,2.5684,2.5684,2.5684,2.5635,2.5137,2.4627,2.4075,2.2929,2.2274,2.2325,2.2778,2.3129,2.3438,2.4125,2.448,2.448,2.3985,2.3329,2.2577,2.1302,2.038,1.979,1.8716,1.8223,1.8419,1.8337,1.8533,1.9152,1.9571,1.9922,2.0187,2.0554,2.1302,2.2467,2.3129,2.4026,2.4981,2.5284,2.544,2.5684,2.5684,2.5684,2.5684,2.5684,2.5684,2.5684,2.5684,2.5889,2.6289,2.6396,2.6533,2.6934,2.7344,2.7806,2.8115,2.8223,2.8301,2.8301,2.8301,2.8301,2.8301,2.8344,2.8717,2.9396,3.0078,3.127,3.2823,3.3918,3.5028,3.6137,3.6894,3.7274,3.7826,3.8291,3.8642,3.8843,3.9157,3.9446,3.9295,3.9346,3.9471,3.9521,3.9521,3.9484,2.5684,2.5742,2.6159,2.7336,2.8978,3.0034,3.0589,3.0724,3.0204,2.9406,2.8434,2.7468,2.6764,2.6245,2.5878,2.5684,2.5684,2.5684,2.5684,2.5684,2.5684,2.5684,2.5684,2.5684,2.5684,2.5684,2.5684,2.5684,2.5684,2.5684,2.5684,2.5684,2.5538,2.5489,2.544,2.4932,2.4332,2.3628,2.2636,2.1869,2.1471,2.1768,2.2232,2.282,2.3628,2.4134,2.4242,2.3777,2.307,2.2274,2.085,1.9776,1.919,1.8128,1.7609,1.7814,1.8,1.8181,1.8462,1.8765,1.9049,1.9294,1.962,2.0241,2.12,2.1802,2.266,2.3935,2.4833,2.543,2.5635,2.5684,2.5684,2.5684,2.5684,2.5684,2.5684,2.5967,2.6211,2.6396,2.6887,2.7187,2.7412,2.7773,2.8086,2.8271,2.8301,2.8301,2.8301,2.8301,2.8301,2.8301,2.8301,2.8514,2.9036,2.9701,3.0839,3.2336,3.3687,3.4928,3.6367,3.7196,3.7679,3.8367,3.8718,3.9044,3.9308,3.9471,3.9697,3.9697,3.9697,3.9697,3.9697,3.9697,3.9697,2.5684,2.5781,2.64,2.7563,2.9024,2.9623,3.0034,3.0159,2.96,2.8852,2.8023,2.7088,2.6438,2.6004,2.5781,2.5684,2.5684,2.5684,2.5684,2.5684,2.5684,2.5684,2.5684,2.5684,2.5684,2.5684,2.5684,2.5684,2.5684,2.5635,2.5586,2.5538,2.5235,2.5088,2.503,2.448,2.3836,2.3179,2.2325,2.1581,2.1121,2.1173,2.1674,2.2367,2.3229,2.3836,2.4053,2.3479,2.2728,2.1818,2.0395,1.9257,1.8617,1.7791,1.7371,1.7526,1.7733,1.7888,1.7888,1.8088,1.8318,1.8579,1.8795,1.9316,2.013,2.0688,2.1599,2.297,2.4075,2.4883,2.5538,2.5586,2.5635,2.5684,2.5684,2.5684,2.5703,2.6123,2.6426,2.6602,2.7178,2.7777,2.7894,2.8086,2.8281,2.8291,2.8301,2.8301,2.8301,2.8301,2.8301,2.8301,2.8379,2.8525,2.8724,2.9495,3.0664,3.1989,3.34,3.4913,3.6444,3.7225,3.7952,3.8614,3.8867,3.9106,3.9471,3.9647,3.9697,3.9697,3.9697,3.9697,3.9697,3.9697,3.9697,2.5684,2.582,2.6774,2.7694,2.8724,2.9024,2.9301,2.9439,2.8502,2.7752,2.7231,2.6476,2.6004,2.5732,2.5684,2.5684,2.5684,2.5684,2.5684,2.5684,2.5684,2.5684,2.5684,2.5684,2.5684,2.5684,2.5684,2.5684,2.5693,2.544,2.5342,2.5294,2.4735,2.448,2.4381,2.3678,2.3179,2.2778,2.192,2.1369,2.1326,2.1326,2.1623,2.2224,2.3129,2.3737,2.3746,2.3238,2.2308,2.0987,1.9931,1.8959,1.8115,1.772,1.7594,1.7601,1.7608,1.7608,1.7654,1.7674,1.7799,1.801,1.8122,1.8541,1.9517,1.9931,2.079,2.2367,2.2979,2.3827,2.499,2.5284,2.543,2.5684,2.5684,2.5684,2.5713,2.6191,2.6562,2.6943,2.7422,2.7894,2.8184,2.8271,2.8291,2.8301,2.8301,2.8301,2.8301,2.8301,2.8301,2.8408,2.8594,2.8814,2.8832,2.9578,3.0648,3.1965,3.3448,3.4854,3.6143,3.732,3.813,3.8817,3.9098,3.9328,3.9595,3.9697,3.9697,3.9697,3.9697,3.9697,3.9697,3.9697,3.9697,2.582,2.6014,2.6534,2.7146,2.7741,2.8023,2.8211,2.8258,2.7752,2.7194,2.6716,2.6284,2.5955,2.5684,2.5684,2.5684,2.5684,2.5684,2.5684,2.5684,2.5684,2.5684,2.5684,2.5684,2.5684,2.5684,2.5684,2.5586,2.543,2.5186,2.4883,2.443,2.3827,2.3379,2.3129,2.2585,2.2224,2.2131,2.1725,2.1623,2.1827,2.1971,2.2325,2.2878,2.3438,2.3628,2.3479,2.2937,2.2013,2.0688,1.9613,1.8684,1.8069,1.7747,1.7589,1.7589,1.7589,1.7589,1.7589,1.7589,1.7641,1.7747,1.774,1.7957,1.8534,1.8893,1.9561,2.0739,2.1446,2.2358,2.3628,2.4677,2.5391,2.5635,2.5693,2.581,2.6152,2.6533,2.6953,2.7383,2.7803,2.8135,2.8232,2.8301,2.8301,2.8301,2.8301,2.8301,2.8301,2.8301,2.8369,2.8633,2.8818,2.9029,2.951,2.9988,3.0837,3.2197,3.3594,3.4809,3.6082,3.7009,3.7829,3.8577,3.8973,3.931,3.953,3.9697,3.9697,3.9697,3.9697,3.9697,3.9697,3.9697,3.9697,2.5868,2.61,2.6294,2.6678,2.7078,2.7183,2.7268,2.7315,2.6993,2.6678,2.6342,2.61,2.5868,2.5732,2.5684,2.5684,2.5684,2.5684,2.5684,2.5684,2.5684,2.5684,2.5684,2.5586,2.5586,2.5538,2.5479,2.5284,2.503,2.4686,2.4233,2.3678,2.282,2.2266,2.1912,2.1361,2.1113,2.1259,2.131,2.1564,2.203,2.2476,2.2837,2.3288,2.3479,2.3379,2.3029,2.2367,2.1404,2.0181,1.9094,1.8311,1.7911,1.7694,1.7589,1.7589,1.7589,1.7589,1.7589,1.7589,1.7589,1.7589,1.7635,1.774,1.7964,1.8167,1.884,1.9768,2.0388,2.12,2.2493,2.3795,2.4768,2.5253,2.5605,2.5907,2.6258,2.6834,2.7373,2.7793,2.8086,2.8262,2.8301,2.8301,2.8301,2.8301,2.8301,2.8301,2.8301,2.8301,2.8437,2.8838,2.9043,2.9557,3.0151,3.0726,3.1086,3.2256,3.3219,3.4549,3.557,3.6511,3.7334,3.8133,3.8776,3.9154,3.9478,3.9645,3.9697,3.9697,3.9697,3.9697,3.9697,3.9697,3.9697,2.5878,2.6042,2.61,2.639,2.6764,2.6582,2.663,2.6764,2.638,2.6149,2.6052,2.582,2.5732,2.5684,2.5684,2.5684,2.5684,2.5684,2.5684,2.5684,2.5684,2.5684,2.5684,2.544,2.5284,2.5235,2.503,2.4735,2.443,2.3926,2.3429,2.2769,2.1802,2.114,2.0885,2.013,1.9975,2.0388,2.0542,2.1046,2.2021,2.2577,2.2979,2.3288,2.3279,2.2979,2.2426,2.1497,2.0483,1.942,1.8541,1.7911,1.7687,1.7589,1.7589,1.7589,1.7589,1.7589,1.7589,1.7589,1.7589,1.7589,1.7589,1.7694,1.7911,1.8016,1.8429,1.9361,1.9879,2.0585,2.1716,2.2613,2.3447,2.4411,2.532,2.5896,2.6249,2.7014,2.7875,2.8154,2.8281,2.8291,2.8301,2.8301,2.8301,2.8301,2.8301,2.8301,2.831,2.835,2.8516,2.8906,2.9326,2.9895,3.0704,3.1482,3.1732,3.2163,3.2945,3.3955,3.4759,3.5642,3.6406,3.7215,3.8303,3.8788,3.927,3.9426,3.953,3.9542,3.9594,3.9645,3.9697,3.9697,3.9697,2.5742,2.583,2.582,2.5917,2.6062,2.5975,2.6014,2.6062,2.5878,2.582,2.583,2.5732,2.5684,2.5684,2.5684,2.5684,2.5684,2.5684,2.5684,2.5684,2.5684,2.5684,2.5635,2.5382,2.5079,2.4735,2.448,2.4084,2.3628,2.3129,2.2417,2.1505,2.0637,1.9968,1.9495,1.9042,1.9101,1.962,2.0034,2.0747,2.1768,2.2325,2.2736,2.2979,2.2686,2.2072,2.1148,2.0783,2.0063,1.899,1.8325,1.7905,1.7694,1.7589,1.7589,1.7589,1.7589,1.7589,1.7589,1.7589,1.7589,1.7589,1.7589,1.7635,1.7694,1.7747,1.7957,1.8534,1.8788,1.9309,2.0088,2.1055,2.2343,2.4152,2.5066,2.5858,2.6555,2.7462,2.8096,2.8252,2.8301,2.8301,2.8301,2.8301,2.8301,2.8301,2.8301,2.8301,2.832,2.8525,2.8887,2.9307,2.9783,3.0201,3.0928,3.1434,3.1623,3.1915,3.2582,3.3161,3.3931,3.4647,3.5411,3.646,3.7548,3.8303,3.8788,3.905,3.9102,3.9322,3.9374,3.9478,3.9645,3.9697,3.9697,2.5684,2.5684,2.5684,2.5684,2.5684,2.5684,2.5684,2.5684,2.5684,2.5684,2.5684,2.5684,2.5684,2.5684,2.5684,2.5684,2.5684,2.5684,2.5684,2.5684,2.5596,2.5538,2.544,2.4932,2.4291,2.3687,2.3429,2.3079,2.2526,2.2013,2.1302,2.0431,1.9613,1.8997,1.8527,1.8265,1.8422,1.9049,1.9576,2.0344,2.1369,2.1869,2.2173,2.2325,2.1861,2.1097,2.0285,1.9916,1.9354,1.8572,1.8062,1.7799,1.7635,1.7589,1.7589,1.7589,1.7589,1.7589,1.7589,1.7589,1.7589,1.7589,1.7589,1.7589,1.7589,1.7589,1.7747,1.7964,1.8167,1.8538,1.9311,2.0052,2.1374,2.3073,2.4509,2.5738,2.6924,2.7849,2.8262,2.8301,2.8301,2.8301,2.8301,2.8301,2.8301,2.8301,2.8301,2.8301,2.8379,2.8652,2.9082,2.9502,2.9883,3.0445,3.1138,3.1373,3.1431,3.1747,3.2092,3.2581,3.314,3.3695,3.4357,3.5685,3.6893,3.7483,3.7962,3.8173,3.8332,3.8659,3.8998,3.9218,3.9374,3.9633,3.9685,2.5684,2.5684,2.5684,2.5684,2.5684,2.5684,2.5684,2.5684,2.5684,2.5684,2.5684,2.5684,2.5684,2.5684,2.5684,2.5684,2.5684,2.5684,2.5684,2.5586,2.5382,2.5137,2.4932,2.4075,2.3179,2.2274,2.2072,2.1717,2.1267,2.0747,2.0181,1.9569,1.884,1.8272,1.801,1.774,1.7996,1.8677,1.9056,1.9887,2.1019,2.1173,2.1267,2.1514,2.085,2.0181,1.9569,1.8885,1.8318,1.801,1.7747,1.7641,1.7589,1.7589,1.7589,1.7589,1.7589,1.7589,1.7589,1.7589,1.7589,1.7589,1.7589,1.7589,1.7589,1.7641,1.7694,1.7905,1.7964,1.8291,1.9003,1.9571,2.0413,2.1702,2.3896,2.5766,2.7488,2.8067,2.8237,2.8291,2.8301,2.8301,2.8301,2.8301,2.8301,2.8301,2.8301,2.8301,2.8408,2.8691,2.9111,2.9541,2.999,3.0535,3.1141,3.116,3.1218,3.1392,3.1672,3.2008,3.2399,3.296,3.3572,3.4902,3.585,3.6491,3.6989,3.715,3.7536,3.7921,3.8356,3.8788,3.9166,3.9374,3.9633,2.5684,2.5684,2.5684,2.5684,2.5684,2.5684,2.5684,2.5684,2.5684,2.5684,2.5684,2.5684,2.5684,2.5684,2.5684,2.5684,2.5684,2.5684,2.5684,2.5586,2.4981,2.4381,2.3827,2.3129,2.2266,2.1302,2.0995,2.0652,2.0145,1.9783,1.9309,1.8736,1.8377,1.7957,1.7747,1.7641,1.7799,1.8167,1.8475,1.9004,1.9739,2.0042,2.0138,2.0138,1.9835,1.9361,1.8788,1.816,1.7799,1.7747,1.7641,1.7589,1.7589,1.7589,1.7589,1.7589,1.7589,1.7589,1.7589,1.7589,1.7589,1.7589,1.7589,1.7589,1.7589,1.7589,1.7641,1.7694,1.7694,1.7875,1.834,1.8871,2.0077,2.205,2.3864,2.5628,2.6933,2.7701,2.8077,2.8237,2.8291,2.8301,2.8301,2.8301,2.8301,2.8301,2.8301,2.833,2.8476,2.8916,2.9414,2.9726,3.0184,3.0605,3.0966,3.0986,3.1005,3.1005,3.1228,3.1392,3.1893,3.2457,3.3233,3.4235,3.4569,3.5113,3.563,3.6025,3.658,3.7,3.7548,3.7986,3.8736,3.9102,3.9426,2.5684,2.5684,2.5684,2.5684,2.5684,2.5684,2.5684,2.5684,2.5684,2.5684,2.5684,2.5684,2.5684,2.5684,2.5684,2.5684,2.5684,2.5684,2.5684,2.5538,2.4637,2.3569,2.261,2.2013,2.1191,2.0115,1.9857,1.9561,1.9212,1.8907,1.8534,1.8272,1.7957,1.774,1.7641,1.7641,1.7747,1.7964,1.8167,1.8482,1.9056,1.9101,1.9205,1.9205,1.8952,1.8534,1.8055,1.774,1.7589,1.7589,1.7589,1.7589,1.7589,1.7589,1.7589,1.7589,1.7589,1.7589,1.7589,1.7589,1.7589,1.7589,1.7589,1.7589,1.7589,1.7589,1.7589,1.7641,1.7589,1.7802,1.8258,1.8876,2.009,2.1696,2.3368,2.4936,2.6536,2.7476,2.796,2.8184,2.8301,2.8301,2.8301,2.8301,2.8301,2.8301,2.8301,2.8418,2.8603,2.9189,2.9678,2.9951,3.0331,3.0751,3.0927,3.0937,3.0947,3.0957,3.1015,3.1112,3.145,3.195,3.2457,3.3063,3.3346,3.3741,3.4302,3.4814,3.519,3.574,3.646,3.7281,3.7974,3.8566,3.8893,2.5684,2.5684,2.5684,2.5684,2.5684,2.5684,2.5684,2.5684,2.5684,2.5684,2.5684,2.5684,2.5684,2.5684,2.5684,2.5684,2.5684,2.5684,2.5586,2.5186,2.4282,2.297,2.1548,2.1089,2.0166,1.9086,1.8774,1.8624,1.837,1.8122,1.8016,1.7911,1.7747,1.7641,1.7589,1.7589,1.7747,1.7905,1.7905,1.816,1.8468,1.8468,1.8468,1.8572,1.8265,1.7957,1.774,1.7589,1.7589,1.7589,1.7589,1.7589,1.7589,1.7589,1.7589,1.7589,1.7589,1.7589,1.7589,1.7589,1.7589,1.7589,1.7589,1.7589,1.7589,1.7589,1.7589,1.7589,1.7589,1.7869,1.8445,1.9255,2.0108,2.1231,2.2305,2.3975,2.5799,2.7187,2.7916,2.8237,2.8237,2.8301,2.8301,2.8291,2.8301,2.832,2.8379,2.8594,2.8877,2.9385,2.9805,3.0098,3.0449,3.083,3.0889,3.0889,3.0889,3.0957,3.0957,3.1005,3.1112,3.1441,3.1672,3.2008,3.2389,3.2675,3.3016,3.347,3.3909,3.4525,3.5234,3.6231,3.712,3.7655,3.8092,2.5684,2.5684,2.5684,2.5684,2.5684,2.5684,2.5684,2.5684,2.5684,2.5684,2.5684,2.5684,2.5684,2.5684,2.5684,2.5684,2.5684,2.5684,2.5382,2.4686,2.4084,2.266,2.1242,2.0585,1.9665,1.8677,1.8272,1.8062,1.7793,1.7747,1.7694,1.7694,1.7694,1.7589,1.7589,1.7589,1.7635,1.7687,1.7694,1.774,1.7898,1.7898,1.7845,1.7898,1.7793,1.7694,1.7641,1.7589,1.7589,1.7589,1.7589,1.7589,1.7589,1.7589,1.7589,1.7589,1.7589,1.7589,1.7589,1.7589,1.7589,1.7589,1.7589,1.7589,1.7589,1.7589,1.7589,1.7589,1.7602,1.7862,1.8486,1.9289,2.0035,2.0838,2.1843,2.3079,2.4642,2.6209,2.7251,2.7799,2.813,2.8291,2.8237,2.8237,2.8257,2.834,2.8535,2.8779,2.917,2.9609,2.9971,3.0303,3.0566,3.0889,3.0898,3.0898,3.0898,3.0898,3.0898,3.0898,3.0995,3.1054,3.1276,3.1392,3.1488,3.1777,3.2123,3.2399,3.2835,3.3448,3.4067,3.5013,3.5904,3.6569,3.7346,2.5684,2.5684,2.5684,2.5684,2.5684,2.5684,2.5684,2.5684,2.5684,2.5684,2.5684,2.5684,2.5684,2.5684,2.5684,2.5684,2.5684,2.5684,2.543,2.4833,2.4183,2.3161,2.1844,2.0688,1.9613,1.837,1.7957,1.7747,1.7641,1.7589,1.7641,1.7589,1.7589,1.7589,1.7589,1.7589,1.7589,1.7635,1.7589,1.7589,1.7589,1.7589,1.7589,1.7589,1.7589,1.7589,1.7589,1.7589,1.7589,1.7589,1.7589,1.7589,1.7589,1.7589,1.7589,1.7589,1.7589,1.7589,1.7589,1.7589,1.7589,1.7589,1.7589,1.7589,1.7589,1.7589,1.7589,1.7589,1.7635,1.7829,1.843,1.9125,1.9818,2.0328,2.1224,2.224,2.3359,2.5101,2.6609,2.7152,2.7476,2.7584,2.7691,2.7853,2.8077,2.8043,2.8627,2.8891,2.9355,2.9785,3.0205,3.0518,3.0723,3.0879,3.0889,3.0898,3.0898,3.0898,3.0898,3.0898,3.0947,3.0947,3.1005,3.1054,3.116,3.116,3.145,3.1662,3.194,3.2446,3.313,3.3909,3.458,3.5245,3.6188,2.5684,2.5684,2.5684,2.5684,2.5684,2.5684,2.5684,2.5684,2.5684,2.5684,2.5684,2.5684,2.5684,2.5684,2.5684,2.5684,2.5684,2.5684,2.5489,2.5137,2.4489,2.3678,2.261,2.1293,1.9968,1.8422,1.7905,1.7694,1.7694,1.7628,1.7589,1.7589,1.7589,1.7589,1.7589,1.7589,1.7589,1.7589,1.7589,1.7589,1.7589,1.7589,1.7589,1.7589,1.7589,1.7589,1.7589,1.7589,1.7589,1.7589,1.7589,1.7589,1.7589,1.7589,1.7589,1.7589,1.7589,1.7589,1.7589,1.7589,1.7589,1.7589,1.7589,1.7589,1.7589,1.7589,1.7589,1.7642,1.7722,1.7983,1.8464,1.9075,1.9486,1.9931,2.0608,2.1288,2.2127,2.388,2.5046,2.6218,2.66,2.6817,2.7034,2.7251,2.752,2.7866,2.8468,2.9011,2.9466,2.998,3.041,3.0644,3.082,3.0879,3.0889,3.0898,3.0898,3.0898,3.0898,3.0898,3.0898,3.0947,3.0947,3.0947,3.1005,3.1005,3.1005,3.1228,3.1508,3.173,3.2123,3.2846,3.3413,3.3976,3.4969,2.5684,2.5684,2.5684,2.5684,2.5684,2.5684,2.5684,2.5684,2.5684,2.5684,2.5684,2.5684,2.5684,2.5684,2.5684,2.5684,2.5684,2.5684,2.5596,2.5284,2.4735,2.4035,2.322,2.2005,2.0731,1.9665,1.8684,1.8069,1.7859,1.774,1.7641,1.7589,1.7589,1.7589,1.7589,1.7589,1.7589,1.7589,1.7589,1.7589,1.7589,1.7589,1.7589,1.7589,1.7589,1.7589,1.7589,1.7589,1.7589,1.7589,1.7589,1.7589,1.7589,1.7589,1.7589,1.7589,1.7589,1.7589,1.7589,1.7589,1.7589,1.7589,1.7589,1.7589,1.7589,1.7589,1.7589,1.7716,1.8009,1.8377,1.8484,1.9025,1.9479,1.9815,2.0155,2.0666,2.1288,2.2127,2.3255,2.4484,2.5267,2.5889,2.599,2.6254,2.6645,2.7184,2.7943,2.8552,2.9018,2.9803,3.0596,3.0801,3.0869,3.0889,3.0898,3.0898,3.0898,3.0898,3.0898,3.0898,3.0898,3.0898,3.0898,3.0898,3.0898,3.0947,3.0947,3.1005,3.1112,3.1392,3.1614,3.1777,3.2342,3.3016,3.3685,2.5684,2.5684,2.5684,2.5684,2.5684,2.5684,2.5684,2.5684,2.5684,2.5684,2.5684,2.5684,2.5684,2.5684,2.5684,2.5684,2.5684,2.5684,2.5635,2.5382,2.5088,2.4686,2.3985,2.2861,2.1954,2.0944,1.982,1.8639,1.801,1.7747,1.7641,1.7589,1.7589,1.7589,1.7589,1.7589,1.7589,1.7589,1.7589,1.7589,1.7589,1.7589,1.7589,1.7589,1.7589,1.7589,1.7589,1.7589,1.7589,1.7589,1.7589,1.7589,1.7589,1.7589,1.7589,1.7589,1.7589,1.7589,1.7589,1.7589,1.7589,1.7589,1.7589,1.7589,1.7589,1.7589,1.7589,1.7722,1.8116,1.8497,1.851,1.9032,1.9421,1.9591,1.9873,2.0155,2.0493,2.0888,2.1737,2.2805,2.3536,2.4094,2.4492,2.4927,2.5597,2.6435,2.7336,2.7968,2.8484,2.9441,3.0374,3.0733,3.0772,3.0898,3.0898,3.0898,3.0898,3.0898,3.0898,3.0898,3.0898,3.0898,3.0898,3.0898,3.0898,3.0898,3.0898,3.0947,3.1005,3.1054,3.1228,3.1392,3.1604,3.2055,3.2789,2.5684,2.5684,2.5684,2.5684,2.5684,2.5684,2.5684,2.5684,2.5684,2.5684,2.5684,2.5684,2.5684,2.5684,2.5684,2.5684,2.5684,2.5684,2.5684,2.5645,2.5391,2.5137,2.4735,2.3926,2.287,2.2013,2.079,1.9561,1.837,1.7852,1.7687,1.7635,1.7589,1.7589,1.7589,1.7589,1.7589,1.7589,1.7589,1.7589,1.7589,1.7589,1.7589,1.7589,1.7589,1.7589,1.7589,1.7589,1.7589,1.7589,1.7589,1.7589,1.7589,1.7589,1.7589,1.7589,1.7589,1.7589,1.7589,1.7589,1.7589,1.7589,1.7589,1.7589,1.7589,1.7589,1.7595,1.7742,1.8123,1.8484,1.8564,1.9018,1.9363,1.9417,1.9591,1.9758,1.9873,2.0097,2.0328,2.1174,2.1851,2.2467,2.2918,2.3592,2.4309,2.5159,2.6087,2.6991,2.7648,2.8889,2.9805,3.0344,3.0645,3.083,3.0898,3.0898,3.0898,3.0898,3.0898,3.0898,3.0898,3.0898,3.0898,3.0898,3.0898,3.0898,3.0898,3.0898,3.0947,3.0947,3.0947,3.1005,3.1276,3.1498,3.195,2.5684,2.5684,2.5684,2.5684,2.5684,2.5684,2.5684,2.5684,2.5684,2.5684,2.5684,2.5684,2.5684,2.5684,2.5684,2.5684,2.5684,2.5684,2.5684,2.5645,2.5489,2.5342,2.5137,2.4125,2.3479,2.2778,2.1548,2.0055,1.9034,1.8318,1.7852,1.7694,1.7641,1.7589,1.7589,1.7589,1.7589,1.7589,1.7589,1.7589,1.7589,1.7589,1.7589,1.7589,1.7589,1.7589,1.7589,1.7589,1.7589,1.7589,1.7589,1.7589,1.7589,1.7589,1.7589,1.7589,1.7589,1.7589,1.7589,1.7589,1.7536,1.7536,1.7536,1.7589,1.7589,1.7589,1.7589,1.7661,1.8116,1.845,1.8571,1.9018,1.9336,1.9424,1.9482,1.9482,1.954,1.9649,1.9815,1.9873,2.0723,2.1174,2.1623,2.2297,2.2982,2.3947,2.4819,2.5765,2.6909,2.8205,2.9497,3.0189,3.0645,3.083,3.0898,3.0898,3.0898,3.0898,3.0898,3.0898,3.0898,3.0898,3.0898,3.0898,3.0898,3.0898,3.0898,3.0898,3.0898,3.0898,3.0898,3.0898,3.0947,3.117,3.1392,2.5684,2.5684,2.5684,2.5684,2.5684,2.5684,2.5684,2.5684,2.5684,2.5684,2.5684,2.5684,2.5684,2.5684,2.5684,2.5684,2.5684,2.5684,2.5684,2.5684,2.5586,2.5547,2.5382,2.4883,2.4291,2.3479,2.2669,2.1641,2.0313,1.9034,1.8265,1.7905,1.7799,1.7747,1.7694,1.7641,1.7589,1.7589,1.7589,1.7589,1.7589,1.7589,1.7589,1.7589,1.7589,1.7589,1.7589,1.7589,1.7589,1.7589,1.7589,1.7589,1.7589,1.7589,1.7589,1.7589,1.7589,1.7589,1.7589,1.7483,1.7378,1.7272,1.7219,1.7166,1.7318,1.7536,1.7589,1.7595,1.7976,1.8283,1.851,1.8871,1.9145,1.935,1.9424,1.9424,1.9424,1.9424,1.9482,1.9482,1.954,2.0104,2.0666,2.1288,2.1964,2.2626,2.365,2.467,2.6092,2.7691,2.9006,3.0256,3.0635,3.0898,3.0898,3.0898,3.0898,3.0898,3.0898,3.0898,3.0898,3.0898,3.0898,3.0898,3.0898,3.0898,3.0898,3.0898,3.0898,3.0898,3.0898,3.0898,3.0898,3.0947,3.145,2.5684,2.5684,2.5684,2.5684,2.5684,2.5684,2.5684,2.5684,2.5684,2.5684,2.5684,2.5684,2.5684,2.5684,2.5684,2.5684,2.5684,2.5684,2.5684,2.5684,2.5684,2.5684,2.5538,2.5294,2.4883,2.4282,2.3628,2.271,2.1591,2.0467,1.9502,1.8489,1.8325,1.816,1.795,1.7793,1.7694,1.7589,1.7589,1.7589,1.7589,1.7589,1.7589,1.7589,1.7589,1.7589,1.7589,1.7589,1.7589,1.7589,1.7589,1.7589,1.7589,1.7589,1.7589,1.7589,1.7529,1.7378,1.7272,1.7166,1.7073,1.6961,1.6902,1.6902,1.7232,1.7437,1.7589,1.7589,1.7883,1.819,1.847,1.8764,1.9058,1.9259,1.9424,1.9424,1.9424,1.9424,1.9424,1.9424,1.9424,1.9424,1.9938,2.0457,2.096,2.146,2.2389,2.3545,2.5244,2.7129,2.841,2.9653,3.0441,3.0704,3.0762,3.0772,3.083,3.0898,3.0898,3.0898,3.0898,3.0898,3.0898,3.0898,3.0898,3.0898,3.0898,3.0898,3.0898,3.0898,3.0898,3.0898,3.0898,3.0947,3.1392,2.5684,2.5684,2.5684,2.5684,2.5684,2.5684,2.5684,2.5684,2.5684,2.5684,2.5684,2.5684,2.5684,2.5684,2.5684,2.5684,2.5684,2.5684,2.5684,2.5684,2.5684,2.5684,2.5655,2.5469,2.5166,2.4784,2.4396,2.37,2.2929,2.2308,2.1046,1.9776,1.9302,1.893,1.852,1.8213,1.7852,1.7687,1.7635,1.7589,1.7589,1.7589,1.7589,1.7589,1.7589,1.7589,1.7589,1.7589,1.7589,1.7589,1.7589,1.7589,1.7589,1.7589,1.7589,1.7589,1.7378,1.7166,1.6842,1.6683,1.6577,1.6477,1.6524,1.669,1.702,1.7384,1.7589,1.7602,1.7822,1.8103,1.8417,1.8738,1.8971,1.9185,1.9299,1.9424,1.9424,1.9424,1.9424,1.9424,1.9424,1.9424,1.9482,2.0053,2.0335,2.0773,2.1789,2.2938,2.4745,2.6484,2.7656,2.8867,2.9905,3.0333,3.0509,3.0577,3.083,3.0898,3.0898,3.0898,3.0898,3.0898,3.0898,3.0898,3.0898,3.0898,3.0898,3.0898,3.0898,3.0898,3.0898,3.0898,3.1005,3.1054,3.1566,2.5684,2.5684,2.5684,2.5684,2.5684,2.5684,2.5684,2.5684,2.5684,2.5684,2.5684,2.5684,2.5684,2.5684,2.5684,2.5684,2.5684,2.5684,2.5684,2.5684,2.5684,2.5684,2.5703,2.5781,2.572,2.5301,2.509,2.4793,2.3945,2.3578,2.312,2.2055,2.0775,1.9864,1.9354,1.8736,1.816,1.7852,1.7687,1.7589,1.7589,1.7589,1.7589,1.7589,1.7589,1.7589,1.7589,1.7589,1.7589,1.7589,1.7589,1.7589,1.7589,1.7589,1.7589,1.7536,1.7331,1.6855,1.6258,1.6039,1.5773,1.5458,1.5672,1.6152,1.6643,1.7067,1.743,1.7576,1.7689,1.7929,1.8135,1.8477,1.8744,1.9032,1.9225,1.939,1.9424,1.9424,1.9424,1.9424,1.9424,1.9424,1.9533,1.9707,1.9924,2.0213,2.129,2.2456,2.412,2.5719,2.6915,2.8256,2.931,3.0138,3.0333,3.0577,3.0889,3.0898,3.0898,3.0898,3.0898,3.0898,3.0898,3.0898,3.0898,3.0898,3.0898,3.0898,3.0898,3.0898,3.0898,3.0898,3.1005,3.1112,3.1614,2.5684,2.5684,2.5684,2.5684,2.5684,2.5684,2.5684,2.5684,2.5684,2.5684,2.5684,2.5684,2.5684,2.5684,2.5684,2.5684,2.5684,2.5684,2.5684,2.5684,2.5684,2.5684,2.5879,2.5986,2.6034,2.5692,2.5797,2.5548,2.4695,2.4529,2.4125,2.347,2.266,2.1599,2.0388,1.9368,1.8632,1.8265,1.7905,1.7747,1.7747,1.7641,1.7589,1.7589,1.7589,1.7589,1.7589,1.7589,1.7589,1.7589,1.7589,1.7589,1.7589,1.7589,1.7589,1.7483,1.7113,1.659,1.5891,1.5137,1.4708,1.4385,1.4922,1.5517,1.6164,1.6802,1.7325,1.7589,1.7609,1.7709,1.7955,1.8343,1.8651,1.8958,1.9245,1.9424,1.9424,1.9424,1.9424,1.9424,1.9424,1.9424,1.9424,1.9591,1.9822,2.004,2.0744,2.1825,2.3123,2.4728,2.6132,2.7514,2.8878,2.9611,3.0147,3.0518,3.083,3.0898,3.0898,3.0898,3.0898,3.0898,3.0898,3.0898,3.0898,3.0898,3.0898,3.0898,3.0898,3.0898,3.0898,3.0898,3.0947,3.1064,3.1276,2.5684,2.5684,2.5684,2.5684,2.5732,2.5684,2.5684,2.5684,2.5684,2.5684,2.5684,2.5684,2.5684,2.5684,2.5684,2.5684,2.5684,2.5684,2.5684,2.5684,2.5684,2.5684,2.5947,2.6162,2.6298,2.5986,2.616,2.6137,2.536,2.5406,2.5053,2.4786,2.4245,2.3317,2.1996,2.0454,1.942,1.8833,1.8325,1.8122,1.7957,1.7799,1.7694,1.7589,1.7589,1.7589,1.7589,1.7589,1.7589,1.7589,1.7589,1.7589,1.7589,1.7589,1.7589,1.7589,1.6796,1.6105,1.5399,1.4116,1.3472,1.3418,1.4008,1.4869,1.5785,1.6583,1.7279,1.7536,1.7589,1.7716,1.8003,1.831,1.8604,1.8851,1.9132,1.9424,1.9424,1.9424,1.9424,1.9424,1.9424,1.9424,1.9424,1.9482,1.9771,2.0046,2.05,2.1314,2.2445,2.3771,2.5285,2.6837,2.8282,2.9198,2.9853,3.047,3.0772,3.083,3.0889,3.083,3.0889,3.0898,3.0898,3.0898,3.0898,3.0898,3.0898,3.0898,3.0898,3.0898,3.0898,3.0898,3.0898,3.0947,3.1218,2.5684,2.5732,2.5917,2.5955,2.5965,2.5791,2.5684,2.5684,2.5684,2.5684,2.5684,2.5684,2.5684,2.5684,2.5684,2.5684,2.5684,2.5684,2.5684,2.5684,2.5684,2.5947,2.6191,2.6494,2.668,2.6738,2.6953,2.6943,2.646,2.6284,2.6342,2.6119,2.5531,2.4509,2.2944,2.1566,2.0799,1.9969,1.9309,1.8691,1.8325,1.801,1.7747,1.7641,1.7589,1.7589,1.7589,1.7589,1.7589,1.7589,1.7589,1.7589,1.7589,1.7589,1.7582,1.7424,1.6743,1.5345,1.3992,1.259,1.2332,1.2604,1.3197,1.4218,1.5452,1.6211,1.6849,1.743,1.7589,1.7675,1.7762,1.823,1.8544,1.8691,1.8951,1.9323,1.9424,1.9424,1.9424,1.9424,1.9424,1.9424,1.9424,1.9424,1.9597,1.9713,2.0046,2.0751,2.1781,2.3129,2.4604,2.6202,2.7608,2.8678,2.9558,3.0108,3.0528,3.0645,3.0645,3.0694,3.0762,3.0889,3.0898,3.0898,3.0898,3.0898,3.0898,3.0898,3.0898,3.0898,3.0898,3.0898,3.0898,3.0947,3.1054,2.5732,2.5868,2.61,2.6332,2.638,2.611,2.5927,2.5868,2.582,2.5781,2.5732,2.5684,2.5684,2.5684,2.5684,2.5684,2.5684,2.5684,2.5684,2.5684,2.5684,2.5986,2.6377,2.6807,2.6904,2.7148,2.7373,2.7412,2.6892,2.6982,2.6902,2.6759,2.6666,2.5605,2.4167,2.3125,2.2004,2.104,2.0181,1.9264,1.8743,1.8272,1.7859,1.7694,1.7589,1.7589,1.7589,1.7589,1.7589,1.7589,1.7589,1.7589,1.7589,1.7589,1.7529,1.7272,1.6199,1.4589,1.2861,1.1996,1.1841,1.1951,1.259,1.3722,1.5125,1.6045,1.6789,1.7371,1.7589,1.7589,1.7682,1.817,1.8484,1.8631,1.8938,1.9316,1.9424,1.9424,1.9424,1.9424,1.9424,1.9424,1.9424,1.9424,1.9482,1.954,1.9597,2.0373,2.1162,2.2464,2.387,2.5502,2.7103,2.8255,2.917,2.9804,3.0157,3.0333,3.045,3.0509,3.0762,3.0898,3.0898,3.0898,3.0898,3.0898,3.0898,3.0898,3.0898,3.0898,3.0898,3.0898,3.0898,3.0947,3.1005,2.5878,2.61,2.639,2.6774,2.7088,2.6822,2.6486,2.6149,2.6149,2.6014,2.5732,2.5781,2.5781,2.5732,2.5732,2.5732,2.5684,2.5684,2.5684,2.5723,2.5781,2.6123,2.6494,2.6894,2.7178,2.7295,2.748,2.7656,2.7129,2.7266,2.7246,2.7185,2.7278,2.6525,2.5554,2.4563,2.3245,2.2096,2.0995,2.0034,1.9316,1.8541,1.801,1.774,1.7589,1.7589,1.7589,1.7589,1.7589,1.7589,1.7589,1.7589,1.7589,1.7589,1.743,1.6796,1.5512,1.4002,1.2599,1.1951,1.1891,1.211,1.2916,1.3884,1.4905,1.6039,1.6789,1.7318,1.7589,1.7589,1.7669,1.8083,1.8484,1.8744,1.9045,1.929,1.9397,1.9424,1.9424,1.9424,1.9424,1.9424,1.9424,1.9424,1.9424,1.9424,1.954,1.9785,2.0626,2.1591,2.3142,2.4825,2.6395,2.7925,2.8746,2.9412,2.9863,3.0098,3.0274,3.0392,3.0645,3.0898,3.0898,3.0898,3.0898,3.0898,3.0898,3.0898,3.0898,3.0898,3.0898,3.0898,3.0898,3.0898,3.0947,2.5868,2.6149,2.6764,2.7289,2.7752,2.7987,2.7657,2.6945,2.6716,2.6534,2.6255,2.6255,2.6159,2.6004,2.6004,2.5868,2.5771,2.5684,2.5684,2.5762,2.6016,2.6426,2.6836,2.7226,2.7578,2.7842,2.7988,2.7988,2.7939,2.7891,2.7871,2.7935,2.7863,2.7363,2.6702,2.6024,2.4532,2.3085,2.1869,2.0747,1.9724,1.8893,1.8258,1.7793,1.7641,1.7589,1.7589,1.7589,1.7589,1.7589,1.7589,1.7589,1.7589,1.7529,1.7318,1.6318,1.5303,1.4283,1.2985,1.2713,1.2762,1.2861,1.3722,1.4583,1.5393,1.6099,1.6849,1.7325,1.7589,1.7589,1.7722,1.8076,1.8397,1.8664,1.8991,1.9336,1.9424,1.9424,1.9424,1.9424,1.9424,1.9424,1.9424,1.9424,1.9424,1.9424,1.9482,1.9649,2.0095,2.1104,2.2394,2.4114,2.5771,2.7249,2.8323,2.9016,2.9499,2.9863,3.0098,3.0343,3.0704,3.0898,3.0898,3.0898,3.0898,3.0898,3.0898,3.0898,3.0898,3.0898,3.0898,3.0898,3.0898,3.0898,3.0947,2.5927,2.6342,2.703,2.793,2.8817,2.9059,2.8689,2.794,2.7289,2.6918,2.6678,2.663,2.6582,2.6428,2.6294,2.611,2.5868,2.5732,2.5684,2.5791,2.6211,2.6582,2.7021,2.7471,2.7842,2.8154,2.8301,2.8223,2.8301,2.8301,2.8271,2.8242,2.8301,2.7711,2.6969,2.6324,2.5256,2.3797,2.2426,2.1361,2.0225,1.9146,1.8415,1.7793,1.7641,1.7589,1.7589,1.7589,1.7589,1.7589,1.7589,1.7589,1.7529,1.7371,1.7001,1.6105,1.5357,1.4552,1.3689,1.3684,1.3684,1.3894,1.4696,1.5393,1.5933,1.653,1.7008,1.7477,1.7536,1.7629,1.7842,1.807,1.8283,1.851,1.8918,1.9383,1.9424,1.9424,1.9424,1.9424,1.9424,1.9424,1.9424,1.9424,1.9424,1.9424,1.9424,1.9482,1.9894,2.0607,2.1881,2.3449,2.5044,2.6613,2.7653,2.8728,2.9384,2.9874,3.0157,3.046,3.0772,3.0898,3.0898,3.0898,3.0898,3.0898,3.0898,3.0898,3.0898,3.0898,3.0898,3.0898,3.0898,3.0898,3.0947,2.6014,2.6592,2.7421,2.8724,3.0034,2.9966,2.9508,2.9011,2.7931,2.7293,2.7023,2.7054,2.7075,2.688,2.663,2.6342,2.6062,2.582,2.5771,2.5762,2.6328,2.6758,2.7168,2.7529,2.7978,2.8203,2.8301,2.8301,2.8301,2.8301,2.8301,2.8301,2.8301,2.7785,2.6975,2.658,2.5437,2.3622,2.2586,2.1564,2.0225,1.9242,1.8468,1.774,1.7589,1.7589,1.7589,1.7589,1.7589,1.7589,1.7589,1.7589,1.7424,1.716,1.6736,1.6258,1.5678,1.5143,1.4654,1.4654,1.4767,1.503,1.5512,1.6152,1.6583,1.6796,1.7219,1.7483,1.7589,1.7589,1.7749,1.813,1.8417,1.8637,1.8958,1.9316,1.9424,1.9424,1.9424,1.9424,1.9424,1.9424,1.9424,1.9424,1.9424,1.9424,1.9424,1.943,1.9662,2.0254,2.135,2.2755,2.4192,2.5778,2.7351,2.84,2.9371,2.9925,3.0198,3.0518,3.082,3.0889,3.0898,3.0898,3.0898,3.0898,3.0898,3.0898,3.0898,3.0898,3.0898,3.0898,3.0898,3.0947,3.1122,2.6024,2.6678,2.8315,2.9531,3.017,3.0136,2.9634,2.8814,2.8735,2.8179,2.7651,2.7908,2.7829,2.7225,2.6907,2.6572,2.6149,2.5888,2.5947,2.623,2.6621,2.7002,2.748,2.7861,2.8154,2.8242,2.8301,2.8301,2.8301,2.8301,2.8301,2.8301,2.8281,2.7791,2.6921,2.6588,2.5311,2.3373,2.246,2.1364,1.988,1.916,1.8461,1.7898,1.7589,1.7589,1.7589,1.7589,1.7589,1.7589,1.7589,1.7589,1.7589,1.7219,1.6948,1.6577,1.6152,1.5785,1.5624,1.5618,1.5785,1.5998,1.6424,1.6796,1.7067,1.7173,1.7279,1.7483,1.7589,1.7589,1.7716,1.815,1.8524,1.8744,1.8991,1.9243,1.9424,1.9424,1.9424,1.9424,1.9424,1.9424,1.9424,1.9424,1.9424,1.9424,1.9424,1.9424,1.9482,1.9901,2.0765,2.2062,2.3218,2.473,2.6516,2.8089,2.9044,2.9784,3.0151,3.049,3.0801,3.0889,3.0898,3.0898,3.0898,3.0898,3.0898,3.0898,3.0898,3.0898,3.0898,3.0898,3.1064,3.1112,3.1344,2.5975,2.6534,2.8351,2.9577,3.0125,3.0228,2.9753,2.9172,2.9381,2.8985,2.8212,2.8513,2.8407,2.7589,2.7194,2.6815,2.6295,2.5878,2.6045,2.6396,2.6865,2.7226,2.7676,2.8096,2.8213,2.8301,2.8301,2.8301,2.8301,2.8301,2.8301,2.8301,2.8262,2.781,2.6984,2.6199,2.5006,2.3018,2.2201,2.0961,1.9529,1.8941,1.8377,1.7845,1.7589,1.7589,1.7589,1.7589,1.7589,1.7589,1.7589,1.7589,1.7536,1.7331,1.712,1.6902,1.6636,1.6424,1.6371,1.6477,1.6643,1.6855,1.706,1.7325,1.7325,1.743,1.743,1.7582,1.7589,1.7589,1.7749,1.8103,1.839,1.8631,1.8998,1.9363,1.9424,1.9424,1.9424,1.9424,1.9424,1.9424,1.9424,1.9424,1.9424,1.9424,1.9424,1.9424,1.9482,1.9533,2.0396,2.1358,2.2502,2.395,2.5772,2.7335,2.8735,2.9393,2.9988,3.0451,3.0791,3.0859,3.0898,3.0898,3.0898,3.0898,3.0898,3.0898,3.0898,3.0898,3.0898,3.0898,3.1054,3.1276,3.1787,2.5917,2.6476,2.8134,2.9344,3.0159,3.03,2.9924,2.9493,2.9849,2.9465,2.8655,2.9002,2.8759,2.8116,2.755,2.7081,2.6679,2.631,2.6348,2.6641,2.6992,2.7451,2.7812,2.8115,2.8242,2.8301,2.8301,2.8301,2.8301,2.8301,2.8301,2.8301,2.8009,2.768,2.6711,2.5753,2.4632,2.2835,2.1624,2.0488,1.9556,1.8798,1.825,1.7879,1.7589,1.7589,1.7589,1.7589,1.7589,1.7589,1.7589,1.7589,1.7582,1.743,1.7331,1.7166,1.7054,1.6895,1.6895,1.706,1.7173,1.7279,1.7483,1.7582,1.7582,1.7582,1.7582,1.7582,1.7589,1.7635,1.7796,1.8063,1.8337,1.8597,1.9011,1.9417,1.9424,1.9424,1.9424,1.9424,1.9424,1.9424,1.9424,1.9424,1.9424,1.9424,1.9424,1.9424,1.9424,1.9482,1.9935,2.0794,2.1782,2.3332,2.504,2.6477,2.8002,2.8975,2.9584,3.0238,3.0723,3.083,3.0898,3.0898,3.0898,3.0879,3.0889,3.0898,3.0898,3.0898,3.0898,3.0947,3.1054,3.1392,3.217,2.6207,2.7109,2.8703,2.9703,3.0274,3.0606,3.0266,2.9573,2.9899,2.9436,2.8825,2.9352,2.9394,2.8447,2.819,2.7681,2.7093,2.6772,2.7053,2.7432,2.7454,2.7754,2.8057,2.8203,2.8271,2.8301,2.8301,2.8301,2.8301,2.8301,2.8291,2.8291,2.8023,2.7527,2.6795,2.5703,2.4205,2.2525,2.1284,2.0197,1.9303,1.8651,1.8189,1.7854,1.7589,1.7589,1.7589,1.7589,1.7589,1.7589,1.7589,1.7589,1.7589,1.7529,1.7483,1.7437,1.7318,1.7318,1.7378,1.7378,1.743,1.7483,1.7589,1.7589,1.7589,1.7589,1.7589,1.7589,1.7589,1.7589,1.7762,1.8183,1.8497,1.8711,1.9038,1.9316,1.9424,1.9424,1.9424,1.9424,1.9424,1.9424,1.9424,1.9424,1.9424,1.9424,1.9424,1.9424,1.9424,1.9482,1.954,2.0319,2.1161,2.2593,2.4163,2.56,2.7006,2.8155,2.921,2.9899,3.045,3.083,3.0879,3.0752,3.0801,3.084,3.0859,3.0898,3.0898,3.0898,3.0898,3.0947,3.1054,3.1441,3.2227]}]]